[[{"header":{"parameterUnit":"m.s-1","parameterCategory":1,"la1":30.6,"la2":29.2853,"lo1":-89.7004,"lo2":-87.6739,"dy":0.0162,"dx":0.0183,"nx":112,"ny":82,"refTime":"2026-02-28T12:00:00:Z","depth":0,"parameterNumber":2,"parameterNumberName":"U-component_of_WINDS"},"data":[0.0,0.0,0.0,0.0,0.0,0.0,0.0,0.0,0.0,0.0,0.0,0.0,0.0,0.0,0.0,0.0,0.0,0.0,0.0,0.0,0.0,0.0,0.0,0.0,0.0,0.0,0.0,0.0,0.0,0.0,0.0,0.0,0.0,0.0,0.0,0.0,0.0,0.0,0.0,0.0,0.0,0.0,0.0,0.0,0.0,0.0,0.0,0.0,0.0,0.0,0.0,0.0,0.0,0.0,0.0,0.0,0.0,0.0,0.0,0.0,0.0,0.0,0.0,0.0,0.0,0.0,0.0,0.0,0.0,0.0,0.0,0.0,0.0,0.0,0.0,0.0,0.0,0.0,0.0,0.0,0.0,0.0,0.0,0.0,0.0,0.0,0.0,0.0,0.0,0.0,0.0,-2.5812,-2.6197,-2.6499,-2.6499,-2.6499,-2.6021,-2.485,0.0,0.0,0.0,0.0,0.0,0.0,0.0,0.0,0.0,0.0,0.0,0.0,0.0,0.0,0.0,0.0,0.0,0.0,0.0,0.0,0.0,0.0,0.0,0.0,0.0,0.0,0.0,0.0,0.0,0.0,0.0,0.0,0.0,0.0,0.0,0.0,0.0,0.0,0.0,0.0,0.0,0.0,0.0,0.0,0.0,0.0,0.0,0.0,0.0,0.0,0.0,0.0,0.0,0.0,0.0,0.0,0.0,0.0,0.0,0.0,0.0,0.0,0.0,0.0,0.0,0.0,0.0,0.0,0.0,0.0,0.0,0.0,0.0,0.0,0.0,0.0,0.0,0.0,0.0,0.0,0.0,0.0,0.0,0.0,0.0,0.0,0.0,0.0,0.0,0.0,0.0,0.0,0.0,0.0,0.0,0.0,0.0,0.0,0.0,0.0,0.0,0.0,0.0,0.0,-2.5485,-2.6273,-2.6449,-2.6499,-2.6499,-2.6499,-2.6021,-2.485,0.0,0.0,0.0,0.0,0.0,0.0,0.0,0.0,0.0,0.0,0.0,0.0,0.0,0.0,0.0,0.0,0.0,0.0,0.0,0.0,0.0,0.0,0.0,0.0,0.0,0.0,0.0,0.0,0.0,0.0,0.0,0.0,0.0,0.0,0.0,0.0,0.0,0.0,0.0,0.0,0.0,0.0,0.0,0.0,0.0,0.0,0.0,0.0,0.0,0.0,0.0,0.0,0.0,0.0,0.0,0.0,0.0,0.0,0.0,0.0,0.0,0.0,0.0,0.0,0.0,0.0,0.0,0.0,0.0,0.0,0.0,0.0,0.0,0.0,0.0,0.0,0.0,0.0,0.0,0.0,0.0,0.0,0.0,0.0,0.0,0.0,0.0,0.0,0.0,0.0,0.0,0.0,0.0,0.0,0.0,0.0,0.0,0.0,0.0,0.0,0.0,0.0,0.0,-2.4983,-2.5234,-2.6373,-2.6499,-2.6499,-2.6499,-2.6499,-2.6147,-2.5285,-2.6047,0.0,0.0,0.0,0.0,0.0,0.0,0.0,0.0,0.0,0.0,0.0,0.0,0.0,0.0,0.0,0.0,0.0,0.0,0.0,0.0,0.0,0.0,0.0,0.0,0.0,0.0,0.0,0.0,0.0,0.0,0.0,0.0,0.0,0.0,0.0,0.0,0.0,0.0,0.0,0.0,0.0,0.0,0.0,0.0,0.0,0.0,0.0,0.0,0.0,0.0,0.0,0.0,0.0,0.0,0.0,0.0,0.0,0.0,0.0,0.0,0.0,0.0,0.0,0.0,0.0,0.0,0.0,0.0,0.0,0.0,0.0,0.0,0.0,0.0,0.0,0.0,0.0,0.0,0.0,0.0,0.0,0.0,0.0,0.0,0.0,0.0,0.0,0.0,0.0,0.0,0.0,0.0,0.0,0.0,0.0,0.0,0.0,0.0,0.0,0.0,0.0,0.0,-2.5285,-2.5536,-2.6399,-2.6499,-2.6499,-2.6499,-2.6373,-2.6097,-2.5611,-2.6047,0.0,0.0,0.0,0.0,0.0,0.0,0.0,0.0,0.0,0.0,0.0,0.0,0.0,0.0,0.0,0.0,0.0,0.0,0.0,0.0,0.0,0.0,0.0,0.0,0.0,0.0,0.0,0.0,0.0,0.0,0.0,0.0,0.0,0.0,0.0,0.0,0.0,0.0,0.0,0.0,0.0,0.0,0.0,0.0,0.0,0.0,0.0,0.0,0.0,0.0,0.0,0.0,0.0,0.0,0.0,0.0,0.0,0.0,0.0,0.0,0.0,0.0,0.0,0.0,0.0,0.0,0.0,0.0,0.0,0.0,0.0,0.0,0.0,0.0,0.0,0.0,0.0,0.0,0.0,0.0,0.0,0.0,0.0,0.0,0.0,0.0,0.0,0.0,0.0,0.0,0.0,0.0,0.0,0.0,0.0,0.0,0.0,0.0,0.0,0.0,0.0,0.0,-2.5737,-2.6399,-2.6474,-2.6499,-2.6499,-2.6499,-2.5996,-2.5636,-2.5586,-2.5636,0.0,0.0,0.0,0.0,0.0,0.0,0.0,0.0,0.0,0.0,0.0,0.0,0.0,0.0,0.0,0.0,0.0,0.0,0.0,0.0,0.0,0.0,0.0,0.0,0.0,0.0,0.0,0.0,0.0,0.0,0.0,0.0,0.0,0.0,0.0,0.0,0.0,0.0,0.0,0.0,0.0,0.0,0.0,0.0,0.0,0.0,0.0,0.0,0.0,0.0,0.0,0.0,0.0,0.0,0.0,0.0,0.0,0.0,0.0,0.0,0.0,0.0,0.0,0.0,0.0,0.0,0.0,0.0,0.0,0.0,0.0,0.0,0.0,0.0,0.0,0.0,0.0,0.0,0.0,0.0,0.0,0.0,0.0,0.0,0.0,0.0,0.0,0.0,0.0,0.0,0.0,0.0,0.0,0.0,0.0,0.0,0.0,0.0,0.0,0.0,0.0,0.0,-2.4565,-2.5182,0.0,-2.6129,-2.6499,-2.6499,-2.6298,-2.6021,-2.5611,0.0,0.0,0.0,0.0,0.0,0.0,0.0,0.0,0.0,0.0,0.0,0.0,0.0,0.0,0.0,0.0,0.0,0.0,0.0,0.0,0.0,0.0,0.0,0.0,0.0,0.0,0.0,0.0,0.0,0.0,0.0,0.0,0.0,0.0,0.0,0.0,0.0,0.0,0.0,0.0,0.0,0.0,0.0,0.0,0.0,0.0,0.0,0.0,0.0,0.0,0.0,0.0,0.0,0.0,0.0,0.0,0.0,0.0,0.0,0.0,0.0,0.0,0.0,0.0,0.0,0.0,0.0,0.0,0.0,0.0,0.0,0.0,0.0,0.0,0.0,0.0,0.0,0.0,0.0,0.0,0.0,0.0,0.0,0.0,0.0,0.0,0.0,0.0,0.0,0.0,0.0,0.0,0.0,0.0,0.0,0.0,0.0,0.0,0.0,0.0,0.0,0.0,-2.2851,-2.3537,-2.4131,0.0,-2.5134,-2.5546,-2.5546,-2.5376,-2.5271,-2.5176,0.0,0.0,0.0,0.0,0.0,0.0,0.0,0.0,0.0,0.0,0.0,0.0,0.0,0.0,0.0,0.0,0.0,0.0,0.0,0.0,0.0,0.0,0.0,0.0,0.0,0.0,0.0,0.0,0.0,0.0,0.0,0.0,0.0,0.0,0.0,0.0,0.0,0.0,0.0,0.0,0.0,0.0,0.0,0.0,0.0,0.0,0.0,0.0,0.0,0.0,0.0,0.0,0.0,0.0,0.0,0.0,0.0,0.0,0.0,0.0,0.0,0.0,0.0,0.0,0.0,0.0,0.0,0.0,0.0,0.0,0.0,0.0,0.0,0.0,0.0,0.0,0.0,0.0,0.0,0.0,0.0,0.0,0.0,0.0,0.0,0.0,0.0,0.0,0.0,0.0,0.0,0.0,0.0,0.0,0.0,0.0,0.0,0.0,0.0,0.0,0.0,0.0,-2.1978,-2.2863,-2.3489,-2.3489,-2.3489,-2.3526,-2.3526,-2.3005,-2.3105,0.0,0.0,0.0,0.0,0.0,0.0,0.0,0.0,0.0,0.0,0.0,0.0,0.0,0.0,0.0,0.0,0.0,0.0,0.0,0.0,0.0,0.0,0.0,0.0,0.0,0.0,0.0,0.0,0.0,0.0,0.0,0.0,0.0,0.0,0.0,0.0,0.0,0.0,0.0,0.0,0.0,0.0,0.0,0.0,0.0,0.0,0.0,0.0,0.0,0.0,0.0,0.0,0.0,0.0,0.0,0.0,0.0,0.0,0.0,0.0,0.0,0.0,0.0,0.0,0.0,0.0,0.0,0.0,0.0,0.0,0.0,0.0,0.0,0.0,0.0,0.0,0.0,0.0,0.0,0.0,0.0,0.0,0.0,0.0,0.0,0.0,0.0,0.0,0.0,0.0,0.0,0.0,0.0,0.0,0.0,0.0,0.0,0.0,0.0,0.0,0.0,0.0,0.0,-2.1005,-2.1852,-2.2451,-2.2451,-2.3062,-2.3526,-2.3526,-2.3355,-2.3367,-2.3573,0.0,0.0,0.0,0.0,0.0,0.0,0.0,0.0,0.0,0.0,0.0,0.0,0.0,0.0,0.0,0.0,0.0,0.0,0.0,0.0,0.0,0.0,0.0,0.0,0.0,0.0,0.0,0.0,0.0,0.0,0.0,0.0,0.0,0.0,0.0,0.0,0.0,0.0,0.0,0.0,0.0,0.0,0.0,0.0,0.0,0.0,0.0,0.0,0.0,0.0,0.0,0.0,0.0,0.0,0.0,0.0,0.0,0.0,0.0,0.0,0.0,0.0,0.0,0.0,0.0,0.0,0.0,0.0,0.0,0.0,0.0,0.0,0.0,0.0,0.0,0.0,0.0,0.0,0.0,0.0,0.0,0.0,0.0,0.0,0.0,0.0,0.0,0.0,0.0,0.0,0.0,0.0,0.0,0.0,0.0,0.0,0.0,0.0,0.0,0.0,0.0,0.0,-2.0297,-2.0965,-2.1512,-2.1657,-2.2088,-2.2339,-2.2339,-2.2339,-2.2302,-2.2252,0.0,0.0,0.0,0.0,0.0,0.0,0.0,0.0,0.0,0.0,0.0,0.0,0.0,0.0,0.0,0.0,0.0,0.0,0.0,0.0,0.0,0.0,0.0,0.0,0.0,0.0,0.0,0.0,0.0,0.0,0.0,0.0,0.0,0.0,0.0,0.0,0.0,0.0,0.0,0.0,0.0,0.0,0.0,0.0,0.0,0.0,0.0,0.0,0.0,0.0,0.0,0.0,0.0,0.0,0.0,0.0,0.0,0.0,0.0,0.0,0.0,0.0,0.0,0.0,0.0,0.0,0.0,0.0,0.0,0.0,0.0,0.0,0.0,0.0,0.0,0.0,0.0,0.0,0.0,0.0,0.0,0.0,0.0,0.0,0.0,0.0,0.0,0.0,0.0,0.0,0.0,0.0,0.0,0.0,0.0,0.0,0.0,0.0,0.0,0.0,0.0,0.0,-1.9863,-2.0293,-2.0742,-2.1151,-2.084,-2.0605,-2.0605,-2.0605,-2.0614,-2.0657,0.0,0.0,0.0,0.0,0.0,0.0,0.0,0.0,0.0,0.0,0.0,0.0,0.0,0.0,0.0,0.0,0.0,0.0,0.0,0.0,0.0,0.0,0.0,0.0,0.0,0.0,0.0,0.0,0.0,0.0,0.0,0.0,0.0,0.0,0.0,0.0,0.0,0.0,0.0,0.0,0.0,0.0,0.0,0.0,0.0,0.0,0.0,0.0,0.0,0.0,0.0,0.0,0.0,0.0,0.0,0.0,0.0,0.0,0.0,0.0,-2.6346,0.0,0.0,0.0,0.0,0.0,0.0,0.0,0.0,0.0,0.0,0.0,0.0,0.0,0.0,0.0,0.0,0.0,0.0,0.0,0.0,0.0,0.0,0.0,0.0,0.0,0.0,0.0,0.0,0.0,0.0,0.0,0.0,0.0,0.0,0.0,0.0,0.0,0.0,0.0,0.0,0.0,-1.9863,-2.0293,-2.0742,-2.1151,-2.084,-2.0605,-2.0605,-2.0605,-2.0753,-2.1058,0.0,0.0,0.0,0.0,0.0,0.0,0.0,0.0,0.0,0.0,0.0,0.0,0.0,0.0,0.0,0.0,0.0,0.0,0.0,0.0,0.0,0.0,0.0,0.0,0.0,0.0,0.0,0.0,0.0,0.0,0.0,0.0,0.0,0.0,0.0,0.0,0.0,0.0,0.0,0.0,0.0,0.0,0.0,0.0,0.0,0.0,0.0,0.0,0.0,0.0,0.0,0.0,0.0,0.0,0.0,0.0,0.0,0.0,0.0,0.0,0.0,-2.5774,0.0,0.0,0.0,0.0,0.0,0.0,0.0,0.0,0.0,0.0,0.0,0.0,0.0,0.0,0.0,0.0,0.0,0.0,0.0,0.0,0.0,0.0,0.0,0.0,0.0,0.0,0.0,0.0,0.0,0.0,0.0,0.0,0.0,0.0,0.0,0.0,0.0,0.0,0.0,0.0,-2.043,-2.0566,-2.086,-2.1484,-2.1152,-2.0898,-2.0898,-2.1114,-2.1155,-2.0919,-2.0714,0.0,0.0,0.0,0.0,0.0,0.0,0.0,0.0,0.0,0.0,0.0,0.0,0.0,0.0,0.0,0.0,0.0,0.0,0.0,0.0,0.0,0.0,0.0,0.0,0.0,0.0,0.0,0.0,0.0,0.0,0.0,0.0,0.0,0.0,0.0,0.0,0.0,0.0,0.0,0.0,0.0,0.0,0.0,0.0,0.0,0.0,0.0,0.0,0.0,0.0,0.0,0.0,0.0,-2.4611,-2.4838,-2.5131,-2.5131,-2.5131,-2.5131,-2.4876,-2.4393,-2.3775,0.0,0.0,0.0,0.0,0.0,0.0,0.0,0.0,0.0,0.0,0.0,0.0,0.0,0.0,0.0,0.0,0.0,0.0,0.0,0.0,0.0,0.0,0.0,0.0,0.0,-1.6709,-1.6271,0.0,0.0,0.0,0.0,0.0,0.0,0.0,0.0,0.0,0.0,0.0,0.0,-2.0455,-2.036,-2.0554,-2.1604,-2.1255,-2.1086,-2.1307,-2.168,-2.1582,-2.0879,-2.0762,-2.0176,0.0,0.0,0.0,0.0,0.0,0.0,0.0,0.0,0.0,0.0,0.0,0.0,0.0,0.0,0.0,0.0,0.0,0.0,0.0,0.0,0.0,0.0,0.0,0.0,0.0,0.0,0.0,0.0,0.0,0.0,0.0,0.0,-2.4695,-2.4695,0.0,0.0,0.0,0.0,0.0,0.0,0.0,0.0,0.0,0.0,0.0,0.0,0.0,-2.1357,-2.1277,-2.1929,-2.2263,-2.2348,-2.2682,-2.2867,-2.2917,-2.2917,-2.2917,-2.2934,-2.3325,0.0,-2.3564,-2.3717,0.0,0.0,0.0,0.0,0.0,0.0,0.0,0.0,0.0,0.0,0.0,0.0,0.0,0.0,0.0,0.0,0.0,0.0,0.0,0.0,0.0,0.0,-1.5906,-1.5718,-1.5618,-1.5459,0.0,-1.5899,-1.6504,-1.6579,-1.6371,0.0,0.0,0.0,0.0,0.0,0.0,0.0,-1.8153,-1.8406,-1.9127,-2.0685,-2.0462,-2.062,-2.1714,-2.1855,-2.1836,-2.1719,-2.1367,-2.0898,-2.037,-1.9941,0.0,0.0,0.0,0.0,0.0,0.0,0.0,0.0,0.0,0.0,0.0,0.0,0.0,0.0,0.0,0.0,0.0,0.0,0.0,0.0,0.0,0.0,0.0,0.0,0.0,0.0,0.0,0.0,0.0,-2.3275,-2.3373,-2.3991,-2.3521,-2.3204,0.0,0.0,0.0,0.0,0.0,0.0,0.0,0.0,0.0,-2.1242,-2.1389,-2.1501,-2.1764,-2.2091,-2.2352,-2.2654,-2.2818,-2.2999,-2.325,-2.325,-2.325,-2.325,-2.347,-2.3108,-2.2457,-2.2687,-2.2349,-2.1654,0.0,0.0,0.0,0.0,-2.0793,-2.0657,-1.9701,-1.9344,0.0,-1.898,0.0,0.0,0.0,0.0,0.0,0.0,0.0,0.0,0.0,0.0,0.0,-1.5912,-1.5765,-1.5605,-1.5471,-1.5662,-1.5948,0.0,-1.6047,-1.5957,-1.5982,0.0,0.0,0.0,0.0,0.0,-1.8051,-1.8153,-1.8599,-1.958,-1.946,-1.9549,-2.011,-2.041,-2.0446,-2.0171,-1.9951,-1.9596,-1.8935,-1.8717,-1.8241,0.0,0.0,0.0,0.0,0.0,0.0,0.0,0.0,0.0,0.0,0.0,0.0,0.0,0.0,0.0,0.0,0.0,0.0,0.0,0.0,0.0,0.0,0.0,0.0,0.0,0.0,0.0,0.0,-2.2934,-2.2709,-2.3215,-2.2631,-2.2274,0.0,0.0,0.0,0.0,0.0,0.0,-2.0575,-2.067,-2.0802,-2.1037,-2.1115,-2.1286,-2.1604,-2.1643,-2.1869,-2.2229,-2.2229,-2.2354,-2.2661,-2.2661,-2.2661,-2.2661,-2.2661,-2.204,-2.1086,-2.1627,-2.1442,-2.0798,-2.0323,-2.0361,-2.0639,-2.0103,-1.9894,-1.9763,-1.8879,-1.8499,-1.8362,-1.8189,0.0,-1.7679,-1.8025,0.0,0.0,0.0,0.0,-1.7581,-1.6896,-1.6239,-1.5771,-1.5771,-1.5551,-1.5296,-1.5296,-1.5423,-1.5581,0.0,-1.5734,-1.5673,-1.5617,0.0,0.0,0.0,0.0,-1.6744,-1.7501,-1.7585,-1.783,-1.8546,-1.8563,-1.8636,-1.895,-1.9286,-1.9336,-1.9011,-1.8994,-1.8671,-1.7979,-1.7904,-1.7562,-1.679,0.0,0.0,0.0,0.0,0.0,0.0,0.0,0.0,0.0,0.0,0.0,0.0,0.0,0.0,0.0,0.0,0.0,0.0,0.0,0.0,0.0,0.0,0.0,0.0,0.0,0.0,0.0,0.0,0.0,-2.1929,-2.2009,0.0,0.0,0.0,0.0,-2.0851,-2.1471,-2.1254,-2.0023,-2.0321,-1.9972,-1.874,-1.8899,-1.9047,-1.9061,-1.9401,-1.955,-1.9564,-1.9564,-1.9577,-1.9649,-1.9649,-1.9649,-1.9649,-1.9649,-1.9591,-1.9622,-2.0764,-2.1088,-2.0788,-1.9851,-2.0287,-2.1208,-1.9311,-1.8607,-1.8454,-1.7594,-1.7069,-1.6921,-1.7459,-1.7257,-1.6773,-1.6796,-1.6643,0.0,0.0,-1.6558,-1.6787,-1.67,-1.5569,-1.4408,-1.4408,-1.4206,-1.4016,-1.4016,-1.4937,-1.5712,0.0,-1.5214,-1.4963,-1.4639,0.0,-1.4304,-1.4532,-1.4599,-1.4842,-1.5481,-1.5745,-1.6391,-1.7608,-1.7762,-1.8211,-1.9372,-1.948,-1.948,-1.9464,-1.9464,-1.9298,-1.883,-1.8769,-1.8338,-1.7553,-1.7253,0.0,0.0,0.0,0.0,0.0,0.0,0.0,0.0,0.0,0.0,0.0,0.0,0.0,0.0,0.0,0.0,0.0,0.0,0.0,0.0,0.0,0.0,0.0,0.0,0.0,0.0,0.0,0.0,-2.1764,-2.1475,0.0,-2.1412,-2.0679,-2.0229,-2.0229,-1.9876,-1.959,-1.9237,-1.9403,-1.9345,-1.9109,-1.9158,-1.9212,-1.9212,-1.9319,-1.943,-1.943,-1.943,-1.943,-1.943,-1.943,-1.943,-1.943,-1.943,-1.943,-1.9417,-1.9871,-1.9863,-1.9584,-1.9002,-1.8992,-1.9151,-1.8412,-1.8047,-1.7894,-1.7551,-1.7355,-1.7275,-1.7353,-1.6523,-1.555,-1.5429,-1.4639,-1.3836,-1.3992,-1.4104,-1.4257,-1.4466,-1.3846,-1.3185,-1.3185,-1.2897,-1.2619,-1.2619,-1.2958,-1.3273,-1.3194,-1.4303,-1.515,-1.4856,-1.4723,-1.4629,-1.4536,-1.4843,-1.5164,-1.5364,-1.5645,-1.5974,-1.6433,-1.648,-1.6669,-1.7063,-1.7109,-1.7109,-1.7109,-1.7312,-1.737,-1.7221,-1.7207,-1.6958,-1.645,-1.5978,-1.5447,0.0,0.0,0.0,0.0,0.0,0.0,0.0,0.0,0.0,0.0,0.0,0.0,0.0,0.0,0.0,0.0,0.0,0.0,0.0,0.0,0.0,0.0,0.0,0.0,0.0,0.0,-2.0357,-2.0841,-2.0501,-2.0395,-2.071,-2.0033,-1.9559,-1.9559,-1.9098,-1.8865,-1.9065,-1.9078,-1.9158,-1.9417,-1.943,-1.9127,-1.859,-1.859,-1.8344,-1.776,-1.776,-1.776,-1.776,-1.776,-1.776,-1.7818,-1.8344,-1.859,-1.8648,-1.9185,-1.895,-1.8269,-1.8519,-1.845,-1.8129,-1.8035,-1.7849,-1.7529,-1.7041,-1.6552,-1.609,-1.5919,-1.5217,-1.4395,-1.4227,-1.3455,-1.2755,-1.2896,-1.2989,-1.3029,-1.3224,-1.2674,-1.2015,-1.1948,-1.1611,-1.1295,-1.1277,-1.1609,-1.1901,-1.1901,-1.3171,-1.4117,-1.3893,-1.3799,-1.3874,-1.4104,-1.4487,-1.4908,-1.5478,-1.5712,-1.5784,-1.5784,-1.5784,-1.5784,-1.5784,-1.5784,-1.5784,-1.5784,-1.6019,-1.6126,-1.6126,-1.6126,-1.6032,-1.5784,-1.5257,-1.4767,-1.4229,0.0,0.0,0.0,0.0,0.0,0.0,0.0,0.0,0.0,0.0,0.0,0.0,0.0,0.0,0.0,0.0,0.0,0.0,0.0,0.0,0.0,0.0,0.0,-1.9161,-2.0131,-2.0243,-1.9072,-1.9225,-1.9292,-1.8998,-1.8958,-1.8945,-1.8945,-1.9141,-1.9314,-1.9314,-1.9301,-1.9243,-1.9243,-1.9243,-1.8519,-1.6962,-1.6903,-1.6138,-1.4599,-1.4599,-1.4599,-1.4599,-1.4599,-1.4599,-1.4658,-1.6256,-1.6903,-1.7032,-1.859,-1.8344,-1.7055,-1.8339,-1.8645,-1.8353,-1.8006,-1.7702,-1.7265,-1.5849,-1.4449,-1.3318,-1.3318,-1.3264,-1.321,-1.321,-1.321,-1.3156,-1.3156,-1.3156,-1.3156,-1.3156,-1.1979,-1.078,-1.0646,-1.0408,-1.0121,-0.9995,-1.0935,-1.1804,-1.1804,-1.1804,-1.1734,-1.1552,-1.1512,-1.1937,-1.3169,-1.3356,0.0,-1.5507,-1.5724,-1.5737,-1.5737,-1.5784,-1.5784,-1.5784,-1.5784,-1.5784,-1.5784,-1.5784,-1.5798,-1.5798,-1.5798,-1.5798,-1.5784,-1.5225,-1.4785,-1.4449,0.0,0.0,0.0,0.0,0.0,0.0,0.0,0.0,0.0,0.0,0.0,0.0,0.0,0.0,0.0,0.0,0.0,0.0,0.0,0.0,0.0,0.0,-1.8494,-1.8741,-1.9304,-1.9792,-1.9826,-2.0134,-2.0201,-1.9907,-1.9679,-1.9466,-1.9265,-1.8248,-1.7689,-1.7689,-1.6562,-1.5913,-1.5913,-1.5913,-1.5736,-1.5252,-1.5252,-1.5015,-1.4599,-1.4599,-1.4599,-1.4599,-1.4599,-1.4599,-1.4599,-1.5074,-1.5252,-1.5311,-1.5736,-1.5677,-1.5419,-1.695,-1.6645,-1.5371,-1.5306,-1.4964,-1.4582,-1.4029,-1.3642,-1.3318,-1.3318,-1.2561,-1.1701,-1.1701,-1.0945,-1.0131,-1.0131,-1.0131,-1.0131,-1.0131,-0.9682,-0.928,-0.9236,-0.9099,-0.8939,-0.8794,-0.9054,-0.9268,-0.9095,-0.9065,-0.9633,-1.1472,-1.1801,-1.1897,-1.2234,-1.2283,0.0,-1.2909,-1.3836,-1.4411,-1.4411,-1.5248,-1.5784,-1.5784,-1.5784,-1.5784,-1.5784,-1.6032,-1.6152,-1.6152,-1.6152,-1.6046,-1.5784,-1.4502,-1.3674,0.0,0.0,0.0,0.0,0.0,0.0,0.0,0.0,0.0,0.0,0.0,0.0,0.0,0.0,0.0,0.0,0.0,0.0,0.0,0.0,0.0,0.0,-1.6911,-1.7053,-1.7232,-1.8792,-1.98,-1.9369,-1.9498,-1.9274,-1.8297,-1.7937,-1.7661,-1.7505,-1.656,-1.5961,-1.5961,-1.5133,-1.4599,-1.4599,-1.4599,-1.4302,-1.3586,-1.3586,-1.3228,-1.2569,-1.2569,-1.2569,-1.2569,-1.2569,-1.2569,0.0,-1.3287,-1.3586,-1.3646,-1.4302,-1.4183,0.0,0.0,0.0,0.0,0.0,-1.344,-1.2646,-1.2487,-1.2092,-1.1588,-1.1455,-1.0891,-1.0186,-1.0186,-0.9588,-0.8885,-0.8885,-0.8885,-0.8885,-0.8885,-0.8817,-0.8791,-0.8723,-0.8642,-0.854,-0.8391,-0.8368,-0.8241,-0.8153,-0.8035,0.0,-0.9993,-1.0288,-1.0485,-1.1023,-1.1121,-1.1317,-1.1853,-1.2571,-1.3054,-1.3054,-1.374,-1.422,-1.4279,-1.4725,0.0,0.0,0.0,-1.5044,-1.4461,-1.4461,0.0,0.0,0.0,0.0,0.0,0.0,0.0,0.0,-1.2662,-1.2259,0.0,0.0,0.0,0.0,0.0,0.0,0.0,0.0,0.0,0.0,0.0,0.0,0.0,0.0,0.0,0.0,-1.5157,-1.473,-1.5383,-1.8211,-1.9575,-1.8046,-1.7845,-1.7204,-1.5653,-1.5102,-1.4851,-1.4801,-1.45,-1.4331,-1.4302,0.0,0.0,0.0,0.0,-1.3347,-1.1916,-1.1916,-1.1201,-0.9822,-0.9822,-0.9822,-0.9822,-0.9822,-0.9822,-0.9883,-1.1314,-1.1916,-1.2037,-1.3467,-1.3228,-1.2097,-1.3526,-1.3878,-1.3684,-1.3356,-1.2422,-1.1257,-1.1134,0.0,0.0,-0.9008,-0.8898,-0.8885,-0.8885,-0.8885,-0.8885,-0.8885,-0.8885,-0.8885,-0.8885,-0.8885,-0.8851,-0.8771,-0.8737,-0.8696,-0.854,-0.8411,-0.8368,-0.8347,-0.818,-0.8035,-0.8035,-0.8015,-0.8386,-0.9608,-0.9756,-1.019,-1.1317,-1.1629,-1.1688,-1.1688,0.0,0.0,-1.2194,-1.3155,-1.3329,-1.2294,-1.3155,-1.3191,-1.2021,-1.1972,-1.2063,-1.2204,-1.2053,-1.2051,-1.2196,-1.2042,-1.1958,-1.1987,-1.1172,-1.1154,0.0,0.0,0.0,0.0,0.0,0.0,0.0,0.0,0.0,0.0,0.0,0.0,0.0,0.0,0.0,-1.4525,-1.4892,-1.5312,-1.5506,-1.6253,-1.669,-1.6368,-1.6304,-1.6103,-1.5536,-1.5446,-1.5182,-1.4821,-1.3554,-1.2804,-1.2637,-1.1434,-1.0717,-1.0717,-1.0717,-1.0604,-1.0301,-1.024,-1.0119,-0.9822,0.0,0.0,-0.9822,-0.9822,-0.9822,-0.9822,-1.0119,-1.024,-1.0301,-1.0596,-1.0536,-1.0301,-1.0604,-1.0695,-1.0651,-1.0436,-1.0207,-0.995,-0.9787,-0.9538,-0.9207,-0.918,-0.9035,-0.8885,-0.8885,-0.8885,0.0,-0.8885,-0.8885,-0.8885,-0.8885,-0.8885,-0.8878,-0.8844,-0.8838,-0.8797,-0.8703,-0.8648,-0.8587,-0.8465,-0.8418,-0.8397,-0.8397,-0.8201,-0.8088,-0.8329,-0.8379,-0.8478,-0.8726,-0.9771,-1.0506,-1.0506,-1.1608,-1.2343,-1.2383,-1.2547,-1.2598,-1.2383,-1.2547,-1.2577,-1.2323,-1.2273,-1.2343,-1.2332,-1.1307,-1.0768,-1.0802,-0.9771,-0.9345,-0.9603,-1.0387,-1.0776,0.0,0.0,0.0,0.0,0.0,0.0,0.0,0.0,0.0,0.0,0.0,-1.6037,-1.4625,0.0,-1.3886,-1.3475,-1.3178,-1.3015,-1.3108,-1.32,-1.3643,-1.4493,-1.4623,-1.4187,-1.3198,-1.304,-1.2864,-1.2594,-1.1689,-1.1141,-1.1027,-1.024,-0.9822,-0.9822,-0.9822,-0.9822,-0.9822,-0.9822,-0.9822,-0.9822,-0.9822,-0.9822,-0.9822,-0.9822,-0.9822,-0.9822,-0.9822,-0.9822,-0.9822,-0.9822,-0.9822,-0.9822,-0.9822,-0.9822,-0.9815,-0.9741,-0.9713,-0.9693,-0.9544,-0.9449,-0.9354,-0.9262,-0.9103,-0.9035,-0.8905,-0.8885,-0.8885,-0.8885,-0.8885,-0.8885,-0.8885,-0.8885,-0.8885,-0.8885,-0.8885,-0.8865,-0.8838,-0.8764,-0.8689,-0.8615,-0.8533,-0.8479,-0.8479,-0.8357,-0.8262,-0.8262,-0.8262,-0.8262,-0.8262,-0.8881,-0.9337,-0.9337,-1.0027,-1.0481,-1.0521,-1.0529,-1.0801,-1.138,-1.0802,-1.0448,-1.0448,-1.0448,-1.0489,-1.0529,-0.9904,-0.9617,-0.9783,-0.9138,-0.8933,-0.9157,-0.9829,-1.0122,0.0,0.0,0.0,0.0,0.0,0.0,0.0,0.0,-1.6274,-1.5235,-1.5177,-1.4969,-1.38,-1.2697,-1.2098,-1.2403,-1.1351,-1.0582,-1.0704,-1.0717,-1.124,-1.261,-1.2808,-1.2215,-1.085,-1.0609,-1.0473,-1.0331,-1.0181,-0.9963,-0.9876,-0.9836,-0.9822,-0.9822,-0.9822,-0.9822,-0.9822,-0.9822,-0.9822,-0.9822,-0.9822,-0.9822,-0.9822,-0.9822,-0.9822,-0.9822,-0.9822,-0.9822,-0.9822,-0.9822,-0.9822,-0.9822,-0.9822,-0.9822,-0.9822,-0.9822,-0.9822,-0.9802,-0.9693,-0.9632,-0.9571,-0.932,-0.9275,-0.9228,-0.9022,-0.8981,-0.8974,-0.8892,-0.8885,-0.8885,-0.8885,-0.8885,-0.8885,-0.8885,-0.8885,-0.8885,-0.8885,-0.8845,-0.8757,-0.8757,-0.8655,-0.8574,-0.8574,-0.8574,-0.8554,-0.8492,-0.8479,-0.8479,-0.8479,-0.8506,-0.8526,-0.8526,-0.8554,-0.8621,-0.8743,-0.8757,-0.9126,-1.0039,-0.9142,-0.8574,-0.8574,-0.8574,-0.8628,-0.875,-0.8757,-0.8886,-0.9207,-0.918,-0.9218,-0.9429,-0.949,-0.949,-1.7393,-1.7179,-1.6832,-1.5375,-1.5176,-1.5152,0.0,0.0,-1.429,-1.429,-1.4721,-1.4472,-1.269,-1.2591,-1.2339,-1.0998,-1.0733,-1.0704,-1.0717,-1.0717,-1.0784,-1.0982,-1.0982,-1.0916,-1.0717,-1.0704,-1.0629,-1.048,-1.0337,-1.0188,-0.997,-0.9897,-0.9822,-0.9822,-0.9822,-0.9822,-0.9822,-0.9822,-0.9822,-0.9822,-0.9822,-0.9822,-0.9822,-0.9822,-0.9822,-0.9822,-0.9822,-0.9822,-0.9822,-0.9822,-0.9822,-0.9822,-0.9822,-0.9822,-0.9822,-0.9822,-0.9822,-0.9822,-0.9802,-0.9713,-0.9605,-0.9571,-0.9469,-0.9327,-0.9234,-0.9187,-0.9103,-0.8974,-0.8885,-0.8885,-0.8885,-0.8885,-0.8885,-0.8885,-0.8885,-0.8885,-0.8885,-0.8871,-0.8858,-0.8858,-0.8844,-0.8831,-0.8831,-0.8831,-0.8798,-0.852,-0.8479,-0.8479,-0.8479,-0.8601,-0.8682,-0.8682,-0.8804,-0.8838,-0.8858,-0.8858,-0.8906,-0.9051,-0.8941,-0.8831,-0.8831,-0.8831,-0.8838,-0.8858,-0.8858,-0.8994,-0.9207,-0.9022,-0.9178,-0.9578,-0.932,-0.934,-1.6913,-1.6308,0.0,0.0,-1.434,-1.4437,-1.4351,-1.4291,-1.411,-1.3478,-1.3555,-1.3219,-1.1512,-1.1436,-1.1403,0.0,-1.0677,-1.0717,-1.0717,-1.0717,-1.0717,-1.0717,-1.0717,-1.0717,-1.0717,-1.0717,-1.0656,-1.0507,-1.0358,-1.0215,-0.9997,-0.9903,-0.9822,-0.9822,-0.9822,-0.9822,-0.9822,-0.9822,-0.9822,-0.9822,-0.9822,-0.9822,-0.9822,-0.9822,-0.9822,-0.9822,-0.9822,-0.9822,-0.9822,-0.9822,-0.9822,-0.9822,-0.9822,-0.9822,-0.9822,-0.9822,-0.9822,-0.9822,-0.9822,-0.9781,-0.972,-0.9639,-0.9564,-0.9483,-0.9334,-0.9344,-0.9252,-0.9103,-0.9062,-0.9042,-0.8905,-0.8885,-0.8885,-0.8885,-0.8885,-0.8885,-0.8885,-0.8885,-0.8885,-0.8885,-0.8885,-0.8885,-0.8885,-0.8885,-0.8838,-0.8764,-0.875,-0.875,-0.875,-0.8804,-0.879,-0.879,-0.8844,-0.8885,-0.8885,-0.8885,-0.8885,-0.8885,-0.8885,-0.8885,-0.8885,-0.8885,-0.8885,-0.8885,-0.8885,-0.9055,-0.9344,-0.9225,-0.9381,-0.9727,-0.9598,-0.9612,-1.5641,0.0,0.0,-1.3558,-1.3398,-1.3564,-1.3489,-1.3447,-1.3189,-1.2314,-1.2202,-1.1972,-1.075,-1.0643,-1.0717,-1.0717,-1.0717,-1.0717,-1.0717,-1.0717,-1.0704,-1.0663,-1.0656,-1.0656,-1.0656,-1.0697,-1.0677,-1.0561,-1.0385,-1.0229,-1.012,-0.9924,-0.9822,-0.9822,-0.9822,-0.9822,-0.9822,-0.9822,-0.9822,-0.9822,-0.9822,-0.9822,-0.9822,-0.9822,-0.9822,-0.9822,-0.9781,-0.9761,-0.9761,-0.9761,-0.9761,-0.9768,-0.9802,-0.9822,-0.9815,-0.9774,-0.9788,-0.9815,-0.9774,-0.9788,-0.9795,-0.9652,-0.9639,-0.9639,-0.949,-0.9415,-0.9347,-0.9255,-0.8897,-0.8501,-0.835,-0.7986,-0.7709,-0.7709,-0.7709,-0.7709,-0.7709,-0.7986,-0.8269,-0.8269,-0.8602,-0.8885,-0.8885,-0.8885,-0.8885,-0.8885,-0.8885,-0.8885,-0.8885,-0.8885,-0.8885,-0.8885,-0.8885,-0.8885,-0.8885,-0.8885,-0.8885,-0.8885,-0.8885,-0.8885,-0.8885,-0.8885,-0.8885,-0.8885,-0.8885,-0.9062,-0.932,-0.9279,-0.9408,-0.97,-0.9652,-0.9659,0.0,0.0,-1.3819,-1.2097,-1.2222,-1.2351,-1.0948,-1.061,-1.0651,-1.0743,-1.0777,-1.0777,-1.0711,-1.0717,-1.0717,-1.0717,-1.0717,-1.0717,-1.0717,-1.0717,-1.0663,-1.0514,-1.05,-1.05,0.0,-1.0629,-1.0717,-1.0711,-1.0446,-1.0276,-1.0276,-0.9985,-0.9822,-0.9822,-0.9822,-0.9822,-0.9822,-0.9822,-0.9822,-0.9822,-0.9822,-0.9822,-0.9822,-0.9822,-0.9822,-0.9815,-0.968,-0.9618,-0.9618,-0.9618,-0.9618,-0.9632,-0.9768,-0.9822,-0.9802,-0.9666,-0.97,-0.9802,-0.9666,-0.9707,-0.9795,-0.9652,-0.97,-0.9788,-0.9646,-0.9496,-0.9347,-0.9255,-0.8033,-0.676,-0.676,-0.5695,-0.4637,-0.4637,-0.4637,-0.4637,-0.4637,-0.5755,-0.6755,-0.6755,-0.7931,-0.8885,-0.8885,-0.8885,-0.8885,-0.8885,-0.8885,-0.8885,-0.8885,-0.8885,-0.8885,-0.8885,-0.8885,-0.8885,-0.8885,-0.8885,-0.8885,-0.8885,-0.8885,-0.8885,-0.8885,-0.8885,-0.8885,-0.8885,-0.8885,-0.9015,-0.9214,-0.9022,-0.9103,-0.9395,-0.9303,-0.9309,0.0,0.0,-1.2226,-1.1138,-1.106,-1.1156,-1.074,-1.0643,-1.0656,-1.0711,-1.0636,-1.0568,-1.0568,-1.0568,-1.0568,-1.0568,-1.0656,-1.0717,-1.0717,-1.0717,-1.0663,-1.0507,-1.0493,0.0,0.0,0.0,0.0,-1.0711,-1.0446,-1.0283,-1.0283,-0.9992,-0.9822,-0.9822,-0.9822,-0.9822,-0.9822,-0.9822,-0.9822,-0.9822,-0.9822,-0.9822,-0.9822,-0.9822,-0.9822,-0.9815,-0.9768,-0.9747,-0.9747,-0.9747,-0.9747,-0.9754,-0.9802,-0.915,-0.8222,-0.8181,-0.7476,-0.6842,-0.8759,-0.949,-0.934,-0.8284,-0.7943,-0.7788,-0.6803,-0.6476,-0.6367,-0.626,-0.5808,-0.5378,-0.5266,-0.486,-0.4526,-0.4526,-0.4526,-0.4526,-0.4526,-0.4916,-0.525,-0.525,-0.5644,-0.5977,-0.5977,-0.5977,-0.6311,-0.7315,-0.8269,-0.8885,-0.8885,-0.8885,-0.8885,-0.8885,-0.8885,-0.8885,-0.8885,-0.8885,-0.8885,-0.8885,-0.8885,-0.8885,-0.8885,-0.8885,-0.8885,-0.8885,-0.8885,-0.9008,-0.9207,-0.9103,-0.9239,-0.953,-0.9483,-0.9537,-1.1304,-1.1085,-1.1034,-1.0635,-1.0534,-1.0602,-1.0697,-1.0717,-1.0717,-1.0717,-1.0561,-1.0419,-1.0419,-1.0324,-1.029,-1.0399,-1.05,-1.0602,-1.0704,-1.0717,-1.0663,-1.0507,-1.0493,-1.0493,0.0,0.0,0.0,-1.0629,-1.0419,-1.0256,-1.0202,-0.9958,-0.9822,-0.9822,-0.9822,-0.9822,-0.9822,-0.9207,-0.8653,-0.8039,-0.8039,-0.8039,-0.8039,-0.8039,-0.8039,-0.8039,-0.7994,-0.7972,-0.7972,-0.7972,-0.7972,-0.7977,-0.8022,-0.7422,-0.6478,-0.6442,-0.5773,-0.5114,-0.7028,-0.7754,-0.7613,-0.6575,-0.6299,-0.6152,-0.5159,-0.4846,-0.4814,-0.4704,-0.4271,-0.3791,-0.3698,-0.3299,-0.2908,-0.2908,-0.2908,-0.2908,-0.2908,-0.3299,-0.3689,-0.3689,-0.4136,-0.4526,-0.4526,-0.4526,-0.4804,-0.575,-0.67,-0.7709,-0.8768,-0.8885,-0.8885,-0.8885,-0.8885,-0.8885,-0.8885,-0.8885,-0.8885,-0.8885,-0.8885,-0.8885,-0.8885,-0.8885,-0.8885,-0.8885,-0.8885,-0.9008,-0.9207,-0.9207,-0.9344,-0.953,-0.9585,-0.9659,-0.9947,-0.9958,-1.0324,-1.0466,-1.0616,-1.0717,-1.0717,-1.0717,-1.0717,-1.0711,-1.0473,-1.027,0.0,0.0,-0.993,-1.0229,-1.029,-1.0399,-1.0683,-1.0717,-1.0663,0.0,0.0,0.0,0.0,0.0,0.0,-1.0214,0.0,-1.0209,-1.0004,-0.9781,-0.97,-0.97,-0.9572,-0.9572,-0.9572,-0.8033,-0.6442,-0.4916,-0.4916,-0.4916,-0.4916,-0.4916,-0.4916,-0.4913,-0.4781,-0.4687,-0.4687,-0.4687,-0.4687,-0.4694,-0.4825,-0.4865,-0.479,-0.4653,-0.4521,-0.4455,-0.4455,-0.462,-0.4842,-0.465,-0.4678,-0.4736,-0.4681,-0.4572,-0.4455,-0.4455,-0.3336,-0.2068,-0.2068,-0.1064,0.0,0.0,0.0,0.0,0.0,-0.112,-0.2068,-0.2068,-0.324,-0.4247,-0.4247,-0.4247,-0.4303,-0.4359,-0.4359,-0.5417,-0.8318,-0.8657,-0.8712,-0.8768,-0.8774,-0.883,-0.8885,-0.8885,-0.8885,-0.8885,-0.8885,-0.8885,-0.8885,-0.8885,-0.8885,-0.8892,-0.8892,-0.9022,-0.9221,-0.9221,-0.9303,-0.9395,-0.9478,-0.9493,-1.0129,-1.027,-1.0473,-1.0622,-1.069,-1.0717,-1.0717,-1.0717,-1.069,-1.0575,-1.0317,-1.0107,0.0,0.0,0.0,-1.0249,-1.0466,0.0,-1.0711,-1.0717,0.0,0.0,0.0,-0.8459,-0.8459,-0.725,0.0,0.0,-0.8713,-1.0141,-1.0215,-0.8841,-0.8033,-0.8033,-0.6813,-0.6141,-0.6141,-0.5712,-0.5345,-0.4916,-0.4916,-0.4916,-0.4916,-0.4916,-0.4916,-0.4916,-0.4835,-0.4828,-0.4828,-0.4828,-0.4828,-0.4825,-0.4908,-0.419,-0.3124,-0.3074,-0.2283,-0.1183,-0.1183,-0.2709,-0.4412,-0.3209,-0.2876,-0.266,-0.1587,-0.1244,-0.1183,-0.1183,-0.0899,-0.056,-0.056,-0.028,0.0,0.0,0.0,0.0,0.0,-0.028,-0.056,-0.056,-0.0896,-0.112,-0.112,-0.112,-0.1512,-0.2626,-0.2794,-0.3463,-0.5361,-0.5644,-0.6033,-0.7149,-0.726,-0.7709,-0.883,-0.8885,-0.8885,-0.8885,-0.8885,-0.8885,-0.8885,-0.8885,-0.8988,-0.9096,-0.9096,-0.9171,-0.932,-0.932,-0.9401,-0.9492,-0.8325,-0.7845,-1.029,-1.048,-1.0616,-1.0697,-1.0717,-1.0683,-1.0555,-1.0527,-1.0466,-1.0243,-0.9964,0.0,0.0,0.0,0.0,0.0,0.0,0.0,-1.069,-1.0047,-0.948,0.0,-0.7812,0.0,-0.6753,-0.5751,-0.5151,0.0,-0.6855,-0.7874,-0.7943,-0.6898,-0.632,-0.632,-0.5406,-0.4548,-0.3873,-0.3873,-0.3507,-0.277,-0.277,-0.277,-0.277,-0.277,-0.277,-0.2768,0.0,-0.2741,-0.2741,-0.2722,-0.2774,-0.2772,-0.2747,-0.2181,-0.1396,-0.1393,-0.0801,0.0,0.0,-0.1127,-0.2405,-0.151,-0.1231,-0.1064,-0.0224,0.0,0.0,0.0,0.0,0.0,0.0,0.0,0.0,0.0,0.0,0.0,0.0,0.0,0.0,0.0,0.0,0.0,0.0,0.0,-0.028,-0.112,-0.1231,-0.1566,-0.2405,-0.3689,-0.4804,-0.5644,-0.5755,-0.6089,-0.6922,-0.6982,-0.6982,-0.6982,-0.6969,-0.7276,-0.8015,-0.8013,-0.842,-0.9252,-0.9309,-0.8974,-0.8407,-0.8407,-0.8118,-0.7517,-0.6547,-0.6211,-1.048,-1.0616,-1.0717,-1.0717,-1.0704,-1.0616,-1.0344,-1.0263,-1.0161,-0.9856,0.0,-0.9429,-0.9585,0.0,-0.9401,-0.9923,0.0,-0.9869,-1.0261,-0.8767,-0.7631,-0.7631,-0.6097,-0.5028,-0.5028,-0.4691,-0.4478,-0.4675,-0.4497,-0.458,-0.491,-0.4713,-0.4487,-0.4242,-0.4242,-0.3566,-0.2156,-0.2156,-0.1417,0.0,0.0,0.0,0.0,0.0,0.0,0.0,0.0,0.0,0.0,0.0,0.0,0.0,0.0,0.0,0.0,0.0,0.0,0.0,0.0,0.0,0.0,0.0,0.0,0.0,0.0,0.0,0.0,0.0,0.0,0.0,0.0,0.0,0.0,0.0,0.0,0.0,0.0,0.0,0.0,0.0,0.0,0.0,0.0,0.0,0.0,0.0,0.0,0.0,0.0,-0.2297,-0.3968,-0.4191,-0.4191,-0.425,-0.4484,-0.4484,-0.4491,-0.4497,-0.4498,-0.5104,-0.6536,-0.657,-0.7269,-0.8761,-0.8761,-0.8119,-0.6801,-0.6801,-0.6125,-0.4916,-0.4671,-0.461,-1.0636,-1.0697,-1.0717,-1.0717,-1.0622,-1.0487,-1.0317,-1.0181,0.0,0.0,0.0,-0.9429,-0.9585,-0.9564,0.0,-1.0161,0.0,0.0,0.0,0.0,-0.583,0.0,0.0,0.0,0.0,0.0,0.0,0.0,0.0,-0.2125,-0.4919,-0.3683,-0.2279,-0.0863,-0.0863,-0.074,-0.0432,-0.0432,-0.0308,0.0,0.0,0.0,0.0,0.0,0.0,0.0,0.0,0.0,0.0,0.0,0.0,0.0,0.0,0.0,0.0,0.0,0.0,0.0,0.0,0.0,0.0,0.0,0.0,0.0,0.0,0.0,0.0,0.0,0.0,0.0,0.0,0.0,0.0,0.0,0.0,0.0,0.0,0.0,0.0,0.0,0.0,0.0,0.0,0.0,0.0,0.0,0.0,0.0,0.0,-0.0452,-0.1232,-0.2459,-0.2626,-0.3089,-0.4382,-0.4498,-0.4525,-0.4473,-0.4486,-0.4609,-0.49,-0.4915,-0.513,-0.5499,-0.5499,-0.5422,-0.5262,-0.5262,-0.5147,-0.4855,-0.3505,-0.2893,-1.0704,-1.0717,-1.0717,-1.0717,-1.0602,-1.0412,-1.0114,0.0,0.0,0.0,0.0,-0.9198,-0.9347,0.0,0.0,0.0,0.0,0.0,0.0,0.0,0.0,0.0,0.0,0.0,0.0,0.0,0.0,0.0,0.0,-0.0691,-0.2352,-0.1684,-0.0802,0.0,0.0,0.0,0.0,0.0,0.0,0.0,0.0,0.0,0.0,0.0,0.0,0.0,0.0,0.0,0.0,0.0,0.0,0.0,0.0,0.0,0.0,0.0,0.0,0.0,0.0,0.0,0.0,0.0,0.0,0.0,0.0,0.0,0.0,0.0,0.0,0.0,0.0,0.0,0.0,0.0,0.0,0.0,0.0,0.0,0.0,0.0,0.0,0.0,0.0,0.0,0.0,0.0,0.0,0.0,0.0,0.0,-0.0288,-0.0976,-0.1034,-0.1382,-0.2089,-0.2148,-0.2155,-0.2172,-0.213,-0.2555,-0.3445,-0.3472,-0.3861,-0.4801,-0.4801,-0.4453,-0.3628,-0.3628,-0.32,-0.2339,-0.154,-0.1176,-1.0711,-1.0717,-1.0717,-1.0717,-1.0582,-1.0337,-0.9917,-0.9686,0.0,0.0,0.0,-0.8981,-0.918,0.0,0.0,0.0,0.0,0.0,0.0,0.0,0.0,0.0,0.0,0.0,0.0,0.0,0.0,0.0,0.0,0.0,0.0,0.0,0.0,0.0,0.0,0.0,0.0,0.0,0.0,0.0,0.0,0.0,0.0,0.0,0.0,0.0,0.0,0.0,0.0,0.0,0.0,0.0,0.0,0.0,0.0,0.0,0.0,0.0,0.0,0.0,0.0,0.0,0.0,0.0,0.0,0.0,0.0,0.0,0.0,0.0,0.0,0.0,0.0,0.0,0.0,0.0,0.0,0.0,0.0,0.0,0.0,0.0,0.0,0.0,0.0,0.0,0.0,0.0,0.0,0.0,0.0,0.0,0.0,0.0,0.0,0.0,0.0,0.0,0.0,-0.0606,-0.1936,-0.1959,-0.2585,-0.3812,-0.3873,-0.3204,-0.1981,-0.1981,-0.1303,0.0,0.0,0.0,-1.0683,-1.0717,-1.0717,-1.0717,-1.0507,-1.0215,-0.9897,0.0,0.0,0.0,-0.8885,-0.8981,-0.918,0.0,0.0,0.0,0.0,0.0,0.0,0.0,0.0,0.0,0.0,0.0,0.0,0.0,0.0,0.0,0.0,0.0,0.0,0.0,0.0,0.0,0.0,0.0,0.0,0.0,0.0,0.0,0.0,0.0,0.0,0.0,0.0,0.0,0.0,0.0,0.0,0.0,0.0,0.0,0.0,0.0,0.0,0.0,0.0,0.0,0.0,0.0,0.0,0.0,0.0,0.0,0.0,0.0,0.0,0.0,0.0,0.0,0.0,0.0,0.0,0.0,0.0,0.0,0.0,0.0,0.0,0.0,0.0,0.0,0.0,0.0,0.0,0.0,0.0,0.0,0.0,0.0,0.0,0.0,0.0,0.0,0.0,0.0,0.0,0.0,0.0,-0.0062,-0.0246,-0.0247,-0.0308,-0.0432,-0.0432,-0.0373,-0.0252,-0.0252,-0.0127,0.0,0.0,0.0,-1.0656,-1.0717,-1.0697,-1.0609,-1.0432,-1.0175,-0.9781,0.0,-0.9293,-0.8946,-0.8885,-0.8898,-0.9015,-0.8289,0.0,0.0,0.0,0.0,0.0,0.0,0.0,0.0,0.0,0.0,0.0,0.0,0.0,0.0,0.0,0.0,0.0,0.0,0.0,0.0,0.0,0.0,0.0,0.0,0.0,0.0,0.0,0.0,0.0,0.0,0.0,0.0,0.0,0.0,0.0,0.0,0.0,0.0,0.0,0.0,0.0,0.0,0.0,0.0,0.0,0.0,0.0,0.0,0.0,0.0,0.0,0.0,0.0,0.0,0.0,0.0,0.0,0.0,0.0,0.0,0.0,0.0,0.0,0.0,0.0,0.0,0.0,0.0,0.0,0.0,0.0,0.0,0.0,0.0,0.0,0.0,0.0,0.0,0.0,0.0,0.0,0.0,0.0,0.0,0.0,0.0,0.0,0.0,0.0,0.0,0.0,0.0,0.0,0.0,0.0,0.0,0.0,0.0,-1.0629,-1.0717,-1.0697,-1.0588,-1.0385,-1.012,0.0,0.0,-0.9239,-0.8932,-0.8546,-0.8269,-0.8269,-0.7038,-0.6033,0.0,0.0,-0.2185,0.0,0.0,0.0,0.0,0.0,0.0,0.0,0.0,0.0,0.0,0.0,0.0,0.0,0.0,0.0,0.0,0.0,0.0,0.0,0.0,0.0,0.0,0.0,0.0,0.0,0.0,0.0,0.0,0.0,0.0,0.0,0.0,0.0,0.0,0.0,0.0,0.0,0.0,0.0,0.0,0.0,0.0,0.0,0.0,0.0,0.0,0.0,0.0,0.0,0.0,0.0,0.0,0.0,0.0,0.0,0.0,0.0,0.0,0.0,0.0,0.0,0.0,0.0,0.0,0.0,0.0,0.0,0.0,0.0,0.0,0.0,0.0,0.0,0.0,0.0,0.0,0.0,0.0,0.0,0.0,0.0,0.0,0.0,0.0,0.0,0.0,0.0,0.0,0.0,0.0,0.0,0.0,0.0,0.0,-1.0595,-1.0717,-1.0717,-1.0717,-1.0378,-0.995,0.0,-0.9476,-0.9173,-0.8967,-0.7765,-0.67,-0.67,-0.5528,-0.4526,-0.4526,0.0,0.0,0.0,0.0,0.0,0.0,0.0,0.0,0.0,0.0,0.0,0.0,0.0,0.0,0.0,0.0,0.0,0.0,0.0,0.0,0.0,0.0,0.0,0.0,0.0,0.0,0.0,0.0,0.0,0.0,0.0,0.0,0.0,0.0,0.0,0.0,0.0,0.0,0.0,0.0,0.0,0.0,0.0,0.0,0.0,0.0,0.0,0.0,0.0,0.0,0.0,0.0,0.0,0.0,0.0,0.0,0.0,0.0,0.0,0.0,0.0,0.0,0.0,0.0,0.0,0.0,0.0,0.0,0.0,0.0,0.0,0.0,0.0,0.0,0.0,0.0,0.0,0.0,0.0,0.0,0.0,0.0,0.0,0.0,0.0,0.0,0.0,0.0,0.0,0.0,0.0,0.0,0.0,0.0,0.0,0.0,-1.0039,-1.0118,-1.0152,-1.0012,-0.9856,-0.968,-0.9422,-0.9309,-0.8884,-0.7621,-0.7038,-0.6366,-0.5361,-0.3965,-0.2928,-0.2937,-0.1693,0.0,0.0,0.0,0.0,0.0,0.0,0.0,0.0,0.0,0.0,0.0,0.0,0.0,0.0,0.0,0.0,0.0,0.0,0.0,0.0,0.0,0.0,0.0,0.0,0.0,0.0,0.0,0.0,0.0,0.0,0.0,0.0,0.0,0.0,0.0,0.0,0.0,0.0,0.0,0.0,0.0,0.0,0.0,0.0,0.0,0.0,0.0,0.0,0.0,0.0,0.0,0.0,0.0,0.0,0.0,0.0,0.0,0.0,0.0,0.0,0.0,0.0,0.0,0.0,0.0,0.0,0.0,0.0,0.0,0.0,0.0,0.0,0.0,0.0,0.0,0.0,0.0,0.0,0.0,0.0,0.0,0.0,0.0,0.0,0.0,0.0,0.0,0.0,0.0,0.0,0.0,0.0,0.0,-0.1277,-0.1814,0.0,-0.989,-0.9856,-0.9734,-0.9605,-0.9476,-0.9344,-0.8747,-0.7971,-0.6937,-0.5806,-0.4745,-0.3798,-0.2403,-0.1352,-0.138,-0.0584,0.0,0.0,0.0,0.0,0.0,0.0,0.0,0.0,0.0,0.0,0.0,0.0,0.0,0.0,0.0,0.0,0.0,0.0,0.0,0.0,0.0,0.0,0.0,0.0,0.0,0.0,0.0,0.0,0.0,0.0,0.0,0.0,0.0,0.0,0.0,0.0,0.0,0.0,0.0,0.0,0.0,0.0,0.0,0.0,0.0,0.0,0.0,0.0,0.0,0.0,0.0,0.0,0.0,0.0,0.0,0.0,0.0,0.0,0.0,0.0,0.0,0.0,0.0,0.0,0.0,0.0,0.0,0.0,0.0,0.0,0.0,0.0,0.0,0.0,0.0,0.0,0.0,0.0,0.0,0.0,0.0,0.0,0.0,0.0,0.0,0.0,0.0,0.0,0.0,0.0,0.0,0.0,-0.0067,-0.1881,-0.2761,0.0,-0.9768,-0.9774,-0.9761,-0.9551,-0.9347,-0.9347,-0.7992,0.0,-0.6589,-0.4244,-0.218,-0.2068,-0.0951,0.0,0.0,0.0,0.0,0.0,0.0,0.0,0.0,0.0,0.0,0.0,0.0,0.0,0.0,0.0,0.0,0.0,0.0,0.0,0.0,0.0,0.0,0.0,0.0,0.0,0.0,0.0,0.0,0.0,0.0,0.0,0.0,0.0,0.0,0.0,0.0,0.0,0.0,0.0,0.0,0.0,0.0,0.0,0.0,0.0,0.0,0.0,0.0,0.0,0.0,0.0,0.0,0.0,0.0,0.0,0.0,0.0,0.0,0.0,0.0,0.0,0.0,0.0,0.0,0.0,0.0,0.0,0.0,0.0,0.0,0.0,0.0,0.0,0.0,0.0,0.0,0.0,0.0,0.0,0.0,0.0,0.0,0.0,0.0,0.0,0.0,0.0,0.0,0.0,0.0,0.0,0.0,0.0,-0.0135,-0.0202,-0.0269,-0.222,-0.3183,-0.906,0.0,-0.9286,-0.9171,-0.904,-0.9042,0.0,-0.7806,-0.6366,-0.525,0.0,0.0,-0.0728,-0.0222,0.0,0.0,0.0,0.0,0.0,0.0,0.0,0.0,0.0,0.0,0.0,0.0,0.0,0.0,0.0,0.0,0.0,0.0,0.0,0.0,0.0,0.0,0.0,0.0,0.0,0.0,0.0,0.0,0.0,0.0,0.0,0.0,0.0,0.0,0.0,0.0,0.0,0.0,0.0,0.0,0.0,0.0,0.0,0.0,0.0,0.0,0.0,0.0,0.0,0.0,0.0,0.0,0.0,0.0,0.0,0.0,0.0,0.0,0.0,0.0,0.0,0.0,0.0,0.0,0.0,0.0,0.0,0.0,0.0,0.0,0.0,0.0,0.0,0.0,0.0,0.0,0.0,0.0,0.0,0.0,0.0,0.0,0.0,0.0,0.0,0.0,0.0,0.0,0.0,0.0,0.0,0.0,0.0,-0.1411,-0.2093,-0.232,-0.5515,-0.706,-0.8885,-0.8994,-0.9035,-0.8905,-0.8885,-0.8712,-0.8042,0.0,0.0,0.0,0.0,0.0,0.0,0.0,0.0,0.0,0.0,0.0,0.0,0.0,0.0,0.0,0.0,0.0,0.0,0.0,0.0,0.0,0.0,0.0,0.0,0.0,0.0,0.0,0.0,0.0,0.0,0.0,0.0,0.0,0.0,0.0,0.0,0.0,0.0,0.0,0.0,0.0,0.0,0.0,0.0,0.0,0.0,0.0,0.0,0.0,0.0,0.0,0.0,0.0,0.0,0.0,0.0,0.0,0.0,0.0,0.0,0.0,0.0,0.0,0.0,0.0,0.0,0.0,0.0,0.0,0.0,0.0,0.0,0.0,0.0,0.0,0.0,0.0,0.0,0.0,0.0,0.0,0.0,0.0,0.0,0.0,0.0,0.0,0.0,0.0,0.0,0.0,0.0,0.0,0.0,0.0,0.0,0.0,0.0,-0.0404,-0.121,-0.2299,-0.3265,-0.4176,-0.7086,-0.848,-0.8912,-0.8974,-0.8967,-0.8892,-0.8719,-0.8208,-0.6977,0.0,0.0,0.0,0.0,0.0,0.0,0.0,0.0,0.0,0.0,0.0,0.0,0.0,0.0,0.0,0.0,0.0,0.0,0.0,0.0,0.0,0.0,0.0,0.0,0.0,0.0,0.0,0.0,0.0,0.0,0.0,0.0,0.0,0.0,0.0,0.0,0.0,0.0,0.0,0.0,0.0,0.0,0.0,0.0,0.0,0.0,0.0,0.0,0.0,0.0,0.0,0.0,0.0,0.0,0.0,0.0,0.0,0.0,0.0,0.0,0.0,0.0,0.0,0.0,0.0,0.0,0.0,0.0,0.0,0.0,0.0,0.0,0.0,0.0,0.0,0.0,0.0,0.0,0.0,0.0,0.0,0.0,0.0,0.0,0.0,0.0,0.0,0.0,0.0,0.0,0.0,0.0,0.0,0.0,0.0,0.0,0.0,-0.027,-0.1214,-0.2761,-0.3414,-0.4535,-0.6123,-0.8075,-0.9019,-0.9089,-0.918,-0.9089,-0.8967,-0.7986,-0.6977,-0.6755,0.0,0.0,0.0,0.0,0.0,0.0,0.0,0.0,0.0,0.0,0.0,0.0,0.0,0.0,0.0,0.0,0.0,0.0,0.0,0.0,0.0,0.0,0.0,0.0,0.0,0.0,0.0,0.0,0.0,0.0,0.0,0.0,0.0,0.0,0.0,0.0,0.0,0.0,0.0,0.0,0.0,0.0,0.0,0.0,0.0,0.0,0.0,0.0,0.0,0.0,0.0,0.0,0.0,0.0,0.0,0.0,0.0,0.0,0.0,0.0,0.0,0.0,0.0,0.0,0.0,0.0,0.0,0.0,0.0,0.0,0.0,0.0,0.0,0.0,0.0,0.0,0.0,0.0,0.0,0.0,0.0,0.0,0.0,0.0,0.0,0.0,0.0,0.0,0.0,0.0,0.0,0.0,0.0,0.0,0.0,0.0,0.0,-0.1632,-0.2596,-0.287,-0.6084,-0.7836,-0.8268,-1.0135,-1.1012,-0.7895,-0.7743,-0.752,-0.6755,-0.669,-0.6373,-0.4644,0.0,0.0,0.0,0.0,0.0,0.0,0.0,0.0,0.0,0.0,0.0,0.0,0.0,0.0,0.0,0.0,0.0,0.0,0.0,0.0,0.0,0.0,0.0,0.0,0.0,0.0,0.0,0.0,0.0,0.0,0.0,0.0,0.0,0.0,0.0,0.0,0.0,0.0,0.0,0.0,0.0,0.0,0.0,0.0,0.0,0.0,0.0,0.0,0.0,0.0,0.0,0.0,0.0,0.0,0.0,0.0,0.0,0.0,0.0,0.0,0.0,0.0,0.0,0.0,0.0,0.0,0.0,0.0,0.0,0.0,0.0,0.0,0.0,0.0,0.0,0.0,0.0,0.0,0.0,0.0,0.0,0.0,0.0,0.0,0.0,0.0,0.0,0.0,0.0,0.0,0.0,0.0,0.0,0.0,0.0,-0.0482,-0.1512,-0.2418,-0.3878,-0.595,-0.7706,-0.9122,-1.0177,-1.1115,-1.1552,-0.6923,-0.6572,-0.6122,-0.445,0.0,-0.5172,-0.2729,-0.1924,0.0,0.0,0.0,0.0,0.0,0.0,0.0,0.0,0.0,0.0,0.0,0.0,0.0,0.0,0.0,0.0,0.0,0.0,0.0,0.0,0.0,0.0,0.0,0.0,0.0,0.0,0.0,0.0,0.0,0.0,0.0,0.0,0.0,0.0,0.0,0.0,0.0,0.0,0.0,0.0,0.0,0.0,0.0,0.0,0.0,0.0,0.0,0.0,0.0,0.0,0.0,0.0,0.0,0.0,0.0,0.0,0.0,0.0,0.0,0.0,0.0,0.0,0.0,0.0,0.0,0.0,0.0,0.0,0.0,0.0,0.0,0.0,0.0,0.0,0.0,0.0,0.0,0.0,0.0,0.0,0.0,0.0,0.0,0.0,0.0,0.0,0.0,0.0,0.0,0.0,0.0,-0.0207,-0.069,-0.0697,-0.1611,-0.3566,-0.3995,-0.5681,-0.8552,-0.909,-1.0078,-1.145,-1.1565,-1.1619,-0.7034,-0.6688,-0.6013,-0.3339,-0.2573,0.0,-0.2252,-0.1112,0.0,0.0,0.0,0.0,0.0,0.0,0.0,0.0,0.0,0.0,0.0,0.0,0.0,0.0,0.0,0.0,0.0,0.0,0.0,0.0,0.0,0.0,0.0,0.0,0.0,0.0,0.0,0.0,0.0,0.0,0.0,0.0,0.0,0.0,0.0,0.0,0.0,0.0,0.0,0.0,0.0,0.0,0.0,0.0,0.0,0.0,0.0,0.0,0.0,0.0,0.0,0.0,0.0,0.0,0.0,0.0,0.0,0.0,0.0,0.0,0.0,0.0,0.0,0.0,0.0,0.0,0.0,0.0,0.0,0.0,0.0,0.0,0.0,0.0,0.0,0.0,0.0,0.0,0.0,0.0,0.0,0.0,0.0,0.0,0.0,0.0,0.0,0.0,0.0,0.0,0.0,-0.084,-0.2586,-0.2658,-0.3636,-0.5583,-0.7341,-0.8449,-0.8666,-1.0513,-1.1456,-1.1606,-1.1613,-1.1619,-0.4346,-0.3794,-0.3347,-0.1446,-0.0903,0.0,0.0,-0.0415,0.0,0.0,0.0,0.0,0.0,0.0,0.0,0.0,0.0,0.0,0.0,0.0,0.0,0.0,0.0,0.0,0.0,0.0,0.0,0.0,0.0,0.0,0.0,0.0,0.0,0.0,0.0,0.0,0.0,0.0,0.0,0.0,0.0,0.0,0.0,0.0,0.0,0.0,0.0,0.0,0.0,0.0,0.0,0.0,0.0,0.0,0.0,0.0,0.0,0.0,0.0,0.0,0.0,0.0,0.0,0.0,0.0,0.0,0.0,0.0,0.0,0.0,0.0,0.0,0.0,0.0,0.0,0.0,0.0,0.0,0.0,0.0,0.0,0.0,0.0,0.0,0.0,0.0,0.0,0.0,0.0,0.0,0.0,0.0,0.0,0.0,0.0,-0.1143,-0.1793,-0.1793,-0.1779,-0.2124,-0.2903,-0.4066,-0.5652,-0.7576,-0.8331,-0.9286,-1.0519,-1.1227,-1.1619,-1.1619,-1.1619,-1.1619,-0.2615,-0.2,-0.1688,-0.0328,0.0,0.0,0.0,0.0,0.0,0.0,0.0,0.0,0.0,0.0,0.0,0.0,0.0,0.0,0.0,0.0,0.0,0.0,0.0,0.0,0.0,0.0,0.0,0.0,0.0,0.0,0.0,0.0,0.0,0.0,0.0,0.0,0.0,0.0,0.0,0.0,0.0,0.0,0.0,0.0,0.0,0.0,0.0,0.0,0.0,0.0,0.0,0.0,0.0,0.0,0.0,0.0,0.0,0.0,0.0,0.0,0.0,0.0,0.0,0.0,0.0,0.0,0.0,0.0,0.0,0.0,0.0,0.0,0.0,0.0,0.0,0.0,0.0,0.0,0.0,0.0,0.0,0.0,0.0,0.0,0.0,0.0,0.0,0.0,0.0,0.0,0.0,0.0,-0.0572,-0.0935,-0.0935,-0.2678,-0.3851,-0.3851,-0.4392,-0.4726,-0.4726,-0.5997,-0.7616,-0.9574,-0.9646,-1.0305,-1.1619,-1.1619,-1.1619,-1.1619,-1.1619,-1.1619,-0.2364,-0.1964,-0.1677,0.0,0.0,0.0,0.0,0.0,0.0,0.0,0.0,0.0,0.0,0.0,0.0,0.0,0.0,0.0,0.0,0.0,0.0,0.0,0.0,0.0,0.0,0.0,0.0,0.0,0.0,0.0,0.0,0.0,0.0,0.0,0.0,0.0,0.0,0.0,0.0,0.0,0.0,0.0,0.0,0.0,0.0,0.0,0.0,0.0,0.0,0.0,0.0,0.0,0.0,0.0,0.0,0.0,0.0,0.0,0.0,0.0,0.0,0.0,0.0,0.0,0.0,0.0,0.0,0.0,0.0,0.0,0.0,0.0,0.0,0.0,0.0,0.0,0.0,0.0,0.0,0.0,0.0,0.0,0.0,0.0,0.0,0.0,0.0,0.0,0.0,0.0,0.0,0.0,-0.1748,-0.2909,-0.2909,-0.4721,-0.5808,-0.5808,-0.7616,-0.8703,-0.8703,-0.8703,-0.9651,-1.1548,-1.1619,-1.1619,-1.1619,-1.1619,-1.1619,-1.1619,-1.1619,-1.1619,-0.0961,-0.0617,0.0,0.0,0.0,0.0,0.0,0.0,0.0,0.0,0.0,0.0,0.0,0.0,0.0,0.0,0.0,0.0,0.0,0.0,0.0,0.0,0.0,0.0,0.0,0.0,0.0,0.0,0.0,0.0,0.0,0.0,0.0,0.0,0.0,0.0,0.0,0.0,0.0,0.0,0.0,0.0,0.0,0.0,0.0,0.0,0.0,0.0,0.0,0.0,0.0,0.0,0.0,0.0,0.0,0.0,0.0,0.0,0.0,0.0,0.0,0.0,0.0,0.0,0.0,0.0,0.0,0.0,0.0,0.0,0.0,0.0,0.0,0.0,0.0,0.0,0.0,0.0,0.0,0.0,0.0,0.0,0.0,0.0,0.0,0.0,0.0,0.0,0.0,0.0,-0.0508,-0.1892,-0.2545,-0.3488,-0.4794,-0.6749,-0.7833,-0.7833,-0.9651,-1.0155,-0.8776,-1.0011,-1.1031,-1.1619,-1.1619,-1.1619,-1.1619,-1.1619,-1.1619,-1.1619,-1.1619,-1.1619,-0.0207,0.0,0.0,0.0,0.0,0.0,0.0,0.0,0.0,0.0,0.0,0.0,0.0,0.0,0.0,0.0,0.0,0.0,0.0,0.0,0.0,0.0,0.0,0.0,0.0,0.0,0.0,0.0,0.0,0.0,0.0,0.0,0.0,0.0,0.0,0.0,0.0,0.0,0.0,0.0,0.0,0.0,0.0,0.0,0.0,0.0,0.0,0.0,0.0,0.0,0.0,0.0,0.0,0.0,0.0,0.0,0.0,0.0,0.0,0.0,0.0,0.0,0.0,0.0,0.0,0.0,0.0,0.0,0.0,0.0,0.0,0.0,0.0,0.0,0.0,0.0,0.0,0.0,0.0,0.0,0.0,0.0,0.0,0.0,0.0,0.0,0.0,-0.0286,-0.1079,-0.116,-0.1892,-0.3851,-0.4718,-0.566,-0.6821,-0.8703,-0.9867,-0.9867,-1.0959,-1.1038,-0.9867,-1.0959,-1.1619,-1.1619,-1.1619,-1.1619,-1.1619,-1.1619,-1.1619,-1.1619,-1.1619,-1.1619,0.0,0.0,0.0,0.0,0.0,0.0,0.0,0.0,0.0,0.0,0.0,0.0,0.0,0.0,0.0,0.0,0.0,0.0,0.0,0.0,0.0,0.0,0.0,0.0,0.0,0.0,0.0,0.0,0.0,0.0,0.0,0.0,0.0,0.0,0.0,0.0,0.0,0.0,0.0,0.0,0.0,0.0,0.0,0.0,0.0,0.0,0.0,0.0,0.0,0.0,0.0,0.0,0.0,0.0,0.0,0.0,0.0,0.0,0.0,0.0,0.0,0.0,0.0,0.0,0.0,0.0,0.0,0.0,0.0,0.0,0.0,0.0,0.0,0.0,0.0,0.0,0.0,0.0,0.0,0.0,0.0,0.0,0.0,0.0,0.0,0.0,-0.0145,-0.0874,-0.2691,-0.3052,-0.3923,-0.5881,-0.7616,-0.8776,-0.892,-1.0593,-1.1619,-1.1619,-1.1619,-1.1619,-1.1619,-1.1619,-1.1619,-1.1619,-1.1619,-1.1619,-1.1619,-1.1619,-1.1619,-1.1619,-1.1619,-1.1626,0.0,0.0,0.0,0.0,0.0,0.0,0.0,0.0,0.0,0.0,0.0,0.0,0.0,0.0,0.0,0.0,0.0,0.0,0.0,0.0,0.0,0.0,0.0,0.0,0.0,0.0,0.0,0.0,0.0,0.0,0.0,0.0,0.0,0.0,0.0,0.0,0.0,0.0,0.0,0.0,0.0,0.0,0.0,0.0,0.0,0.0,0.0,0.0,0.0,0.0,0.0,0.0,0.0,0.0,0.0,0.0,0.0,0.0,0.0,0.0,0.0,0.0,0.0,0.0,0.0,0.0,0.0,0.0,0.0,0.0,0.0,0.0,0.0,0.0,0.0,0.0,0.0,0.0,0.0,0.0,0.0,0.0,0.0,0.0,0.0,0.0,-0.1309,-0.24,-0.2836,-0.4213,-0.5953,-0.7833,-0.8487,-0.9285,-1.0815,-1.1325,-1.1619,-1.1619,-1.1619,-1.1619,-1.1619,-1.1619,-1.1619,-1.1619,-1.1619,-1.1619,-1.1619,-1.1619,-1.1619,-1.1619,-1.1619,-1.1681,0.0,0.0,0.0,0.0,0.0,0.0,0.0,0.0,0.0,0.0,0.0,0.0,0.0,0.0,0.0,0.0,0.0,0.0,0.0,0.0,0.0,0.0,0.0,0.0,0.0,0.0,0.0,0.0,0.0,0.0,0.0,0.0,0.0,0.0,0.0,0.0,0.0,0.0,0.0,0.0,0.0,0.0,0.0,0.0,0.0,0.0,0.0,0.0,0.0,0.0,0.0,0.0,0.0,0.0,0.0,0.0,0.0,0.0,0.0,0.0,0.0,0.0,0.0,0.0,0.0,0.0,0.0,0.0,0.0,0.0,0.0,0.0,0.0,0.0,0.0,0.0,0.0,0.0,0.0,0.0,0.0,0.0,0.0,-0.0783,-0.1373,-0.1383,-0.3054,-0.4649,-0.5588,-0.6532,-0.791,-0.9867,-1.0083,-1.0521,-1.1476,-1.1619,-1.1619,-1.1619,-1.1619,-1.1619,-1.1619,-1.1619,-1.1619,-1.1619,-1.1619,-1.1619,-1.1619,-1.1619,-1.1619,-1.1619,-1.1619,-1.1694,0.0,0.0,0.0,0.0,0.0,0.0,0.0,0.0,0.0,0.0,0.0,0.0,0.0,0.0,0.0,0.0,0.0,0.0,0.0,0.0,0.0,0.0,0.0,0.0,0.0,0.0,0.0,0.0,0.0,0.0,0.0,0.0,0.0,0.0,0.0,0.0,0.0,0.0,0.0,0.0,0.0,0.0,0.0,0.0,0.0,0.0,0.0,0.0,0.0,0.0,0.0,0.0,0.0,0.0,0.0,0.0,0.0,0.0,0.0,0.0,0.0,0.0,0.0,0.0,0.0,0.0,0.0,0.0,0.0,0.0,0.0,0.0,0.0,0.0,0.0,0.0,0.0,0.0,0.0,0.0,0.0,-0.014,-0.0429,-0.1806,-0.2979,-0.3342,-0.5084,-0.6894,-0.8487,-0.8992,-0.9795,-1.1397,-1.1619,-1.1619,-1.1619,-1.1619,-1.1619,-1.1619,-1.1619,-1.1619,-1.1619,-1.1619,-1.1619,-1.1619,-1.1619,-1.1619,-1.1619,-1.1619,-1.1619,-1.1619,-1.1647,-1.1735,0.0,0.0,0.0,0.0,0.0,0.0,0.0,0.0,0.0,0.0,0.0,0.0,0.0,0.0,0.0,0.0,0.0,0.0,0.0,0.0,0.0,0.0,0.0,0.0,0.0,0.0,0.0,0.0,0.0,0.0,0.0,0.0,0.0,0.0,0.0,0.0,0.0,0.0,0.0,0.0,0.0,0.0,0.0,0.0,0.0,0.0,0.0,0.0,0.0,0.0,0.0,0.0,0.0,0.0,0.0,0.0,0.0,0.0,0.0,0.0,0.0,0.0,0.0,0.0,0.0,0.0,0.0,0.0,0.0,0.0,0.0,0.0,0.0,0.0,0.0,0.0,0.0,0.0,0.0,0.0,0.0,-0.05,-0.2244,-0.276,-0.3488,-0.5156,-0.7038,-0.8415,-0.8703,-1.0161,-1.1325,-1.1548,-1.1619,-1.1619,-1.1619,-1.1619,-1.1619,-1.1619,-1.1619,-1.1619,-1.1619,-1.1619,-1.1619,-1.1619,-1.1619,-1.1619,-1.1619,-1.1619,-1.1619,-1.1619,-1.1748,-1.1884,0.0,0.0,0.0,0.0,0.0,0.0,0.0,0.0,0.0,0.0,0.0,0.0,0.0,0.0,0.0,0.0,0.0,0.0,0.0,0.0,0.0,0.0,0.0,0.0,0.0,0.0,0.0,0.0,0.0,0.0,0.0,0.0,0.0,0.0,0.0,0.0,0.0,0.0,0.0,0.0,0.0,0.0,0.0,0.0,0.0,0.0,0.0,0.0,0.0,0.0,0.0,0.0,0.0,0.0,0.0,0.0,0.0,0.0,0.0,0.0,0.0,0.0,0.0,0.0,0.0,0.0,0.0,0.0,0.0,0.0,0.0,0.0,0.0,0.0,0.0,0.0,0.0,0.0,0.0,0.0,-0.086,-0.188,-0.276,-0.4718,-0.6456,-0.7327,-0.9069,-1.0305,-1.0305,-1.1038,-1.1619,-1.1619,-1.1619,-1.1619,-1.1619,-1.1619,-1.1619,-1.1619,-1.1619,-1.1619,-1.1619,-1.1619,-1.1619,-1.1619,-1.1619,-1.1619,-1.1619,-1.1619,-1.1619,-1.1619,-1.1769,-1.1911,0.0,0.0,0.0,0.0,0.0,0.0,0.0,0.0,0.0,0.0,0.0,0.0,0.0,0.0,0.0,0.0,0.0,0.0,0.0,0.0,0.0,0.0,0.0,0.0,0.0,0.0,0.0,0.0,0.0,0.0,0.0,0.0,0.0,0.0,0.0,0.0,0.0,0.0,0.0,0.0,0.0,0.0,0.0,0.0,0.0,0.0,0.0,0.0,0.0,0.0,0.0,0.0,0.0,0.0,0.0,0.0,0.0,0.0,0.0,0.0,0.0,0.0,0.0,0.0,0.0,0.0,0.0,0.0,0.0,0.0,0.0,0.0,-0.0136,-0.0617,-0.0759,-0.0628,-0.0071,-0.0356,-0.071,-0.0717,-0.2313,-0.3778,-0.4283,-0.6745,-0.8848,-0.9357,-1.0671,-1.1619,-1.1619,-1.1619,-1.1619,-1.1619,-1.1619,-1.1619,-1.1619,-1.1619,-1.1619,-1.1619,-1.1619,-1.1619,-1.1619,-1.1619,-1.1619,-1.1619,-1.1619,-1.1619,-1.1619,-1.1619,-1.164,-1.1674,-1.1823,-1.1972,0.0,0.0,0.0,0.0,0.0,0.0,0.0,0.0,0.0,0.0,0.0,0.0,0.0,0.0,0.0,0.0,0.0,0.0,0.0,0.0,0.0,0.0,0.0,0.0,0.0,0.0,0.0,0.0,0.0,0.0,0.0,0.0,0.0,0.0,0.0,0.0,0.0,0.0,0.0,0.0,0.0,0.0,0.0,0.0,0.0,0.0,0.0,0.0,0.0,0.0,0.0,0.0,0.0,0.0,0.0,0.0,0.0,0.0,0.0,0.0,0.0,0.0,0.0,0.0,0.0,0.0,0.0,0.0,0.0,0.0,0.0,0.0,-0.0481,-0.2332,-0.2725,-0.2279,-0.0429,-0.1442,-0.2758,-0.276,-0.4283,-0.6242,-0.8049,-0.8559,-0.9357,-1.1181,-1.1548,-1.1619,-1.1619,-1.1619,-1.1619,-1.1619,-1.1619,-1.1619,-1.1619,-1.1619,-1.1619,-1.1619,-1.1619,-1.1619,-1.1619,-1.1619,-1.1619,-1.1619,-1.1619,-1.1619,-1.1619,-1.1619,-1.1687,-1.1823,-1.1979,-1.2135,0.0,0.0,0.0,0.0,0.0,0.0,0.0,0.0,0.0,0.0,0.0,0.0,0.0,0.0,0.0,0.0,0.0,0.0,0.0,0.0,0.0,0.0,0.0,0.0,0.0,0.0,0.0,0.0,0.0,0.0,0.0,0.0,0.0,0.0,0.0,0.0,0.0,0.0,0.0,0.0,0.0,0.0,0.0,0.0,0.0,0.0,0.0,0.0,0.0,0.0,0.0,0.0,0.0,0.0,0.0,0.0,0.0,0.0,0.0,0.0,0.0,0.0,0.0,0.0,0.0,0.0,0.0,0.0,0.0,-0.0273,-0.1567,-0.1858,-0.2367,-0.4278,-0.4772,-0.4544,-0.3898,-0.4273,-0.4794,-0.4794,-0.6315,-0.7905,-0.8559,-0.9723,-1.0784,-1.1413,-1.1558,-1.1586,-1.1484,-1.1558,-1.1619,-1.1619,-1.1619,-1.1619,-1.1619,-1.1619,-1.1619,-1.1619,-1.1619,-1.1619,-1.1619,-1.1619,-1.1619,-1.1619,-1.1619,-1.1619,-1.1619,-1.1619,-1.1694,-1.1837,-1.1986,-1.2142,-0.0104,0.0,0.0,0.0,0.0,0.0,0.0,0.0,0.0,0.0,0.0,0.0,0.0,0.0,0.0,0.0,0.0,0.0,0.0,0.0,0.0,0.0,0.0,0.0,0.0,0.0,0.0,0.0,0.0,0.0,0.0,0.0,0.0,0.0,0.0,0.0,0.0,0.0,0.0,0.0,0.0,0.0,0.0,0.0,0.0,0.0,0.0,0.0,0.0,0.0,0.0,0.0,0.0,0.0,0.0,0.0,0.0,0.0,0.0,0.0,0.0,0.0,0.0,0.0,0.0,0.0,0.0,0.0,-0.0478,-0.1237,-0.2552,-0.3901,-0.5149,-0.65,-0.7284,-0.7765,-0.7765,-0.7259,-0.6749,-0.6749,-0.8343,-0.9646,-0.9646,-1.0743,-1.1586,-1.1484,-1.1552,-1.1586,-1.1484,-1.1558,-1.1619,-1.1619,-1.1619,-1.1619,-1.1619,-1.1619,-1.1619,-1.1619,-1.166,-1.1687,-1.1687,-1.1742,-1.1769,-1.1769,-1.1769,-1.1769,-1.1769,-1.1714,-1.1789,-1.1986,-1.2094,-1.2216,0.0,0.0,0.0,0.0,0.0,0.0,0.0,0.0,0.0,0.0,0.0,0.0,0.0,0.0,0.0,0.0,0.0,0.0,0.0,0.0,0.0,0.0,0.0,0.0,0.0,0.0,0.0,0.0,0.0,0.0,0.0,0.0,0.0,0.0,0.0,0.0,0.0,0.0,0.0,0.0,0.0,0.0,0.0,0.0,0.0,0.0,0.0,0.0,0.0,0.0,0.0,0.0,0.0,0.0,0.0,0.0,0.0,0.0,0.0,0.0,0.0,0.0,0.0,0.0,-0.0067,-0.0067,-0.0068,-0.0137,-0.151,-0.3029,-0.307,-0.5926,-0.8779,-0.8822,-1.0233,-1.1619,-1.1619,-1.0083,-0.8776,-0.8776,-1.0305,-1.1619,-1.1619,-1.1619,-1.1619,-1.1613,-1.1613,-1.1613,-1.1613,-1.1613,-1.1613,-1.1619,-1.1619,-1.1619,-1.1619,-1.1619,-1.1619,-1.1626,-1.1755,-1.183,-1.1837,-1.1979,-1.2135,-1.2135,-1.2135,-1.206,-1.2142,-1.1911,-1.1993,-1.2291,-1.2291,-1.2372,-0.1506,0.0,0.0,0.0,0.0,0.0,0.0,0.0,0.0,0.0,0.0,0.0,0.0,0.0,0.0,0.0,0.0,0.0,0.0,0.0,0.0,0.0,0.0,0.0,0.0,0.0,0.0,0.0,0.0,0.0,0.0,0.0,0.0,0.0,0.0,0.0,0.0,0.0,0.0,0.0,0.0,0.0,0.0,0.0,0.0,0.0,0.0,0.0,0.0,0.0,0.0,0.0,0.0,0.0,0.0,0.0,0.0,0.0,0.0,0.0,0.0,0.0,0.0,-0.0269,-0.1545,-0.203,-0.2389,-0.3693,-0.4511,-0.5299,-0.6725,-0.8923,-1.0765,-1.0809,-1.1181,-1.1619,-1.1619,-1.1181,-1.0815,-1.0815,-1.1253,-1.1619,-1.1619,-1.1619,-1.1586,-1.147,-1.1457,-1.1457,-1.1457,-1.1457,-1.1497,-1.1606,-1.1619,-1.1619,-1.1619,-1.1619,-1.166,-1.1769,-1.1809,-1.1877,-1.1993,-1.204,-1.2135,-1.2135,-1.2135,-1.2115,-1.223,-1.2074,-1.2101,-1.2291,-1.2393,-1.2467,0.0,0.0,0.0,0.0,0.0,0.0,0.0,0.0,0.0,0.0,0.0,0.0,0.0,0.0,0.0,0.0,0.0,0.0,0.0,0.0,0.0,0.0,0.0,0.0,0.0,0.0,0.0,0.0,0.0,0.0,0.0,0.0,0.0,0.0,0.0,0.0,0.0,0.0,0.0,0.0,0.0,0.0,0.0,0.0,0.0,0.0,0.0,0.0,-0.0062,-0.074,-0.0617,0.0,0.0,0.0,0.0,0.0,0.0,0.0,0.0,0.0,-0.0135,-0.0874,-0.1143,-0.1478,-0.3289,-0.3929,-0.425,-0.5302,-0.6255,-0.7473,-0.9413,-1.0743,-1.1619,-1.1619,-1.1619,-1.1619,-1.1619,-1.1619,-1.1619,-1.1619,-1.1619,-1.1619,-1.1619,-1.1619,-1.1592,-1.1497,-1.1484,-1.1484,-1.1484,-1.1484,-1.1518,-1.1613,-1.1619,-1.1619,-1.1619,-1.1674,-1.1742,-1.1823,-1.1952,-1.206,-1.2155,-1.2216,-1.2244,-1.2244,-1.2244,-1.2291,-1.2379,-1.223,-1.2237,-1.2379,-1.2461,-1.2501,-0.3065,-0.2314,0.0,0.0,0.0,0.0,-0.0055,0.0,0.0,0.0,0.0,0.0,0.0,0.0,0.0,0.0,0.0,0.0,0.0,0.0,0.0,0.0,0.0,0.0,0.0,0.0,0.0,0.0,0.0,0.0,0.0,0.0,0.0,0.0,0.0,0.0,0.0,0.0,0.0,0.0,0.0,0.0,0.0,0.0,-0.0116,-0.0296,-0.03,-0.0366,-0.0679,-0.2156,-0.1787,-0.0247,-0.0247,-0.025,-0.0254,-0.0064,-0.0131,-0.0331,-0.0268,-0.0404,-0.0874,-0.2484,-0.3021,-0.3356,-0.5171,-0.5833,-0.5978,-0.621,-0.7624,-0.943,-1.1181,-1.1619,-1.1619,-1.1619,-1.1619,-1.1619,-1.1619,-1.1619,-1.1619,-1.1619,-1.1619,-1.1619,-1.1619,-1.1619,-1.1619,-1.1619,-1.1606,-1.1599,-1.1619,-1.1606,-1.1599,-1.1619,-1.1619,-1.1626,-1.164,-1.1755,-1.1843,-1.1877,-1.2135,-1.2298,-1.2311,-1.2433,-1.2501,-1.2501,-1.2501,-1.2501,-1.2501,-1.2372,-1.2379,-1.2501,-1.2501,-1.2501,-0.5354,-0.4422,-0.3268,0.0,0.0,0.0,0.0,0.0,0.0,0.0,0.0,0.0,0.0,0.0,0.0,0.0,0.0,0.0,0.0,0.0,0.0,0.0,0.0,0.0,0.0,0.0,0.0,0.0,0.0,0.0,0.0,0.0,0.0,0.0,0.0,0.0,0.0,0.0,0.0,0.0,0.0,0.0,0.0,0.0,-0.0709,-0.2038,-0.201,-0.2762,-0.3996,-0.4303,-0.3507,-0.2036,-0.1997,-0.2024,-0.1862,-0.0522,-0.0926,-0.2142,-0.2147,-0.3155,-0.4426,-0.476,-0.4894,-0.5238,-0.7125,-0.7839,-0.8313,-0.9948,-1.0699,-1.1109,-1.1476,-1.1619,-1.1619,-1.1619,-1.1619,-1.1619,-1.1619,-1.1619,-1.1619,-1.1619,-1.1619,-1.1619,-1.1619,-1.1619,-1.1619,-1.1619,-1.1511,-1.1484,-1.1606,-1.1511,-1.1484,-1.1606,-1.1619,-1.1667,-1.1782,-1.1816,-1.1938,-1.2182,-1.2257,-1.2338,-1.2454,-1.2488,-1.2501,-1.2501,-1.2501,-1.2501,-1.2501,-1.2474,-1.2474,-1.2501,-1.2501,-1.2501,-0.6161,-0.5522,-0.4668,-0.3316,0.0,0.0,0.0,0.0,0.0,0.0,0.0,0.0,0.0,0.0,0.0,0.0,0.0,0.0,0.0,0.0,0.0,0.0,0.0,0.0,0.0,0.0,0.0,0.0,0.0,0.0,0.0,0.0,0.0,0.0,0.0,0.0,0.0,-0.0728,-0.112,-0.112,-0.1902,-0.2258,-0.2351,-0.2331,-0.2842,-0.3667,-0.3727,-0.418,-0.4977,-0.5774,-0.5647,-0.4797,-0.3128,-0.254,-0.2512,-0.1635,-0.252,-0.4024,-0.4024,-0.4626,-0.5563,-0.6431,-0.6795,-0.7184,-0.9008,-0.9779,-1.0193,-1.1266,-1.1619,-1.1619,-1.1619,-1.1619,-1.1619,-1.1619,-1.1619,-1.1619,-1.1619,-1.1619,-1.1619,-1.1619,-1.1619,-1.1619,-1.1619,-1.1619,-1.1619,-1.1619,-1.1552,-1.1531,-1.1606,-1.1552,-1.1538,-1.1613,-1.1681,-1.1755,-1.1823,-1.1972,-1.2128,-1.2277,-1.2359,-1.2427,-1.2501,-1.2501,-1.2501,-1.2501,-1.2501,-1.2501,-1.2501,-1.2501,-1.2501,-1.2501,-1.2501,-1.2501,0.0,0.0,0.0,0.0,0.0,-0.4336,0.0,0.0,0.0,0.0,0.0,0.0,0.0,0.0,0.0,0.0,0.0,0.0,0.0,0.0,0.0,0.0,0.0,0.0,0.0,0.0,0.0,0.0,0.0,0.0,0.0,0.0,0.0,0.0,-0.028,-0.0448,-0.0448,-0.1902,-0.2626,-0.2682,-0.3924,-0.4584,-0.4714,-0.4736,-0.499,-0.5369,-0.5376,-0.5529,-0.5957,-0.7301,-0.7683,-0.7158,-0.4518,-0.3563,-0.3606,-0.3343,-0.4381,-0.5897,-0.5897,-0.6097,-0.6631,-0.803,-0.8666,-0.9132,-1.0538,-1.1219,-1.1463,-1.1586,-1.1619,-1.1619,-1.1619,-1.1619,-1.1619,-1.1619,-1.1619,-1.1619,-1.1619,-1.1619,-1.1619,-1.1619,-1.1619,-1.1619,-1.1619,-1.164,-1.166,-1.166,-1.1687,-1.1708,-1.1708,-1.1708,-1.1708,-1.1708,-1.1809,-1.1884,-1.1918,-1.2149,-1.2305,-1.2332,-1.244,-1.2501,-1.2501,-1.2501,-1.2501,-1.2501,-1.2501,-1.2501,-1.2501,-1.2501,-1.2501,-1.2501,-1.2501,-1.2501,0.0,0.0,0.0,0.0,-0.5777,0.0,0.0,0.0,0.0,0.0,0.0,0.0,0.0,0.0,0.0,0.0,0.0,0.0,0.0,0.0,0.0,0.0,0.0,0.0,0.0,0.0,0.0,0.0,0.0,0.0,0.0,0.0,0.0,0.0,-0.1287,-0.1956,-0.1956,-0.3463,-0.4247,-0.4247,-0.4535,-0.466,-0.4678,-0.4815,-0.5674,-0.7099,-0.7109,-0.7917,-0.9268,-0.9451,-0.8781,-0.7521,-0.719,-0.7047,-0.6892,-0.5562,-0.6223,-0.7698,-0.7698,-0.8773,-1.0114,-1.0319,-1.0631,-1.0951,-1.1231,-1.1457,-1.1599,-1.1613,-1.1619,-1.1619,-1.1619,-1.1619,-1.1619,-1.1619,-1.1619,-1.1619,-1.1619,-1.1619,-1.1619,-1.1619,-1.1619,-1.1619,-1.1619,-1.1721,-1.1809,-1.1809,-1.1925,-1.2013,-1.2013,-1.2013,-1.2013,-1.2013,-1.2026,-1.2094,-1.223,-1.2271,-1.2345,-1.2467,-1.2494,-1.2501,-1.2501,-1.2501,-1.2501,-1.2501,-1.2501,-1.2501,-1.2501,-1.2501,-1.2501,-1.2501,-1.2501,-1.2501,0.0,0.0,0.0,0.0,0.0,0.0,0.0,0.0,-0.6126,0.0,0.0,0.0,0.0,0.0,0.0,0.0,0.0,0.0,0.0,0.0,0.0,0.0,0.0,0.0,0.0,0.0,0.0,0.0,0.0,-0.2628,-0.2628,-0.2628,-0.2628,-0.2628,-0.3187,-0.3519,-0.3519,-0.5027,-0.575,-0.581,-0.6807,-0.7383,-0.7444,-0.7568,-0.8047,-0.8775,-0.8775,-0.9201,-0.9822,-0.9822,-0.9474,-0.8994,-0.9127,-0.8642,-0.7746,-0.711,-0.8035,-0.9576,-0.9576,-1.0047,-1.0751,-1.0921,-1.1124,-1.1321,-1.1477,-1.1565,-1.1619,-1.1619,-1.1619,-1.1619,-1.1619,-1.1619,-1.1619,-1.1619,-1.1619,-1.1619,-1.1619,-1.1619,-1.1647,-1.1728,-1.1742,-1.1769,-1.1857,-1.185,-1.1864,-1.1952,-1.202,-1.2135,-1.2135,-1.2135,-1.2135,-1.2135,-1.2142,-1.2223,-1.2284,-1.2366,-1.244,-1.2501,-1.2501,-1.2501,-1.2501,-1.2501,-1.2501,-1.2501,-1.2501,-1.2501,-1.2501,-1.2501,-1.2501,-1.2501,-1.2501,-1.2501,-0.816,0.0,0.0,0.0,0.0,0.0,0.0,0.0,0.0,0.0,0.0,0.0,0.0,0.0,0.0,0.0,0.0,0.0,0.0,0.0,0.0,0.0,0.0,0.0,0.0,0.0,0.0,0.0,0.0,0.0,-0.4553,-0.4557,-0.4557,-0.4557,-0.495,-0.5162,-0.5083,-0.6589,-0.7315,-0.7315,-0.8608,-0.933,-0.9388,-0.9578,-0.9727,-0.9822,-0.9822,-0.9822,-0.9822,-0.9869,-0.9971,-1.0127,-1.0283,-0.9703,-0.871,-0.8734,-0.9576,-1.0717,-1.0717,-1.0751,-1.0833,-1.1131,-1.1301,-1.1416,-1.1572,-1.1619,-1.1619,-1.1619,-1.1619,-1.1619,-1.1619,-1.1619,-1.1619,-1.1619,-1.1619,-1.1633,-1.1667,-1.1681,-1.1721,-1.1864,-1.1898,-1.1945,-1.2101,-1.2033,-1.1993,-1.2108,-1.2155,-1.2182,-1.2182,-1.2182,-1.2182,-1.2182,-1.2284,-1.2345,-1.2345,-1.244,-1.2501,-1.2501,-1.2501,-1.2501,-1.2501,-1.2501,-1.2501,-1.2501,-1.2501,-1.2501,-1.2501,-1.2501,-1.2501,-1.2501,-1.2501,-1.2501,0.0,0.0,0.0,-0.8313,0.0,0.0,0.0,0.0,-0.7988,0.0,0.0,0.0,0.0,0.0,0.0,0.0,0.0,0.0,0.0,0.0,0.0,0.0,0.0,0.0,0.0,0.0,0.0,0.0,0.0,0.0,-0.4679,-0.4686,-0.4686,-0.4686,-0.6057,-0.675,-0.6644,-0.8097,-0.883,-0.883,-0.9232,-0.9374,-0.9395,-0.968,-0.9815,-0.9822,-0.9822,-0.9822,-0.9836,-0.9916,-1.0134,-1.029,-1.0432,-1.0516,-1.0578,-1.0585,-1.0651,-1.0717,-1.0717,-1.0752,-1.0921,-1.1287,-1.1389,-1.1416,-1.1572,-1.1619,-1.1619,-1.1619,-1.1619,-1.1619,-1.1619,-1.1619,-1.1619,-1.1619,-1.1619,-1.1653,-1.1796,-1.1823,-1.187,-1.2026,-1.2054,-1.2101,-1.2257,-1.2277,-1.2277,-1.2284,-1.24,-1.2488,-1.2488,-1.2488,-1.2488,-1.2488,-1.2488,-1.2494,-1.2494,-1.2501,-1.2501,-1.2501,-1.2501,-1.2501,-1.2501,-1.2501,-1.2501,-1.2501,-1.2501,-1.2501,-1.2501,-1.2501,-1.2501,-1.2501,-1.2501,-1.2501,0.0,0.0,-0.832,-0.832,0.0,0.0,0.0,0.0,0.0,0.0,0.0,0.0,0.0,0.0,0.0,0.0,0.0,0.0,0.0,0.0,0.0,0.0,0.0,0.0,0.0,0.0,0.0,0.0,-0.7287,0.0,0.0,-0.7618,-0.7664,-0.7664,-0.8265,-0.8526,-0.8476,-0.8904,-0.913,-0.9232,-0.9334,-0.9435,-0.9537,-0.9734,-0.9822,-0.9822,-0.9822,-0.9822,-0.9836,-0.9923,-1.0141,-1.0297,-1.0439,-1.0582,-1.0717,-1.0717,-1.0717,-1.0731,-1.0766,-1.0968,-1.1124,-1.1328,-1.1457,-1.1552,-1.1606,-1.1619,-1.1619,-1.1619,-1.1619,-1.1619,-1.1619,-1.1687,-1.1755,-1.1755,-1.1837,-1.1925,-1.1972,-1.1986,-1.2026,-1.2182,-1.221,-1.2257,-1.2406,-1.2427,-1.2427,-1.2427,-1.2474,-1.2501,-1.2501,-1.2501,-1.2501,-1.2501,-1.2501,-1.2501,-1.2501,-1.2501,-1.2501,-1.2501,-1.2501,-1.2501,-1.2501,-1.2501,-1.2501,-1.2501,-1.2501,-1.2501,-1.2501,-1.2501,-1.2501,-1.2501,-1.2501,-1.2501,-0.8642,-0.854,0.0,-0.8425,-0.8309,0.0,-0.8194,0.0,0.0,0.0,0.0,0.0,0.0,0.0,0.0,0.0,0.0,0.0,0.0,0.0,0.0,0.0,0.0,0.0,0.0,0.0,-0.8825,-0.8798,-0.8784,0.0,0.0,0.0,-0.9289,-0.9289,-0.9381,-0.9435,-0.9381,-0.9344,-0.9344,-0.9381,-0.9435,-0.9517,-0.9612,-0.9754,-0.9822,-0.9822,-0.9822,-0.9849,-0.9856,-1.0066,-1.0222,-1.0371,-1.0514,-1.0636,-1.0717,-1.0717,-1.0758,-1.0819,-1.0975,-1.1118,-1.1267,-1.1423,-1.1538,-1.1619,-1.1619,-1.1619,-1.1619,-1.1619,-1.1619,-1.1633,-1.1681,-1.1762,-1.1843,-1.1898,-1.1986,-1.2074,-1.2135,-1.2142,-1.2189,-1.2338,-1.2366,-1.2393,-1.2488,-1.2501,-1.2501,-1.2501,-1.2501,-1.2501,-1.2501,-1.2501,-1.2501,-1.2501,-1.2501,-1.2501,-1.2501,-1.2501,-1.2501,-1.2501,-1.2501,-1.2501,-1.2501,-1.2501,-1.2501,-1.2501,-1.2501,-1.2501,-1.2501,-1.2501,-1.2501,-1.2501,-1.2501,-1.2501]},{"header":{"parameterUnit":"m.s-1","parameterCategory":1,"la1":30.6,"la2":29.2853,"lo1":-89.7004,"lo2":-87.6739,"dy":0.0162,"dx":0.0183,"nx":112,"ny":82,"refTime":"2026-02-28T12:00:00:Z","depth":0,"parameterNumber":3,"parameterNumberName":"V-component_of_WINDS"},"data":[0.0,0.0,0.0,0.0,0.0,0.0,0.0,0.0,0.0,0.0,0.0,0.0,0.0,0.0,0.0,0.0,0.0,0.0,0.0,0.0,0.0,0.0,0.0,0.0,0.0,0.0,0.0,0.0,0.0,0.0,0.0,0.0,0.0,0.0,0.0,0.0,0.0,0.0,0.0,0.0,0.0,0.0,0.0,0.0,0.0,0.0,0.0,0.0,0.0,0.0,0.0,0.0,0.0,0.0,0.0,0.0,0.0,0.0,0.0,0.0,0.0,0.0,0.0,0.0,0.0,0.0,0.0,0.0,0.0,0.0,0.0,0.0,0.0,0.0,0.0,0.0,0.0,0.0,0.0,0.0,0.0,0.0,0.0,0.0,0.0,0.0,0.0,0.0,0.0,0.0,0.0,3.0761,3.1152,3.1511,3.1511,3.1511,3.0943,2.9681,0.0,0.0,0.0,0.0,0.0,0.0,0.0,0.0,0.0,0.0,0.0,0.0,0.0,0.0,0.0,0.0,0.0,0.0,0.0,0.0,0.0,0.0,0.0,0.0,0.0,0.0,0.0,0.0,0.0,0.0,0.0,0.0,0.0,0.0,0.0,0.0,0.0,0.0,0.0,0.0,0.0,0.0,0.0,0.0,0.0,0.0,0.0,0.0,0.0,0.0,0.0,0.0,0.0,0.0,0.0,0.0,0.0,0.0,0.0,0.0,0.0,0.0,0.0,0.0,0.0,0.0,0.0,0.0,0.0,0.0,0.0,0.0,0.0,0.0,0.0,0.0,0.0,0.0,0.0,0.0,0.0,0.0,0.0,0.0,0.0,0.0,0.0,0.0,0.0,0.0,0.0,0.0,0.0,0.0,0.0,0.0,0.0,0.0,0.0,0.0,0.0,0.0,0.0,0.0,3.0372,3.1241,3.1451,3.1511,3.1511,3.1511,3.0943,2.9681,0.0,0.0,0.0,0.0,0.0,0.0,0.0,0.0,0.0,0.0,0.0,0.0,0.0,0.0,0.0,0.0,0.0,0.0,0.0,0.0,0.0,0.0,0.0,0.0,0.0,0.0,0.0,0.0,0.0,0.0,0.0,0.0,0.0,0.0,0.0,0.0,0.0,0.0,0.0,0.0,0.0,0.0,0.0,0.0,0.0,0.0,0.0,0.0,0.0,0.0,0.0,0.0,0.0,0.0,0.0,0.0,0.0,0.0,0.0,0.0,0.0,0.0,0.0,0.0,0.0,0.0,0.0,0.0,0.0,0.0,0.0,0.0,0.0,0.0,0.0,0.0,0.0,0.0,0.0,0.0,0.0,0.0,0.0,0.0,0.0,0.0,0.0,0.0,0.0,0.0,0.0,0.0,0.0,0.0,0.0,0.0,0.0,0.0,0.0,0.0,0.0,0.0,0.0,2.9774,3.0073,3.1361,3.1511,3.1511,3.1511,3.1511,3.1092,3.0133,3.0972,0.0,0.0,0.0,0.0,0.0,0.0,0.0,0.0,0.0,0.0,0.0,0.0,0.0,0.0,0.0,0.0,0.0,0.0,0.0,0.0,0.0,0.0,0.0,0.0,0.0,0.0,0.0,0.0,0.0,0.0,0.0,0.0,0.0,0.0,0.0,0.0,0.0,0.0,0.0,0.0,0.0,0.0,0.0,0.0,0.0,0.0,0.0,0.0,0.0,0.0,0.0,0.0,0.0,0.0,0.0,0.0,0.0,0.0,0.0,0.0,0.0,0.0,0.0,0.0,0.0,0.0,0.0,0.0,0.0,0.0,0.0,0.0,0.0,0.0,0.0,0.0,0.0,0.0,0.0,0.0,0.0,0.0,0.0,0.0,0.0,0.0,0.0,0.0,0.0,0.0,0.0,0.0,0.0,0.0,0.0,0.0,0.0,0.0,0.0,0.0,0.0,0.0,3.0133,3.0432,3.1391,3.1511,3.1511,3.1511,3.1361,3.1032,3.0522,3.0972,0.0,0.0,0.0,0.0,0.0,0.0,0.0,0.0,0.0,0.0,0.0,0.0,0.0,0.0,0.0,0.0,0.0,0.0,0.0,0.0,0.0,0.0,0.0,0.0,0.0,0.0,0.0,0.0,0.0,0.0,0.0,0.0,0.0,0.0,0.0,0.0,0.0,0.0,0.0,0.0,0.0,0.0,0.0,0.0,0.0,0.0,0.0,0.0,0.0,0.0,0.0,0.0,0.0,0.0,0.0,0.0,0.0,0.0,0.0,0.0,0.0,0.0,0.0,0.0,0.0,0.0,0.0,0.0,0.0,0.0,0.0,0.0,0.0,0.0,0.0,0.0,0.0,0.0,0.0,0.0,0.0,0.0,0.0,0.0,0.0,0.0,0.0,0.0,0.0,0.0,0.0,0.0,0.0,0.0,0.0,0.0,0.0,0.0,0.0,0.0,0.0,0.0,3.0672,3.1391,3.1481,3.1511,3.1511,3.1511,3.0913,3.0552,3.0492,3.0552,0.0,0.0,0.0,0.0,0.0,0.0,0.0,0.0,0.0,0.0,0.0,0.0,0.0,0.0,0.0,0.0,0.0,0.0,0.0,0.0,0.0,0.0,0.0,0.0,0.0,0.0,0.0,0.0,0.0,0.0,0.0,0.0,0.0,0.0,0.0,0.0,0.0,0.0,0.0,0.0,0.0,0.0,0.0,0.0,0.0,0.0,0.0,0.0,0.0,0.0,0.0,0.0,0.0,0.0,0.0,0.0,0.0,0.0,0.0,0.0,0.0,0.0,0.0,0.0,0.0,0.0,0.0,0.0,0.0,0.0,0.0,0.0,0.0,0.0,0.0,0.0,0.0,0.0,0.0,0.0,0.0,0.0,0.0,0.0,0.0,0.0,0.0,0.0,0.0,0.0,0.0,0.0,0.0,0.0,0.0,0.0,0.0,0.0,0.0,0.0,0.0,0.0,3.1022,3.1729,0.0,3.1768,3.1511,3.1511,3.1271,3.0943,3.0522,0.0,0.0,0.0,0.0,0.0,0.0,0.0,0.0,0.0,0.0,0.0,0.0,0.0,0.0,0.0,0.0,0.0,0.0,0.0,0.0,0.0,0.0,0.0,0.0,0.0,0.0,0.0,0.0,0.0,0.0,0.0,0.0,0.0,0.0,0.0,0.0,0.0,0.0,0.0,0.0,0.0,0.0,0.0,0.0,0.0,0.0,0.0,0.0,0.0,0.0,0.0,0.0,0.0,0.0,0.0,0.0,0.0,0.0,0.0,0.0,0.0,0.0,0.0,0.0,0.0,0.0,0.0,0.0,0.0,0.0,0.0,0.0,0.0,0.0,0.0,0.0,0.0,0.0,0.0,0.0,0.0,0.0,0.0,0.0,0.0,0.0,0.0,0.0,0.0,0.0,0.0,0.0,0.0,0.0,0.0,0.0,0.0,0.0,0.0,0.0,0.0,0.0,3.081,3.1663,3.2389,0.0,3.2461,3.2188,3.2188,3.1974,3.1558,3.0882,0.0,0.0,0.0,0.0,0.0,0.0,0.0,0.0,0.0,0.0,0.0,0.0,0.0,0.0,0.0,0.0,0.0,0.0,0.0,0.0,0.0,0.0,0.0,0.0,0.0,0.0,0.0,0.0,0.0,0.0,0.0,0.0,0.0,0.0,0.0,0.0,0.0,0.0,0.0,0.0,0.0,0.0,0.0,0.0,0.0,0.0,0.0,0.0,0.0,0.0,0.0,0.0,0.0,0.0,0.0,0.0,0.0,0.0,0.0,0.0,0.0,0.0,0.0,0.0,0.0,0.0,0.0,0.0,0.0,0.0,0.0,0.0,0.0,0.0,0.0,0.0,0.0,0.0,0.0,0.0,0.0,0.0,0.0,0.0,0.0,0.0,0.0,0.0,0.0,0.0,0.0,0.0,0.0,0.0,0.0,0.0,0.0,0.0,0.0,0.0,0.0,0.0,3.1534,3.2727,3.3624,3.3624,3.3624,3.3598,3.3598,3.3008,3.2317,0.0,0.0,0.0,0.0,0.0,0.0,0.0,0.0,0.0,0.0,0.0,0.0,0.0,0.0,0.0,0.0,0.0,0.0,0.0,0.0,0.0,0.0,0.0,0.0,0.0,0.0,0.0,0.0,0.0,0.0,0.0,0.0,0.0,0.0,0.0,0.0,0.0,0.0,0.0,0.0,0.0,0.0,0.0,0.0,0.0,0.0,0.0,0.0,0.0,0.0,0.0,0.0,0.0,0.0,0.0,0.0,0.0,0.0,0.0,0.0,0.0,0.0,0.0,0.0,0.0,0.0,0.0,0.0,0.0,0.0,0.0,0.0,0.0,0.0,0.0,0.0,0.0,0.0,0.0,0.0,0.0,0.0,0.0,0.0,0.0,0.0,0.0,0.0,0.0,0.0,0.0,0.0,0.0,0.0,0.0,0.0,0.0,0.0,0.0,0.0,0.0,0.0,0.0,3.2191,3.341,3.4325,3.4325,3.3871,3.3598,3.3598,3.3431,3.2609,3.1,0.0,0.0,0.0,0.0,0.0,0.0,0.0,0.0,0.0,0.0,0.0,0.0,0.0,0.0,0.0,0.0,0.0,0.0,0.0,0.0,0.0,0.0,0.0,0.0,0.0,0.0,0.0,0.0,0.0,0.0,0.0,0.0,0.0,0.0,0.0,0.0,0.0,0.0,0.0,0.0,0.0,0.0,0.0,0.0,0.0,0.0,0.0,0.0,0.0,0.0,0.0,0.0,0.0,0.0,0.0,0.0,0.0,0.0,0.0,0.0,0.0,0.0,0.0,0.0,0.0,0.0,0.0,0.0,0.0,0.0,0.0,0.0,0.0,0.0,0.0,0.0,0.0,0.0,0.0,0.0,0.0,0.0,0.0,0.0,0.0,0.0,0.0,0.0,0.0,0.0,0.0,0.0,0.0,0.0,0.0,0.0,0.0,0.0,0.0,0.0,0.0,0.0,3.3284,3.4295,3.5105,3.5428,3.4838,3.4399,3.4399,3.4399,3.3535,3.1485,0.0,0.0,0.0,0.0,0.0,0.0,0.0,0.0,0.0,0.0,0.0,0.0,0.0,0.0,0.0,0.0,0.0,0.0,0.0,0.0,0.0,0.0,0.0,0.0,0.0,0.0,0.0,0.0,0.0,0.0,0.0,0.0,0.0,0.0,0.0,0.0,0.0,0.0,0.0,0.0,0.0,0.0,0.0,0.0,0.0,0.0,0.0,0.0,0.0,0.0,0.0,0.0,0.0,0.0,0.0,0.0,0.0,0.0,0.0,0.0,0.0,0.0,0.0,0.0,0.0,0.0,0.0,0.0,0.0,0.0,0.0,0.0,0.0,0.0,0.0,0.0,0.0,0.0,0.0,0.0,0.0,0.0,0.0,0.0,0.0,0.0,0.0,0.0,0.0,0.0,0.0,0.0,0.0,0.0,0.0,0.0,0.0,0.0,0.0,0.0,0.0,0.0,3.4404,3.5148,3.5926,3.6728,3.6096,3.56,3.56,3.56,3.4734,3.2739,0.0,0.0,0.0,0.0,0.0,0.0,0.0,0.0,0.0,0.0,0.0,0.0,0.0,0.0,0.0,0.0,0.0,0.0,0.0,0.0,0.0,0.0,0.0,0.0,0.0,0.0,0.0,0.0,0.0,0.0,0.0,0.0,0.0,0.0,0.0,0.0,0.0,0.0,0.0,0.0,0.0,0.0,0.0,0.0,0.0,0.0,0.0,0.0,0.0,0.0,0.0,0.0,0.0,0.0,0.0,0.0,0.0,0.0,0.0,0.0,3.943,0.0,0.0,0.0,0.0,0.0,0.0,0.0,0.0,0.0,0.0,0.0,0.0,0.0,0.0,0.0,0.0,0.0,0.0,0.0,0.0,0.0,0.0,0.0,0.0,0.0,0.0,0.0,0.0,0.0,0.0,0.0,0.0,0.0,0.0,0.0,0.0,0.0,0.0,0.0,0.0,0.0,3.4404,3.5148,3.5926,3.6728,3.6096,3.56,3.56,3.56,3.497,3.3456,0.0,0.0,0.0,0.0,0.0,0.0,0.0,0.0,0.0,0.0,0.0,0.0,0.0,0.0,0.0,0.0,0.0,0.0,0.0,0.0,0.0,0.0,0.0,0.0,0.0,0.0,0.0,0.0,0.0,0.0,0.0,0.0,0.0,0.0,0.0,0.0,0.0,0.0,0.0,0.0,0.0,0.0,0.0,0.0,0.0,0.0,0.0,0.0,0.0,0.0,0.0,0.0,0.0,0.0,0.0,0.0,0.0,0.0,0.0,0.0,0.0,4.0456,0.0,0.0,0.0,0.0,0.0,0.0,0.0,0.0,0.0,0.0,0.0,0.0,0.0,0.0,0.0,0.0,0.0,0.0,0.0,0.0,0.0,0.0,0.0,0.0,0.0,0.0,0.0,0.0,0.0,0.0,0.0,0.0,0.0,0.0,0.0,0.0,0.0,0.0,0.0,0.0,3.5385,3.5622,3.6039,3.7212,3.6637,3.6197,3.6197,3.6479,3.6093,3.4643,3.4219,0.0,0.0,0.0,0.0,0.0,0.0,0.0,0.0,0.0,0.0,0.0,0.0,0.0,0.0,0.0,0.0,0.0,0.0,0.0,0.0,0.0,0.0,0.0,0.0,0.0,0.0,0.0,0.0,0.0,0.0,0.0,0.0,0.0,0.0,0.0,0.0,0.0,0.0,0.0,0.0,0.0,0.0,0.0,0.0,0.0,0.0,0.0,0.0,0.0,0.0,0.0,0.0,0.0,4.4285,4.4695,4.5337,4.5337,4.5337,4.5337,4.4763,4.3557,4.2022,0.0,0.0,0.0,0.0,0.0,0.0,0.0,0.0,0.0,0.0,0.0,0.0,0.0,0.0,0.0,0.0,0.0,0.0,0.0,0.0,0.0,0.0,0.0,0.0,0.0,3.9968,4.0022,0.0,0.0,0.0,0.0,0.0,0.0,0.0,0.0,0.0,0.0,0.0,0.0,3.6807,3.6637,3.6797,3.8088,3.7568,3.708,3.6998,3.755,3.7381,3.6073,3.587,3.4945,0.0,0.0,0.0,0.0,0.0,0.0,0.0,0.0,0.0,0.0,0.0,0.0,0.0,0.0,0.0,0.0,0.0,0.0,0.0,0.0,0.0,0.0,0.0,0.0,0.0,0.0,0.0,0.0,0.0,0.0,0.0,0.0,4.1715,4.1715,0.0,0.0,0.0,0.0,0.0,0.0,0.0,0.0,0.0,0.0,0.0,0.0,0.0,4.4777,4.4987,4.6365,4.7071,4.7117,4.7823,4.8211,4.8317,4.8317,4.8317,4.8352,4.8902,0.0,4.5027,4.5079,0.0,0.0,0.0,0.0,0.0,0.0,0.0,0.0,0.0,0.0,0.0,0.0,0.0,0.0,0.0,0.0,0.0,0.0,0.0,0.0,0.0,0.0,4.2971,4.204,4.1911,4.1762,0.0,3.8148,3.6007,3.5757,3.5208,0.0,0.0,0.0,0.0,0.0,0.0,0.0,3.7952,3.8697,3.9217,3.9524,3.8891,3.8276,3.7801,3.7855,3.7821,3.7618,3.7009,3.6197,3.5194,3.4539,0.0,0.0,0.0,0.0,0.0,0.0,0.0,0.0,0.0,0.0,0.0,0.0,0.0,0.0,0.0,0.0,0.0,0.0,0.0,0.0,0.0,0.0,0.0,0.0,0.0,0.0,0.0,0.0,0.0,4.1988,4.2603,4.1764,4.2433,4.2295,0.0,0.0,0.0,0.0,0.0,0.0,0.0,0.0,0.0,4.6211,4.653,4.6909,4.7346,4.8056,4.8624,4.9001,4.9355,4.9745,5.0145,5.0145,5.0145,5.0145,5.0474,5.0125,4.9135,4.7431,4.6077,4.4894,0.0,0.0,0.0,0.0,4.275,4.2946,4.4378,4.462,0.0,4.4309,0.0,0.0,0.0,0.0,0.0,0.0,0.0,0.0,0.0,0.0,0.0,4.3718,4.3314,4.2873,4.2506,4.0934,3.9226,0.0,3.7576,3.6807,3.5172,0.0,0.0,0.0,0.0,0.0,3.8821,3.9376,3.9772,4.0256,4.001,3.975,3.9469,3.9842,3.9911,3.9482,3.9155,3.8459,3.7262,3.6934,3.5993,0.0,0.0,0.0,0.0,0.0,0.0,0.0,0.0,0.0,0.0,0.0,0.0,0.0,0.0,0.0,0.0,0.0,0.0,0.0,0.0,0.0,0.0,0.0,0.0,0.0,0.0,0.0,0.0,4.3019,4.3623,4.2645,4.3707,4.3715,0.0,0.0,0.0,0.0,0.0,0.0,4.6212,4.6427,4.7137,4.8527,4.8706,4.91,4.9686,4.9924,5.0295,5.082,5.082,5.1106,5.1654,5.1654,5.1654,5.1654,5.1654,5.1922,5.219,4.9591,4.7879,4.6712,4.5512,4.4938,4.4769,4.4498,4.4421,4.465,4.6003,4.6368,4.617,4.6028,0.0,4.4172,4.2593,0.0,0.0,0.0,0.0,4.4631,4.5645,4.5385,4.4847,4.4847,4.422,4.3647,4.3647,4.3105,4.2092,0.0,3.9816,3.8915,3.657,0.0,0.0,0.0,0.0,3.8509,4.0012,4.0444,4.0763,4.1172,4.1207,4.1131,4.0988,4.1477,4.1584,4.1002,4.0967,4.0385,3.9112,3.9061,3.8315,3.6736,0.0,0.0,0.0,0.0,0.0,0.0,0.0,0.0,0.0,0.0,0.0,0.0,0.0,0.0,0.0,0.0,0.0,0.0,0.0,0.0,0.0,0.0,0.0,0.0,0.0,0.0,0.0,0.0,0.0,4.6105,4.6931,0.0,0.0,0.0,0.0,4.523,4.6708,4.7877,4.8489,4.9211,4.9902,5.0627,5.1401,5.1804,5.1841,5.259,5.2993,5.303,5.303,5.3066,5.3082,5.3082,5.3082,5.3082,5.3082,5.3103,5.3008,5.1393,5.0754,5.0498,4.8222,4.6936,4.6269,4.5357,4.5059,4.5249,4.6593,4.658,4.6177,4.7644,4.7094,4.5773,4.5682,4.5114,0.0,0.0,4.5187,4.581,4.5883,4.5537,4.518,4.518,4.4547,4.3952,4.3952,4.3689,4.3167,0.0,4.1519,4.0696,3.9816,0.0,3.8774,3.9522,3.9706,4.0366,4.1962,4.2822,4.3122,4.264,4.2619,4.2386,4.1782,4.1775,4.1775,4.174,4.174,4.1386,4.0613,4.0598,3.9893,3.8405,3.764,0.0,0.0,0.0,0.0,0.0,0.0,0.0,0.0,0.0,0.0,0.0,0.0,0.0,0.0,0.0,0.0,0.0,0.0,0.0,0.0,0.0,0.0,0.0,0.0,0.0,0.0,0.0,0.0,4.7346,4.8805,0.0,4.7121,4.7277,4.7513,4.7513,4.8887,5.0053,5.0775,5.1046,5.1569,5.2323,5.2637,5.2784,5.2784,5.3078,5.3203,5.3203,5.3203,5.3203,5.3203,5.3203,5.3203,5.3203,5.3203,5.3203,5.3167,5.2623,5.2083,5.1521,5.0154,4.9154,4.8463,4.8121,4.7633,4.7232,4.7735,4.7682,4.7462,4.7516,4.7315,4.6986,4.645,4.6254,4.6338,4.6862,4.7236,4.7557,4.8065,4.7312,4.6365,4.6365,4.535,4.4373,4.4373,4.4276,4.4101,4.3839,4.2749,4.1625,4.0818,4.0451,4.0194,3.9937,4.0781,4.1662,4.2213,4.2983,4.3445,4.3232,4.3214,4.3142,4.2903,4.2885,4.2885,4.2885,4.3393,4.3538,4.3303,4.3266,4.2777,4.176,4.0434,3.8964,0.0,0.0,0.0,0.0,0.0,0.0,0.0,0.0,0.0,0.0,0.0,0.0,0.0,0.0,0.0,0.0,0.0,0.0,0.0,0.0,0.0,0.0,0.0,0.0,0.0,0.0,4.945,4.9248,5.0741,5.1121,4.9388,4.9582,4.9813,4.9813,5.0911,5.183,5.238,5.2417,5.2637,5.3167,5.3203,5.3272,5.342,5.342,5.3464,5.3661,5.3661,5.3661,5.3661,5.3661,5.3661,5.3641,5.3464,5.342,5.34,5.3251,5.2962,5.2498,5.1581,5.0692,4.9978,4.9721,4.904,4.8325,4.8458,4.8586,4.8617,4.8098,4.8079,4.8209,4.7648,4.7709,4.8022,4.8551,4.8688,4.8839,4.9353,4.8569,4.7528,4.7263,4.614,4.5091,4.4814,4.4688,4.4612,4.4612,4.3764,4.2811,4.1979,4.1846,4.1615,4.096,4.1778,4.2541,4.267,4.3167,4.3515,4.3515,4.3515,4.3515,4.3515,4.3515,4.3515,4.3515,4.4011,4.4305,4.4305,4.4305,4.4048,4.3515,4.1919,4.0435,3.9093,0.0,0.0,0.0,0.0,0.0,0.0,0.0,0.0,0.0,0.0,0.0,0.0,0.0,0.0,0.0,0.0,0.0,0.0,0.0,0.0,0.0,0.0,0.0,4.7575,4.9669,5.1391,5.2045,5.2821,5.3004,5.2197,5.2087,5.205,5.205,5.2768,5.3246,5.3246,5.3209,5.323,5.323,5.323,5.3404,5.3795,5.3814,5.4048,5.4484,5.4484,5.4484,5.4484,5.4484,5.4484,5.4468,5.4013,5.3814,5.3814,5.342,5.3464,5.3684,5.2515,5.1577,5.0769,4.998,4.9135,4.842,4.8779,4.9171,4.9489,4.9489,4.9504,4.9518,4.9518,4.9518,4.9532,4.9532,4.9532,4.9532,4.9532,4.9187,4.8624,4.7773,4.6946,4.6129,4.5317,4.4898,4.4637,4.4637,4.4637,4.4373,4.3492,4.3341,4.3226,4.2907,4.2849,0.0,4.349,4.3495,4.3532,4.3532,4.3515,4.3515,4.3515,4.3515,4.3515,4.3515,4.3515,4.3551,4.3551,4.3551,4.3551,4.3515,4.1972,4.0761,3.9968,0.0,0.0,0.0,0.0,0.0,0.0,0.0,0.0,0.0,0.0,0.0,0.0,0.0,0.0,0.0,0.0,0.0,0.0,0.0,0.0,0.0,0.0,5.0468,4.996,5.1459,5.3112,5.4473,5.5317,5.55,5.4693,5.4069,5.3482,5.2931,5.3373,5.3643,5.3643,5.3961,5.4156,5.4156,5.4156,5.4207,5.4305,5.4305,5.4371,5.4484,5.4484,5.4484,5.4484,5.4484,5.4484,5.4484,5.4355,5.4305,5.4288,5.4207,5.4225,5.4217,5.3553,5.2994,5.2523,5.2298,5.134,5.0027,4.9536,4.9401,4.9489,4.9489,4.9687,4.9936,4.9936,5.0147,5.0358,5.0358,5.0358,5.0358,5.0358,4.981,4.9171,4.8941,4.8211,4.7367,4.6599,4.6311,4.6069,4.5466,4.5313,4.5076,4.4361,4.4234,4.4208,4.4116,4.4103,0.0,4.429,4.405,4.3865,4.3865,4.3664,4.3515,4.3515,4.3515,4.3515,4.3515,4.4048,4.4378,4.4378,4.4378,4.4085,4.3515,4.2723,4.1928,0.0,0.0,0.0,0.0,0.0,0.0,0.0,0.0,0.0,0.0,0.0,0.0,0.0,0.0,0.0,0.0,0.0,0.0,0.0,0.0,0.0,0.0,5.1473,5.3275,5.3833,5.4384,5.5147,5.6251,5.6826,5.6985,5.6732,5.5616,5.4761,5.4278,5.4166,5.4101,5.4101,5.4338,5.4484,5.4484,5.4484,5.4563,5.4745,5.4745,5.4833,5.4988,5.4988,5.4988,5.4988,5.4988,5.4988,0.0,5.4819,5.4745,5.4731,5.4563,5.4594,0.0,0.0,0.0,0.0,0.0,5.2204,5.1437,5.0551,5.0366,5.0444,5.0114,5.0159,5.0347,5.0347,5.0504,5.0712,5.0712,5.0712,5.0712,5.0712,5.0327,4.9856,4.9471,4.9009,4.8432,4.7586,4.7154,4.674,4.624,4.5864,0.0,4.5077,4.5011,4.4966,4.4837,4.4812,4.4763,4.4624,4.4387,4.4247,4.4247,4.408,4.4092,4.4442,4.4008,0.0,0.0,0.0,4.4478,4.4671,4.4671,0.0,0.0,0.0,0.0,0.0,0.0,0.0,0.0,4.2408,4.2404,0.0,0.0,0.0,0.0,0.0,0.0,0.0,0.0,0.0,0.0,0.0,0.0,0.0,0.0,0.0,0.0,5.3967,5.5702,5.7914,5.7538,5.7254,5.7672,5.7694,5.7847,5.8165,5.6857,5.5913,5.5724,5.5076,5.4676,5.4563,0.0,0.0,0.0,0.0,5.4804,5.5173,5.5173,5.5363,5.5703,5.5703,5.5703,5.5703,5.5703,5.5703,5.5692,5.53,5.5173,5.5147,5.4775,5.4833,5.5134,5.476,5.4148,5.3391,5.2588,5.2496,5.2678,5.1825,0.0,0.0,5.1087,5.0789,5.0712,5.0712,5.0712,5.0712,5.0712,5.0712,5.0712,5.0712,5.0712,5.0519,4.974,4.9548,4.9317,4.8432,4.7702,4.7154,4.7038,4.6394,4.5864,4.5864,4.5748,4.5523,4.5201,4.5169,4.5033,4.4763,4.4764,4.4789,4.4789,0.0,0.0,4.5908,4.495,4.4818,4.5881,4.495,4.4533,4.4863,4.4876,4.5215,4.5946,4.5986,4.639,4.7159,4.7199,4.7301,4.7414,4.4397,4.412,0.0,0.0,0.0,0.0,0.0,0.0,0.0,0.0,0.0,0.0,0.0,0.0,0.0,0.0,0.0,5.3047,5.5578,5.7649,5.8123,5.8608,5.8932,5.9022,5.904,5.8812,5.8237,5.7897,5.7159,5.5799,5.592,5.5736,5.5012,5.5275,5.5458,5.5458,5.5458,5.552,5.5577,5.5588,5.561,5.5703,0.0,0.0,5.5703,5.5703,5.5703,5.5703,5.561,5.5588,5.5577,5.5481,5.5493,5.5577,5.552,5.5343,5.5113,5.4319,5.4084,5.4013,5.3129,5.242,5.1885,5.1731,5.1241,5.0712,5.0712,5.0712,0.0,5.0712,5.0712,5.0712,5.0712,5.0712,5.0673,5.0481,5.0442,5.0212,4.9356,4.9048,4.8702,4.8009,4.774,4.7625,4.7625,4.6509,4.5577,4.5494,4.5485,4.5466,4.5419,4.5725,4.5963,4.5963,4.6342,4.6677,4.6828,4.6622,4.6609,4.6828,4.6622,4.6533,4.6601,4.6615,4.6677,4.6841,4.7099,4.7346,4.7498,4.7761,4.8642,4.9984,4.835,4.7864,0.0,0.0,0.0,0.0,0.0,0.0,0.0,0.0,0.0,0.0,0.0,4.9539,5.0381,0.0,5.4428,5.5858,5.7654,5.9011,5.9431,5.9851,5.9991,5.9792,5.976,5.9665,5.9531,5.9126,5.8325,5.7104,5.6818,5.6331,5.5437,5.5588,5.5703,5.5703,5.5703,5.5703,5.5703,5.5703,5.5703,5.5703,5.5703,5.5703,5.5703,5.5703,5.5703,5.5703,5.5703,5.5703,5.5703,5.5703,5.5703,5.5703,5.5703,5.5703,5.5665,5.5241,5.5088,5.4972,5.4126,5.3587,5.3049,5.2192,5.1625,5.1241,5.0827,5.0712,5.0712,5.0712,5.0712,5.0712,5.0712,5.0712,5.0712,5.0712,5.0712,5.0596,5.0125,4.9702,4.9279,4.8856,4.8394,4.8086,4.8086,4.7394,4.6855,4.6855,4.6855,4.6855,4.6855,4.706,4.721,4.721,4.7428,4.777,4.8201,4.8239,4.7979,4.7403,4.7498,4.7617,4.7617,4.7617,4.7808,4.8239,4.8411,4.8907,4.975,4.9912,5.0664,5.1933,5.177,5.1475,0.0,0.0,0.0,0.0,0.0,0.0,0.0,0.0,4.8639,4.9832,5.0829,5.1989,5.3603,5.4998,5.6612,5.8664,5.9433,6.0012,6.0704,6.0781,6.0647,6.0297,6.0255,6.0378,6.0757,6.0165,5.9396,5.8588,5.7742,5.6868,5.6011,5.578,5.5703,5.5703,5.5703,5.5703,5.5703,5.5703,5.5703,5.5703,5.5703,5.5703,5.5703,5.5703,5.5703,5.5703,5.5703,5.5703,5.5703,5.5703,5.5703,5.5703,5.5703,5.5703,5.5703,5.5703,5.5703,5.5588,5.4972,5.4626,5.428,5.2856,5.2269,5.2,5.1164,5.0933,5.0894,5.075,5.0712,5.0712,5.0712,5.0712,5.0712,5.0712,5.0712,5.0712,5.0712,5.0164,4.9663,4.9663,4.9086,4.8625,4.8625,4.8625,4.8509,4.8163,4.8086,4.8086,4.8086,4.824,4.8355,4.8355,4.8509,4.8894,4.9586,4.9663,4.9239,4.8264,4.8442,4.8625,4.8625,4.8625,4.8933,4.9625,4.9663,5.0394,5.1885,5.1731,5.2279,5.3472,5.3818,5.3818,4.7626,4.7039,4.7206,4.7495,4.8133,4.9368,0.0,0.0,5.2868,5.3799,5.5179,5.6214,5.6082,5.7385,5.8678,5.9341,6.0104,6.0704,6.0781,6.0781,6.0769,6.0734,6.0734,6.0746,6.0781,6.0704,6.0281,5.9435,5.8627,5.778,5.6907,5.6126,5.5703,5.5703,5.5703,5.5703,5.5703,5.5703,5.5703,5.5703,5.5703,5.5703,5.5703,5.5703,5.5703,5.5703,5.5703,5.5703,5.5703,5.5703,5.5703,5.5703,5.5703,5.5703,5.5703,5.5703,5.5703,5.5703,5.5588,5.5088,5.4472,5.428,5.3703,5.2895,5.2038,5.1769,5.1625,5.0894,5.0712,5.0712,5.0712,5.0712,5.0712,5.0712,5.0712,5.0712,5.0712,5.0635,5.0558,5.0558,5.0481,5.0404,5.0404,5.0404,4.9894,4.8317,4.8086,4.8086,4.8086,4.8779,4.924,4.924,4.9933,5.0442,5.0558,5.0558,5.051,5.0365,5.0385,5.0404,5.0404,5.0404,5.0442,5.0558,5.0558,5.101,5.1885,5.1164,5.2049,5.4318,5.2856,5.2972,4.9825,4.8916,0.0,0.0,5.1275,5.2059,5.4267,5.4767,5.5056,5.6139,5.7285,5.8125,5.8208,5.9178,6.006,0.0,6.055,6.0781,6.0781,6.0781,6.0781,6.0781,6.0781,6.0781,6.0781,6.0781,6.0435,5.9588,5.8742,5.7934,5.706,5.6165,5.5703,5.5703,5.5703,5.5703,5.5703,5.5703,5.5703,5.5703,5.5703,5.5703,5.5703,5.5703,5.5703,5.5703,5.5703,5.5703,5.5703,5.5703,5.5703,5.5703,5.5703,5.5703,5.5703,5.5703,5.5703,5.5703,5.5703,5.5472,5.5126,5.4664,5.4241,5.378,5.2933,5.2654,5.2472,5.1625,5.1395,5.1279,5.0827,5.0712,5.0712,5.0712,5.0712,5.0712,5.0712,5.0712,5.0712,5.0712,5.0712,5.0712,5.0712,5.0712,5.0442,4.9702,4.9625,4.9625,4.9625,4.9933,5.0173,5.0173,5.0481,5.0712,5.0712,5.0712,5.0712,5.0712,5.0712,5.0712,5.0712,5.0712,5.0712,5.0712,5.0712,5.1356,5.2654,5.2318,5.3203,5.5164,5.4434,5.4511,5.0566,0.0,0.0,5.29,5.3987,5.4912,5.6458,5.6829,5.713,5.8244,5.8985,5.9511,5.9823,6.0358,6.0781,6.0781,6.0781,6.0781,6.0781,6.0781,6.0704,6.0473,6.0435,6.0435,6.0435,6.0666,6.055,5.9896,5.8896,5.8011,5.7396,5.628,5.5703,5.5703,5.5703,5.5703,5.5703,5.5703,5.5703,5.5703,5.5703,5.5703,5.5703,5.5703,5.5703,5.5703,5.5472,5.5357,5.5357,5.5357,5.5357,5.5395,5.5588,5.5703,5.5665,5.5434,5.5511,5.5665,5.5434,5.5511,5.5549,5.4741,5.4664,5.4664,5.3818,5.3395,5.301,5.2154,5.178,5.149,5.0921,5.0782,5.0825,5.0825,5.0825,5.0825,5.0825,5.0782,5.0776,5.0776,5.0721,5.0712,5.0712,5.0712,5.0712,5.0712,5.0712,5.0712,5.0712,5.0712,5.0712,5.0712,5.0712,5.0712,5.0712,5.0712,5.0712,5.0712,5.0712,5.0712,5.0712,5.0712,5.0712,5.0712,5.0712,5.1395,5.2856,5.2626,5.3356,5.5011,5.4741,5.478,0.0,0.0,5.3195,5.3733,5.5706,5.7796,5.9072,5.9412,5.9642,6.0538,6.0731,6.0731,6.0742,6.0781,6.0781,6.0781,6.0781,6.0781,6.0781,6.0781,6.0473,5.9627,5.955,5.955,0.0,6.0281,6.0781,6.0742,5.9242,5.828,5.828,5.6626,5.5703,5.5703,5.5703,5.5703,5.5703,5.5703,5.5703,5.5703,5.5703,5.5703,5.5703,5.5703,5.5703,5.5665,5.4895,5.4549,5.4549,5.4549,5.4549,5.4626,5.5395,5.5703,5.5588,5.4818,5.5011,5.5588,5.4818,5.5049,5.5549,5.4741,5.5011,5.5511,5.4703,5.3857,5.301,5.2154,5.1447,5.092,5.092,5.0972,5.1079,5.1079,5.1079,5.1079,5.1079,5.1004,5.0882,5.0882,5.0791,5.0712,5.0712,5.0712,5.0712,5.0712,5.0712,5.0712,5.0712,5.0712,5.0712,5.0712,5.0712,5.0712,5.0712,5.0712,5.0712,5.0712,5.0712,5.0712,5.0712,5.0712,5.0712,5.0712,5.0712,5.1125,5.1923,5.1164,5.1625,5.328,5.2423,5.2462,0.0,0.0,5.4305,5.6968,5.8256,5.9113,6.0142,6.0358,6.0435,6.0742,6.0319,5.9935,5.9935,5.9935,5.9935,5.9935,6.0435,6.0781,6.0781,6.0781,6.0473,5.9588,5.9511,0.0,0.0,0.0,0.0,6.0742,5.9242,5.8319,5.8319,5.6665,5.5703,5.5703,5.5703,5.5703,5.5703,5.5703,5.5703,5.5703,5.5703,5.5703,5.5703,5.5703,5.5703,5.5665,5.5395,5.528,5.528,5.528,5.528,5.5318,5.5588,5.5421,5.5014,5.4743,5.4489,5.4258,5.3783,5.3818,5.4003,5.3819,5.395,5.413,5.3948,5.3712,5.3293,5.2401,5.1981,5.1713,5.1175,5.1058,5.1089,5.1089,5.1089,5.1089,5.1089,5.1053,5.102,5.102,5.1017,5.0979,5.0979,5.0979,5.0939,5.0844,5.0776,5.0712,5.0712,5.0712,5.0712,5.0712,5.0712,5.0712,5.0712,5.0712,5.0712,5.0712,5.0712,5.0712,5.0712,5.0712,5.0712,5.0712,5.0712,5.1087,5.1885,5.1625,5.2395,5.4049,5.378,5.4087,5.3466,5.4788,5.6113,5.8812,5.9742,6.0127,6.0666,6.0781,6.0781,6.0781,5.9896,5.9088,5.9088,5.855,5.8357,5.8973,5.955,6.0127,6.0704,6.0781,6.0473,5.9588,5.9511,5.9511,0.0,0.0,0.0,6.0281,5.9088,5.8165,5.7857,5.6472,5.5703,5.5703,5.5703,5.5703,5.5703,5.5768,5.5817,5.587,5.587,5.587,5.587,5.587,5.587,5.587,5.5561,5.5406,5.5406,5.5406,5.5406,5.5445,5.5754,5.5443,5.4735,5.4425,5.3793,5.3114,5.2934,5.3069,5.3326,5.3071,5.3222,5.3475,5.358,5.3374,5.3024,5.2446,5.2091,5.1775,5.1273,5.1183,5.1206,5.1206,5.1206,5.1206,5.1206,5.1183,5.1156,5.1156,5.1122,5.1089,5.1089,5.1089,5.1063,5.0966,5.0889,5.0825,5.0693,5.0712,5.0712,5.0712,5.0712,5.0712,5.0712,5.0712,5.0712,5.0712,5.0712,5.0712,5.0712,5.0712,5.0712,5.0712,5.0712,5.1087,5.1885,5.1885,5.2654,5.4049,5.4357,5.478,5.4331,5.6472,5.855,5.9358,6.0204,6.0781,6.0781,6.0781,6.0781,6.0742,5.9396,5.8242,0.0,0.0,5.6319,5.8011,5.8357,5.8973,6.0589,6.0781,6.0473,0.0,0.0,0.0,0.0,0.0,0.0,5.9441,0.0,5.7896,5.7099,5.6186,5.5724,5.5724,5.5707,5.5707,5.5707,5.5831,5.5998,5.6191,5.6191,5.6191,5.6191,5.6191,5.6191,5.6153,5.5341,5.4957,5.4957,5.4957,5.4957,5.5034,5.5847,5.5608,5.4752,5.3862,5.3011,5.2232,5.2232,5.2806,5.3335,5.249,5.2801,5.3462,5.3506,5.2928,5.2232,5.2232,5.1767,5.1208,5.1208,5.1317,5.1406,5.1406,5.1406,5.1406,5.1406,5.1316,5.1208,5.1208,5.1147,5.1113,5.1113,5.1113,5.1108,5.1103,5.1103,5.1002,5.0729,5.0712,5.0702,5.0693,5.0731,5.0721,5.0712,5.0712,5.0712,5.0712,5.0712,5.0712,5.0712,5.0712,5.0712,5.075,5.075,5.1164,5.1962,5.1962,5.2423,5.328,5.4098,5.4531,5.672,5.8242,5.9396,6.0242,6.0627,6.0781,6.0781,6.0781,6.0627,5.9973,5.8511,5.7319,0.0,0.0,0.0,5.8127,5.9358,0.0,6.0742,6.0781,0.0,0.0,0.0,5.9716,5.9716,5.9049,0.0,0.0,5.8298,5.7511,5.7934,5.6618,5.5831,5.5831,5.5993,5.6071,5.6071,5.6116,5.6152,5.6191,5.6191,5.6191,5.6191,5.6191,5.6191,5.6191,5.5963,5.5885,5.5885,5.5885,5.5885,5.5847,5.5408,5.4762,5.3972,5.3114,5.2294,5.1627,5.1627,5.1687,5.1726,5.1541,5.1639,5.1846,5.1929,5.1821,5.1627,5.1627,5.1476,5.1364,5.1364,5.1366,5.1406,5.1406,5.1406,5.1406,5.1406,5.1366,5.1364,5.1364,5.132,5.1316,5.1316,5.1316,5.1306,5.1183,5.1174,5.1133,5.1008,5.1017,5.0972,5.0867,5.0851,5.0825,5.0721,5.0712,5.0712,5.0712,5.0712,5.0712,5.0712,5.0712,5.0971,5.1587,5.1587,5.201,5.2856,5.2856,5.3318,5.4175,5.4485,5.4951,5.8357,5.9435,6.0204,6.0666,6.0781,6.0589,5.9858,5.9704,5.9358,5.8088,5.6511,0.0,0.0,0.0,0.0,0.0,0.0,0.0,6.0627,6.0856,6.071,0.0,6.0356,0.0,6.0444,5.9724,5.9622,0.0,5.8467,5.7392,5.7895,5.6691,5.6012,5.6012,5.6146,5.6222,5.6273,5.6273,5.6336,5.6377,5.6377,5.6377,5.6377,5.6377,5.6377,5.6338,0.0,5.5792,5.5792,5.5402,5.5243,5.5204,5.4697,5.4018,5.3302,5.3185,5.2416,5.1445,5.1836,5.1667,5.1233,5.1267,5.1274,5.1317,5.1367,5.1406,5.1406,5.1406,5.1406,5.1406,5.1406,5.1406,5.1406,5.1406,5.1406,5.1406,5.1406,5.1406,5.1406,5.1406,5.1406,5.1406,5.1406,5.1406,5.1366,5.1316,5.1274,5.1265,5.1233,5.1156,5.1063,5.1017,5.1004,5.0966,5.0859,5.089,5.089,5.089,5.1208,5.1362,5.1331,5.1687,5.2058,5.2472,5.2462,5.2916,5.384,5.384,5.4318,5.5233,5.5317,5.5591,5.9435,6.0204,6.0781,6.0781,6.0704,6.0204,5.8665,5.8204,5.7627,5.5895,0.0,5.3472,5.4357,0.0,5.3318,5.6637,0.0,5.8192,6.0503,6.0935,6.1048,6.1048,6.122,6.1318,6.1318,6.0443,6.0263,6.111,5.8773,5.7396,5.7564,5.6718,5.6227,5.6246,5.6246,5.6293,5.6443,5.6443,5.6466,5.6601,5.6601,5.6601,5.6601,5.6601,5.6523,5.6406,0.0,0.0,5.5078,5.4297,5.3984,5.3984,5.3867,5.3359,5.2773,5.3437,5.2695,5.1523,5.2266,5.2031,5.1406,5.1406,5.1406,5.1406,5.1406,5.1406,5.1406,5.1406,5.1406,5.1406,5.1406,5.1406,5.1406,5.1406,5.1406,5.1406,5.1406,5.1406,5.1406,5.1406,5.1406,5.1406,5.1406,5.1406,5.1406,5.1406,5.1406,5.1445,5.1562,5.1316,5.1135,5.1117,5.1117,5.1152,5.1249,5.1249,5.1327,5.1405,5.2072,5.2408,5.2288,5.3032,5.3414,5.3427,5.3427,5.3923,5.4893,5.4893,5.5365,5.6191,5.6212,5.6217,6.0319,6.0666,6.0781,6.0781,6.0242,5.9473,5.8511,5.7742,0.0,0.0,0.0,5.3472,5.4357,5.4241,0.0,5.7627,0.0,0.0,0.0,0.0,6.1246,0.0,0.0,0.0,0.0,0.0,0.0,0.0,0.0,5.7265,5.8426,5.7147,5.6438,5.6517,5.6517,5.6558,5.6561,5.6561,5.6562,5.6601,5.6601,5.6601,5.6601,5.6601,5.6211,5.5508,5.5351,0.0,5.4219,5.4062,5.3984,5.3945,5.3203,5.2812,5.2617,5.207,5.1641,5.1406,5.1562,5.1523,5.1406,5.1406,5.1406,5.1406,5.1406,5.1406,5.1406,5.1406,5.1406,5.1406,5.1406,5.1406,5.1406,5.1406,5.1406,5.1406,5.1406,5.1406,5.1406,5.1406,5.1406,5.1406,5.1406,5.1406,5.1406,5.1406,5.1406,5.1641,5.2383,5.1834,5.1313,5.1191,5.1183,5.1431,5.2042,5.2072,5.2383,5.3132,5.3288,5.3356,5.333,5.3485,5.3897,5.4607,5.4607,5.5046,5.5925,5.5925,5.6014,5.6197,5.6297,5.6371,6.0704,6.0781,6.0781,6.0781,6.0127,5.905,5.7357,0.0,0.0,0.0,0.0,5.2164,5.301,0.0,0.0,0.0,0.0,0.0,0.0,0.0,0.0,0.0,0.0,0.0,0.0,0.0,0.0,0.0,0.0,5.7574,5.8234,5.7163,5.6518,5.6601,5.6601,5.6601,5.6601,5.6601,5.6601,5.6601,5.6601,5.6601,5.6601,5.6601,5.6367,5.5937,5.5508,0.0,5.3945,5.3516,5.3047,5.2617,5.2187,5.2031,5.2031,5.207,5.207,5.2148,5.2617,5.2734,5.2734,5.2734,5.2148,5.1406,5.1406,5.1406,5.1484,5.1953,5.207,5.2187,5.2656,5.2734,5.2734,5.2734,5.2734,5.2734,5.2734,5.2734,5.2734,5.2734,5.2734,5.2734,5.2734,5.2734,5.2734,5.2734,5.2734,5.2891,5.332,5.3008,5.2733,5.2647,5.2646,5.2794,5.3162,5.3199,5.3355,5.3784,5.4216,5.4432,5.4383,5.4812,5.5217,5.5574,5.5574,5.5799,5.6289,5.6289,5.6354,5.6397,5.6463,5.6745,6.0742,6.0781,6.0781,6.0781,6.0012,5.8627,5.6242,5.4934,0.0,0.0,0.0,5.0933,5.1731,0.0,0.0,0.0,0.0,0.0,0.0,0.0,0.0,0.0,0.0,0.0,0.0,0.0,0.0,0.0,0.0,0.0,5.7617,5.6953,5.6601,5.6601,5.6601,5.6601,5.6601,5.6601,5.6601,5.6601,5.6601,5.6601,5.6601,5.6601,5.6484,5.6289,5.539,0.0,0.0,5.2773,5.2031,5.1406,5.1406,5.1523,5.1758,5.2461,5.2812,5.3086,5.375,5.3984,5.3984,5.3984,5.3086,5.1953,5.1953,5.1953,5.2109,5.2773,5.2969,5.3125,5.3828,5.3984,5.3984,5.3984,5.3984,5.3984,5.3984,5.3984,5.3984,5.3984,5.3984,5.3984,5.3984,5.3984,5.3984,5.3984,5.3984,5.4062,5.4258,5.4297,5.4336,5.4531,5.4219,5.4062,5.4258,5.4297,5.4375,5.4531,5.5195,5.5543,5.5435,5.6098,5.6386,5.6277,5.6273,5.6432,5.6723,5.6723,5.686,5.7148,5.7148,5.7539,6.0589,6.0781,6.0781,6.0781,5.9588,5.7934,5.6126,0.0,0.0,0.0,5.0712,5.0933,5.1731,0.0,0.0,0.0,0.0,0.0,0.0,0.0,0.0,0.0,0.0,0.0,0.0,0.0,0.0,0.0,0.0,0.0,5.6719,5.664,5.6601,5.6601,5.6601,5.6601,5.6601,5.6601,5.6601,5.6601,5.6601,5.6601,5.6601,5.6601,5.6172,5.5351,5.4492,0.0,0.0,5.1875,5.1484,5.1406,5.1406,5.1875,5.2578,5.2656,5.3203,5.3906,5.3984,5.3984,5.3984,5.3984,5.3906,5.375,5.375,5.375,5.3789,5.3867,5.3867,5.3906,5.3984,5.3984,5.3984,5.3984,5.3984,5.3984,5.3984,5.3984,5.3984,5.3984,5.3984,5.3984,5.3984,5.3984,5.3984,5.3984,5.3984,5.4297,5.5078,5.5195,5.5469,5.6289,5.4922,5.4336,5.5117,5.5195,5.5508,5.6328,5.6445,5.6484,5.6445,5.6523,5.6562,5.6561,5.6561,5.6952,5.7773,5.7773,5.8164,5.8945,5.8945,5.8984,6.0435,6.0781,6.0666,6.0165,5.9165,5.7703,5.5472,0.0,5.2702,5.1058,5.0712,5.0789,5.1125,5.1248,0.0,0.0,0.0,0.0,0.0,0.0,0.0,0.0,0.0,0.0,0.0,0.0,0.0,0.0,0.0,0.0,5.6601,5.6601,5.6601,5.6601,5.6601,5.6601,5.6601,5.6601,5.6601,5.6601,5.6601,5.6601,5.6601,5.6601,5.6406,5.6055,5.5703,0.0,0.0,5.332,5.2656,5.2187,5.2187,5.2383,5.2773,5.3281,5.4023,5.4765,5.4765,5.5117,5.5547,5.5547,5.5547,5.5351,5.4336,5.3984,5.4101,5.4648,5.4765,5.4883,5.543,5.5547,5.5547,5.5547,5.5547,5.5547,5.5547,5.5547,5.5547,5.5547,5.5547,5.5547,5.5547,5.5547,5.5547,5.5547,5.5547,5.5703,5.6055,5.6094,5.6211,5.6562,5.5976,5.5703,5.6055,5.6094,5.6211,5.6562,5.6601,5.6601,5.6601,5.6601,5.6836,5.7383,5.7383,5.7812,5.8672,5.8672,5.8867,5.9219,5.9219,5.9453,6.0281,6.0781,6.0666,6.005,5.8896,5.7396,0.0,0.0,5.2395,5.0981,5.073,5.0776,5.0776,5.0883,5.0972,0.0,0.0,5.2689,0.0,0.0,0.0,0.0,0.0,0.0,0.0,0.0,0.0,0.0,0.0,0.0,0.0,5.6601,5.6601,5.6601,5.6601,5.6601,5.6601,5.6601,5.6601,5.6601,5.6601,5.6601,5.6601,5.6601,5.6601,5.6601,0.0,0.0,0.0,5.4062,5.3242,5.2656,5.2422,5.2617,5.3164,5.3789,5.4726,5.5664,5.5664,5.6094,5.6601,5.6601,5.6601,5.6367,5.5156,5.4765,5.4883,5.5508,5.5664,5.582,5.6445,5.6601,5.6601,5.6601,5.6601,5.6601,5.6601,5.6601,5.6601,5.6601,5.6601,5.6601,5.6601,5.6601,5.6601,5.6601,5.6601,5.6601,5.6601,5.6601,5.6601,5.6601,5.6601,5.6601,5.6601,5.6601,5.6601,5.6601,5.6601,5.6719,5.6953,5.6992,5.7383,5.8281,5.8281,5.8711,5.9531,5.9531,5.9687,5.9922,5.9922,6.0234,6.0089,6.0781,6.0781,6.0781,5.8858,5.6791,0.0,5.3741,5.1692,5.0856,5.0816,5.0889,5.0889,5.099,5.1089,5.1089,0.0,0.0,0.0,0.0,0.0,0.0,0.0,0.0,0.0,0.0,0.0,0.0,0.0,0.0,0.0,5.6601,5.6601,5.6601,5.6601,5.6601,5.6601,5.6601,5.6601,5.6601,5.6601,5.6601,5.6601,5.6601,5.6601,0.0,0.0,0.0,0.0,5.3437,5.2695,5.2617,5.1758,5.2461,5.3984,5.3984,5.5117,5.6601,5.6601,5.6601,5.6601,5.6601,5.6601,5.6601,5.6562,5.6562,5.6562,5.6562,5.6601,5.6601,5.6601,5.6601,5.6601,5.6601,5.6601,5.6601,5.6601,5.6601,5.6601,5.6601,5.6601,5.6601,5.6601,5.6601,5.6601,5.6601,5.6601,5.6601,5.6601,5.6601,5.6601,5.6601,5.6601,5.6601,5.6601,5.6601,5.6601,5.6601,5.6601,5.6992,5.7851,5.789,5.8281,5.918,5.918,5.957,6.039,6.039,6.082,6.168,6.168,6.168,5.6934,5.7753,5.7945,5.678,5.5895,5.4895,5.3433,5.2462,5.1703,5.0996,5.0883,5.0932,5.1008,5.1096,5.1557,5.2731,5.3489,0.0,0.0,0.0,0.0,0.0,0.0,0.0,0.0,0.0,0.0,0.0,0.0,0.0,0.0,5.6601,5.6601,5.6601,5.6601,5.6601,5.6601,5.6601,5.6601,5.6601,5.6601,5.6601,5.6601,5.6601,0.0,0.0,0.0,0.0,0.0,5.4062,5.3242,5.2734,5.3047,5.3516,5.4141,5.5351,5.6133,5.6601,5.6601,5.6601,5.6601,5.6601,5.6601,5.6601,5.6601,5.6601,5.6601,5.6601,5.6601,5.6601,5.6601,5.6601,5.6601,5.6601,5.6601,5.6601,5.6601,5.6601,5.6601,5.6601,5.6601,5.6601,5.6601,5.6601,5.6601,5.6601,5.6601,5.6601,5.6601,5.7109,5.75,5.75,5.8008,5.789,5.6719,5.6601,5.6836,5.7461,5.75,5.789,5.875,5.8789,5.918,6.0,6.0039,6.043,6.1289,6.1289,6.1445,6.1719,6.1627,6.1575,0.0,5.6088,5.6252,5.5203,5.4472,5.3741,5.2654,5.1924,5.1417,5.0975,5.0959,5.103,5.1109,5.1194,5.1623,5.2716,5.3512,0.0,0.0,0.0,0.0,0.0,0.0,0.0,0.0,0.0,0.0,0.0,0.0,0.0,0.0,5.6601,5.6601,5.6601,5.6601,5.6445,5.6094,5.6094,5.5937,5.5625,5.5937,5.6094,5.6133,5.6445,0.0,0.0,0.0,0.0,0.0,5.3984,5.3203,5.2734,5.293,5.3437,5.4141,5.5234,5.6055,5.6601,5.6601,5.6601,5.6601,5.6601,5.6601,5.6601,5.6601,5.6601,5.6601,5.6601,5.6601,5.6601,5.6601,5.6601,5.6601,5.6601,5.6601,5.6601,5.6601,5.6601,5.6601,5.6601,5.6601,5.6601,5.6601,5.6875,5.7109,5.7109,5.7383,5.7578,5.7578,5.8047,5.8398,5.8398,5.8867,5.875,5.7656,5.7578,5.7812,5.8359,5.8398,5.8789,5.9609,5.9648,6.0039,6.0859,6.0898,6.1172,6.1719,6.1719,6.1719,6.1719,6.1573,6.1696,0.0,5.5395,5.5434,5.5357,5.4164,5.301,5.301,5.1927,0.0,5.0903,5.1074,5.1204,5.1208,5.128,5.1367,5.1562,0.0,0.0,0.0,0.0,0.0,0.0,0.0,0.0,0.0,0.0,0.0,0.0,0.0,0.0,0.0,5.6601,5.6562,5.6523,5.6523,5.6133,5.5312,5.5234,5.4805,5.4023,5.4805,5.5195,5.5234,5.6055,0.0,0.0,0.0,0.0,0.0,5.3359,5.2656,5.2539,5.1797,5.2539,5.4023,5.4062,5.5156,5.6601,5.6601,5.6601,5.6601,5.6601,5.6601,5.6601,5.6601,5.6601,5.6601,5.6601,5.6601,5.6601,5.6601,5.6601,5.6601,5.6601,5.6601,5.6601,5.6601,5.6601,5.6601,5.668,5.668,5.6719,5.6758,5.7461,5.8008,5.8008,5.8672,5.9219,5.9219,5.9258,5.9297,5.9297,5.9336,5.9375,5.9375,5.9258,5.9219,5.9297,5.9297,5.9648,6.0469,6.0508,6.0859,6.168,6.1719,6.1719,6.1719,6.1679,6.1718,6.1757,6.164,6.2028,5.1712,0.0,5.2664,5.201,5.1597,5.1279,0.0,5.1087,5.0932,5.102,0.0,0.0,5.1323,5.0898,0.0,0.0,0.0,0.0,0.0,0.0,0.0,0.0,0.0,0.0,0.0,0.0,0.0,0.0,0.0,0.0,0.0,5.6601,5.6289,5.5625,5.5625,5.5508,5.5312,5.4648,5.4219,5.3984,5.4219,5.4297,5.4297,5.4531,0.0,0.0,0.0,0.0,5.3281,5.2851,5.2305,5.1758,5.2226,5.3047,5.4062,5.4765,5.5664,5.6601,5.6601,5.6601,5.6601,5.6601,5.6601,5.6601,5.6601,5.6601,5.6601,5.6601,5.6601,5.6601,5.6601,5.6601,5.6601,5.6601,5.6601,5.6601,5.6601,5.6601,5.6797,5.7461,5.7578,5.7812,5.8476,5.875,5.8906,5.8906,5.9062,5.9219,5.9219,5.9726,6.0117,6.0117,6.0703,6.1094,6.1094,5.9922,5.9453,6.0078,6.0117,6.0508,6.1367,6.1406,6.1484,6.1719,6.1719,6.1719,6.1719,6.1585,6.1879,6.2535,6.2256,6.2572,5.0712,5.101,5.1241,5.0827,5.0712,5.0702,5.0773,0.0,0.0,0.0,0.0,0.0,0.0,0.0,0.0,0.0,0.0,0.0,0.0,0.0,0.0,0.0,0.0,0.0,0.0,0.0,0.0,0.0,0.0,0.0,0.0,5.6211,5.5781,5.5312,5.4531,5.4101,5.4101,5.3633,5.3203,5.2812,5.3203,5.3398,5.3437,5.3828,5.3984,0.0,0.0,0.0,5.2695,5.2695,5.2187,5.1523,5.2812,5.3594,5.4101,5.4961,5.5859,5.6601,5.6601,5.6601,5.6601,5.6601,5.6601,5.6601,5.6601,5.6601,5.6601,5.6601,5.6601,5.6601,5.6601,5.6601,5.6601,5.6601,5.6601,5.6601,5.6601,5.6914,5.7344,5.7812,5.8203,5.8633,5.9101,5.9492,5.9765,5.9765,6.0078,6.0351,6.0351,6.0742,6.1015,6.1015,6.1406,6.1719,6.1719,6.0859,6.0547,6.0976,6.1015,6.1211,6.168,6.1719,6.1719,6.1719,6.1719,6.1678,6.1629,6.1949,6.2297,6.2673,6.2804,6.3341,5.0866,5.0894,5.0856,5.075,5.0741,5.0747,5.0852,0.0,0.0,0.0,0.0,0.0,0.0,0.0,0.0,0.0,0.0,0.0,0.0,0.0,0.0,0.0,0.0,0.0,0.0,0.0,0.0,0.0,0.0,0.0,0.0,5.5781,5.5234,5.5117,5.3555,5.2656,5.25,5.25,5.2148,5.1406,5.2148,5.25,5.2539,5.3398,5.3789,0.0,0.0,0.0,5.2891,5.2891,5.2461,5.1953,5.3437,5.4062,5.4297,5.5039,5.5859,5.6601,5.6601,5.6601,5.6601,5.6601,5.6601,5.6601,5.6601,5.6601,5.6601,5.6601,5.6601,5.6601,5.6601,5.6601,5.664,5.6758,5.6797,5.6836,5.6953,5.7578,5.8125,5.8242,5.8867,5.9414,5.957,6.0156,6.0586,6.0586,6.1211,6.1719,6.1719,6.1719,6.1719,6.1719,6.1719,6.1719,6.1719,6.1719,6.1719,6.1719,6.1719,6.1719,6.1719,6.1719,6.1719,6.1719,6.1796,6.1824,6.1696,6.2524,6.2883,6.2866,6.3473,6.4174,5.1548,5.1731,5.1548,5.0856,5.0782,5.0852,5.0882,0.0,0.0,0.0,0.0,0.0,0.0,0.0,0.0,0.0,0.0,0.0,0.0,0.0,0.0,0.0,0.0,0.0,0.0,0.0,0.0,0.0,0.0,0.0,0.0,5.5781,5.4961,5.4219,5.3203,5.2344,5.1601,5.1601,5.1523,5.1406,5.1523,5.1601,5.1641,5.25,5.2891,0.0,0.0,5.3789,5.3789,5.3789,5.3711,5.3633,5.3906,5.4453,5.5117,5.5234,5.5859,5.6601,5.6601,5.6601,5.6601,5.6601,5.6601,5.6601,5.6601,5.6601,5.6601,5.6601,5.6601,5.6601,5.6601,5.6601,5.6797,5.7539,5.7695,5.789,5.8633,5.8906,5.9219,5.9883,6.0117,6.0469,6.1172,6.1406,6.1484,6.1484,6.1601,6.1719,6.1719,6.1719,6.1719,6.1719,6.1719,6.1719,6.1719,6.1719,6.1719,6.1719,6.1719,6.1719,6.1719,6.1719,6.1719,6.1719,6.2322,6.2602,6.259,6.3184,6.3817,6.4432,6.4442,6.4932,4.9847,5.0306,5.0695,5.0882,5.1245,5.1443,5.1157,0.0,0.0,0.0,0.0,0.0,0.0,0.0,0.0,0.0,0.0,0.0,0.0,0.0,0.0,0.0,0.0,0.0,0.0,0.0,0.0,0.0,0.0,0.0,0.0,0.0,5.4414,5.4023,5.2695,5.1797,5.1406,5.1406,5.1406,5.1406,5.1406,5.1406,5.1406,5.1797,5.2266,5.2734,0.0,5.3555,5.4023,5.4492,5.4414,5.4101,5.5039,5.5351,5.5351,5.582,5.625,5.6601,5.6601,5.6601,5.6601,5.6601,5.6601,5.6601,5.6601,5.6601,5.6719,5.7187,5.6953,5.6719,5.7187,5.7305,5.7539,5.8398,5.8594,5.8711,5.9101,5.9531,5.9961,6.0312,6.0781,6.1211,6.164,6.1719,6.1719,6.1719,6.1719,6.1719,6.1719,6.1719,6.1719,6.1719,6.1719,6.1875,6.2344,6.2383,6.2187,6.1719,6.2148,6.2383,6.2383,6.2851,6.3084,6.299,6.3313,6.3397,6.3236,6.3912,6.4396,6.4712,6.5113,6.5513,4.8493,4.9093,4.986,5.086,0.0,5.193,5.2077,5.1839,0.0,0.0,0.0,0.0,0.0,0.0,0.0,0.0,0.0,0.0,0.0,0.0,0.0,0.0,0.0,0.0,0.0,0.0,0.0,0.0,0.0,0.0,0.0,0.0,5.3711,5.3711,5.2187,5.1406,5.1406,5.1406,5.1406,5.1406,5.1406,5.1406,5.1406,5.1601,5.2187,5.3008,5.3008,5.3594,5.4648,5.5117,5.5039,5.4726,5.6094,5.6172,5.5703,5.6367,5.6601,5.6601,5.6601,5.6601,5.6601,5.6601,5.6601,5.6601,5.6601,5.6758,5.7031,5.7695,5.7578,5.7344,5.8047,5.8203,5.8437,5.9297,5.9492,5.9531,5.9726,6.0273,6.0703,6.0703,6.125,6.1719,6.1719,6.1719,6.1719,6.1719,6.1719,6.1719,6.1719,6.1875,6.1992,6.1992,6.2187,6.2578,6.3242,6.3281,6.3008,6.2344,6.293,6.3281,6.3277,6.3902,6.4198,6.4041,6.4172,6.4124,6.3883,6.4677,6.5005,6.4936,6.559,6.5897,4.9266,4.9551,4.9873,5.0945,5.1224,0.0,5.4289,5.366,0.0,5.3633,0.0,0.0,0.0,0.0,0.0,0.0,0.0,0.0,0.0,0.0,0.0,0.0,0.0,0.0,0.0,0.0,0.0,0.0,0.0,0.0,0.0,0.0,0.0,5.2773,5.1875,5.1406,5.1406,5.1406,5.1406,5.1406,5.1406,5.1406,5.1445,5.2226,5.3086,5.3906,5.3906,5.4844,5.6367,5.5625,5.5742,5.6445,5.6562,5.6562,5.6523,5.6562,5.6601,5.6601,5.6601,5.6601,5.6601,5.6601,5.6601,5.6601,5.6601,5.7148,5.7812,5.789,5.8437,5.9023,5.9101,5.9101,5.9297,6.0117,6.0312,6.0547,6.1367,6.1562,6.1601,6.1601,6.164,6.1719,6.1719,6.1719,6.1719,6.1719,6.1719,6.1719,6.1719,6.2422,6.289,6.289,6.3633,6.414,6.4219,6.4219,6.418,6.4101,6.418,6.4135,6.4049,6.4085,6.4037,6.3819,6.4427,6.4724,6.4735,6.545,6.5807,6.582,6.5859,6.5897,4.7301,4.821,4.9418,5.0956,5.1711,0.0,0.0,5.4373,5.457,5.543,0.0,0.0,0.0,0.0,0.0,0.0,0.0,0.0,0.0,0.0,0.0,0.0,0.0,0.0,0.0,0.0,0.0,0.0,0.0,0.0,0.0,0.0,0.0,5.2695,5.1836,5.1406,5.1406,5.1406,5.1406,5.1406,5.1406,5.1406,5.1406,5.1758,5.2383,5.3203,5.375,5.4687,5.582,5.6015,5.6289,5.6601,5.6601,5.6601,5.6601,5.6601,5.6601,5.6601,5.6601,5.6601,5.6601,5.6601,5.6601,5.6719,5.7226,5.7656,5.8125,5.914,5.9687,5.9961,5.9961,5.9961,6.0156,6.1015,6.1211,6.1289,6.164,6.1719,6.1719,6.1719,6.1719,6.1719,6.1719,6.1719,6.1719,6.1719,6.1719,6.1914,6.2422,6.2812,6.3203,6.375,6.4609,6.5117,6.5117,6.5498,6.5718,6.5718,6.521,6.4887,6.4857,6.5303,6.542,6.5225,6.5488,6.5556,6.5489,6.5767,6.5897,6.5897,6.5897,6.5897,4.6059,4.6989,4.833,5.0155,0.0,0.0,5.4101,5.5312,5.6367,5.7226,0.0,0.0,0.0,0.0,0.0,0.0,0.0,0.0,0.0,0.0,0.0,0.0,0.0,0.0,0.0,0.0,0.0,0.0,0.0,0.0,0.0,0.0,0.0,0.0,5.1719,5.1406,5.1406,5.1406,5.1406,5.1406,5.1406,5.1406,5.1406,5.1406,5.1875,5.2734,5.332,5.4258,5.5351,5.5937,5.6367,5.6601,5.6601,5.6601,5.6601,5.6601,5.6601,5.6601,5.6601,5.6601,5.6601,5.6601,5.6797,5.7109,5.7734,5.8281,5.8945,6.0078,6.0586,6.082,6.082,6.082,6.0976,6.1562,6.1719,6.1719,6.1719,6.1719,6.1719,6.1719,6.1719,6.1719,6.1719,6.1914,6.2109,6.2109,6.2344,6.2734,6.332,6.3633,6.414,6.5039,6.5583,6.5931,6.5931,6.6313,6.6529,6.6529,6.5908,6.5533,6.5533,6.6056,6.6204,6.6028,6.6018,6.5997,6.5897,6.5897,6.5897,6.5897,6.5897,6.5897,4.6072,4.613,4.6571,0.0,0.0,0.0,5.4726,5.668,5.8164,0.0,0.0,0.0,0.0,0.0,0.0,0.0,0.0,0.0,0.0,0.0,0.0,0.0,0.0,0.0,0.0,0.0,0.0,0.0,0.0,0.0,0.0,0.0,0.0,0.0,5.1406,5.1406,5.1406,5.1406,5.1406,5.1406,5.1406,5.1406,5.1406,5.1406,5.1875,5.2695,5.2695,5.3672,5.5273,5.5312,5.582,5.6601,5.6601,5.6601,5.6601,5.6601,5.6601,5.6601,5.6601,5.6601,5.6601,5.6601,5.7187,5.789,5.789,5.9062,6.039,6.039,6.1015,6.1719,6.1719,6.1719,6.1719,6.1719,6.1719,6.1719,6.1719,6.1719,6.1719,6.1719,6.1719,6.1719,6.1719,6.2422,6.3008,6.3008,6.375,6.4297,6.4297,6.5078,6.5937,6.6797,6.6735,6.6616,6.6616,6.6473,6.6387,6.6387,6.6204,6.6109,6.6109,6.6109,6.6056,6.591,6.5897,6.5897,6.5897,6.5897,6.5897,6.5897,6.5897,6.5897,4.6357,4.7144,0.0,0.0,0.0,0.0,0.0,5.8008,0.0,0.0,0.0,0.0,0.0,0.0,0.0,0.0,0.0,0.0,0.0,0.0,0.0,0.0,0.0,0.0,0.0,0.0,0.0,0.0,0.0,0.0,0.0,0.0,0.0,0.0,5.1406,5.1406,5.1406,5.1406,5.1406,5.1406,5.1406,5.1406,5.1406,5.1406,5.1523,5.1836,5.3086,5.3906,5.4492,5.5703,5.6367,5.6601,5.6601,5.6601,5.6601,5.6601,5.6601,5.6601,5.6601,5.6601,5.6601,5.6601,5.7187,5.8008,5.8633,5.957,6.0547,6.1133,6.1484,6.1719,6.1719,6.1719,6.1719,6.1719,6.1719,6.1719,6.1719,6.1719,6.1719,6.1719,6.1719,6.1719,6.1719,6.2422,6.3008,6.3008,6.375,6.4531,6.5156,6.5976,6.656,6.6692,6.6631,6.6549,6.6468,6.6298,6.6179,6.6179,6.6056,6.5981,6.61,6.6003,6.5919,6.5897,6.5897,6.5897,6.5897,6.5897,6.5897,6.5897,6.5897,6.5897,4.7343,0.0,0.0,0.0,0.0,0.0,0.0,0.0,0.0,0.0,0.0,0.0,0.0,0.0,0.0,0.0,0.0,0.0,0.0,0.0,0.0,0.0,0.0,0.0,0.0,0.0,0.0,0.0,0.0,0.0,0.0,0.0,0.0,0.0,5.1406,5.1406,5.1406,5.1406,5.1406,5.1406,5.1406,5.1406,5.1406,5.1406,5.1406,5.1484,5.3242,5.4375,5.5117,5.6172,5.6601,5.6601,5.6601,5.6601,5.6601,5.6601,5.6601,5.6601,5.6601,5.6601,5.6601,5.6601,5.7422,5.8515,5.9023,6.0,6.1015,6.1562,6.1719,6.1719,6.1719,6.1719,6.1719,6.1719,6.1719,6.1719,6.1719,6.1719,6.1719,6.1719,6.1719,6.1797,6.2148,6.293,6.3633,6.3984,6.4765,6.5507,6.5929,6.6474,6.6692,6.6529,6.6434,6.636,6.629,6.6109,6.6024,6.6024,6.5931,6.5958,6.6024,6.5931,6.5897,6.5897,6.5897,6.5897,6.5897,6.5897,6.5897,6.5897,6.5897,6.5897,4.8672,0.0,0.0,0.0,0.0,0.0,0.0,0.0,0.0,0.0,0.0,0.0,0.0,0.0,0.0,0.0,0.0,0.0,0.0,0.0,0.0,0.0,0.0,0.0,0.0,0.0,0.0,0.0,0.0,0.0,0.0,0.0,0.0,5.1406,5.1406,5.1406,5.1406,5.1406,5.1406,0.0,5.1406,5.1406,5.1406,5.1406,5.1484,5.1719,5.332,5.5,5.6601,5.6601,5.6601,5.6601,5.6601,5.6601,5.6601,5.6601,5.6601,5.6601,5.6601,5.6601,5.6601,5.668,5.7851,5.9219,5.9297,6.043,6.1719,6.1719,6.1719,6.1719,6.1719,6.1719,6.1719,6.1719,6.1719,6.1719,6.1719,6.1719,6.1719,6.1719,6.1758,6.207,6.2851,6.3789,6.4726,6.5586,6.6367,6.6791,6.6625,6.6571,6.6525,6.6381,6.6204,6.61,6.608,6.5951,6.5897,6.5897,6.5897,6.5897,6.5897,6.5897,6.5897,6.5897,6.5897,6.5897,6.5897,6.5897,6.5897,6.5897,6.5897,6.5936,0.0,5.0,0.0,0.0,0.0,0.0,0.0,0.0,0.0,0.0,0.0,0.0,0.0,0.0,0.0,0.0,0.0,0.0,0.0,0.0,0.0,0.0,0.0,0.0,0.0,0.0,0.0,0.0,0.0,0.0,0.0,0.0,0.0,5.1406,5.1406,5.1406,5.1406,5.1406,5.1406,0.0,5.1406,5.1406,5.1406,5.1406,5.2148,5.3476,5.3828,5.5,5.6601,5.6601,5.6601,5.6601,5.6601,5.6601,5.6601,5.6601,5.6601,5.6601,5.6601,5.6601,5.6719,5.7383,5.8359,5.9336,5.9961,6.0859,6.1719,6.1719,6.1719,6.1719,6.1719,6.1719,6.1719,6.1719,6.1719,6.1719,6.1719,6.1719,6.1719,6.1719,6.2265,6.2773,6.2969,6.4297,6.5625,6.6484,6.6667,6.6636,6.6619,6.6507,6.6374,6.6179,6.6137,6.6069,6.5955,6.5909,6.5897,6.5897,6.5897,6.5897,6.5897,6.5897,6.5897,6.5897,6.5897,6.5897,6.5897,6.5897,6.5897,6.5897,6.5897,6.6244,0.0,0.0,0.0,0.0,0.0,0.0,0.0,0.0,0.0,0.0,0.0,0.0,0.0,0.0,0.0,0.0,0.0,0.0,0.0,0.0,0.0,0.0,0.0,0.0,0.0,0.0,0.0,0.0,0.0,0.0,0.0,5.1406,5.1406,5.1406,5.1406,5.1406,5.1406,5.1406,5.1406,5.1406,5.1406,5.1406,5.1406,5.1406,5.2109,5.3398,5.3828,5.4765,5.6015,5.6445,5.6601,5.6601,5.6601,5.6601,5.6601,5.6601,5.6601,5.6601,5.6601,5.6601,5.6758,5.7617,5.8476,5.9336,6.0156,6.1015,6.1719,6.1719,6.1719,6.1719,6.1719,6.1719,6.1719,6.1719,6.1719,6.1719,6.1719,6.1719,6.1836,6.2226,6.2695,6.3281,6.4101,6.5269,6.6236,6.6704,6.661,6.6478,6.6367,6.632,6.6209,6.6024,6.5992,6.5963,6.5923,6.5897,6.5897,6.5897,6.5897,6.5897,6.5897,6.5897,6.5897,6.5897,6.5897,6.5897,6.5897,6.5897,6.5897,6.5897,6.5897,6.632,0.0,0.0,0.0,0.0,0.0,0.0,0.0,0.0,0.0,0.0,0.0,0.0,0.0,0.0,0.0,0.0,0.0,0.0,0.0,0.0,0.0,0.0,0.0,0.0,0.0,0.0,0.0,0.0,0.0,0.0,5.1406,5.1406,5.1406,5.1406,5.1406,5.1406,5.1406,5.1406,5.1406,5.1406,5.1406,5.1406,5.1406,5.1406,5.1875,5.2734,5.3633,5.4492,5.5351,5.625,5.6601,5.6601,5.6601,5.6601,5.6601,5.6601,5.6601,5.6601,5.6601,5.6601,5.6758,5.7773,5.8594,5.9375,6.0312,6.1133,6.1719,6.1719,6.1719,6.1719,6.1719,6.1719,6.1719,6.1719,6.1797,6.1914,6.1914,6.1914,6.2187,6.3047,6.3359,6.3945,6.5506,6.6225,6.6574,6.6557,6.6446,6.6283,6.6137,6.607,6.6035,6.5897,6.5897,6.5897,6.5897,6.5897,6.5897,6.5897,6.5897,6.5897,6.5897,6.5897,6.5897,6.5897,6.5897,6.5897,6.5897,6.5897,6.5897,6.5897,6.6051,6.6551,0.0,0.0,0.0,0.0,0.0,0.0,0.0,0.0,0.0,0.0,0.0,0.0,0.0,0.0,0.0,0.0,0.0,0.0,0.0,0.0,0.0,0.0,0.0,0.0,0.0,0.0,0.0,0.0,0.0,0.0,5.1406,5.1406,5.1406,5.1406,5.1406,5.1406,5.1406,5.1406,5.1406,5.1406,5.1406,5.1406,5.1406,5.1406,5.1875,5.2734,5.3633,5.4492,5.5351,5.625,5.6601,5.6601,5.6601,5.6601,5.6601,5.6601,5.6601,5.6601,5.6601,5.6601,5.6875,5.8515,5.9101,5.9492,6.1055,6.1601,6.1719,6.1719,6.1719,6.1719,6.1719,6.1719,6.1719,6.1719,6.2265,6.2812,6.2812,6.2812,6.3086,6.3945,6.4726,6.5506,6.6329,6.6544,6.6549,6.6441,6.6268,6.6146,6.6109,6.6019,6.5909,6.591,6.5897,6.5897,6.5897,6.5897,6.5897,6.5897,6.5897,6.5897,6.5897,6.5897,6.5897,6.5897,6.5897,6.5897,6.5897,6.5897,6.5897,6.5897,6.6628,6.7398,5.0156,0.0,0.0,0.0,0.0,0.0,0.0,0.0,0.0,0.0,0.0,0.0,0.0,0.0,0.0,0.0,0.0,0.0,0.0,0.0,0.0,0.0,0.0,0.0,0.0,0.0,0.0,0.0,0.0,5.1406,5.1406,5.1406,5.1406,5.1406,5.1406,5.1406,5.1406,5.1406,5.1406,5.1406,5.1406,5.1406,5.1406,5.1406,5.1601,5.2031,5.3398,5.4219,5.4687,5.6055,5.6601,5.6601,5.6601,5.6601,5.6601,5.6601,5.6601,5.6601,5.6601,5.6914,5.7539,5.8789,5.9492,6.0117,6.1328,6.1719,6.1719,6.1719,6.1719,6.1719,6.1719,6.1719,6.1836,6.2305,6.2734,6.3281,6.4258,6.4062,6.3984,6.4844,6.5658,6.6262,6.6544,6.6434,6.6288,6.6236,6.6099,6.5997,6.5997,6.5958,6.5897,6.5897,6.5897,6.5897,6.5897,6.5897,6.5897,6.5897,6.5897,6.5897,6.5897,6.5897,6.5897,6.5897,6.5897,6.5897,6.5897,6.5897,6.5897,6.5897,6.6744,6.7552,0.0,0.0,0.0,0.0,0.0,0.0,0.0,0.0,0.0,0.0,0.0,0.0,0.0,0.0,0.0,0.0,0.0,0.0,0.0,0.0,0.0,0.0,0.0,0.0,0.0,0.0,0.0,0.0,0.0,5.1406,5.1406,5.1406,5.1406,5.1406,5.1406,5.1406,5.1406,5.1406,5.1406,5.1406,5.1406,5.1406,5.1406,5.1406,5.1523,5.1836,5.3359,5.3984,5.4141,5.5898,5.6601,5.6601,5.6601,5.6601,5.6601,5.6601,5.6601,5.664,5.6836,5.7344,5.8086,5.914,5.9922,6.0547,6.1445,6.1719,6.1719,6.1719,6.1719,6.1719,6.1719,6.1875,6.2187,6.2809,6.3277,6.3942,6.5312,6.5233,6.5074,6.5738,6.6249,6.6533,6.6464,6.6259,6.609,6.6059,6.5978,6.5897,6.5897,6.5897,6.5897,6.5897,6.5897,6.5897,6.5897,6.5897,6.5897,6.5897,6.5897,6.5897,6.5897,6.5897,6.5897,6.5897,6.5897,6.5897,6.5897,6.5897,6.6013,6.6205,6.7051,6.7898,0.0,0.0,0.0,0.0,0.0,0.0,0.0,0.0,0.0,0.0,0.0,0.0,0.0,0.0,0.0,0.0,0.0,0.0,0.0,0.0,0.0,0.0,0.0,0.0,0.0,0.0,0.0,0.0,0.0,5.1406,5.1406,5.1406,5.1406,5.1406,5.1406,5.1406,5.1406,5.1406,5.1406,5.1406,5.1406,5.1406,5.1406,5.1406,5.1836,5.2695,5.3594,5.3984,5.4141,5.5898,5.6601,5.6601,5.6601,5.6601,5.6601,5.6601,5.6601,5.6719,5.7539,5.7851,5.8164,5.9805,6.0351,6.0547,6.1445,6.1719,6.1719,6.1719,6.1719,6.1719,6.1719,6.2305,6.2928,6.2847,6.4004,6.5273,6.5545,6.6078,6.6505,6.6544,6.6464,6.6347,6.6153,6.6128,6.6059,6.5933,6.591,6.5897,6.5897,6.5897,6.5897,6.5897,6.5897,6.5897,6.5897,6.5897,6.5897,6.5897,6.5897,6.5897,6.5897,6.5897,6.5897,6.5897,6.5897,6.5897,6.5897,6.5897,6.6282,6.7051,6.7936,6.8821,0.0,0.0,0.0,0.0,0.0,0.0,0.0,0.0,0.0,0.0,0.0,0.0,0.0,0.0,0.0,0.0,0.0,0.0,0.0,0.0,0.0,0.0,0.0,0.0,0.0,0.0,0.0,0.0,0.0,0.0,5.1406,5.1406,5.1406,5.1406,5.1406,5.1406,5.1406,5.1406,5.1406,5.1406,5.1406,5.1406,5.1406,5.1406,5.1875,5.2734,5.3633,5.4336,5.4922,5.6094,5.6601,5.6601,5.6601,5.6601,5.6601,5.6601,5.6953,5.7461,5.7773,5.8594,5.9609,6.0195,6.0781,6.1289,6.1601,6.1719,6.1719,6.1719,6.2109,6.2499,6.2441,6.3058,6.3784,6.4193,6.5177,6.6016,6.6096,6.6308,6.6468,6.6468,6.6341,6.617,6.6128,6.6046,6.5762,6.514,6.5551,6.5705,6.5128,6.5551,6.5897,6.5897,6.5897,6.5897,6.5897,6.5897,6.5897,6.5897,6.5897,6.5897,6.5897,6.5897,6.5897,6.5897,6.5897,6.5897,6.5897,6.5897,6.632,6.7128,6.7975,6.8859,4.7851,0.0,0.0,0.0,0.0,0.0,0.0,0.0,0.0,0.0,0.0,0.0,0.0,0.0,0.0,0.0,0.0,0.0,0.0,0.0,0.0,0.0,0.0,0.0,0.0,0.0,0.0,0.0,0.0,0.0,5.1406,5.1406,5.1406,5.1406,5.1406,5.1406,5.1406,5.1406,5.1406,5.1406,5.1406,5.1406,5.1406,5.1406,5.2031,5.3164,5.375,5.4492,5.5351,5.625,5.6601,5.6601,5.6601,5.6601,5.664,5.6914,5.7383,5.7969,5.8555,5.9453,6.0469,6.0742,6.1211,6.1719,6.1719,6.1719,6.1758,6.2031,6.2537,6.2996,6.3191,6.3787,6.4521,6.5263,6.5848,6.6226,6.6226,6.6283,6.6298,6.6298,6.6156,6.6018,6.6018,6.5967,6.5705,6.5128,6.5513,6.5705,6.5128,6.5551,6.5897,6.5897,6.5897,6.5897,6.5897,6.5897,6.5897,6.5897,6.6128,6.6282,6.6282,6.659,6.6744,6.6744,6.6744,6.6744,6.6744,6.6436,6.6859,6.7975,6.859,6.9283,0.0,0.0,0.0,0.0,0.0,0.0,0.0,0.0,0.0,0.0,0.0,0.0,0.0,0.0,0.0,0.0,0.0,0.0,0.0,0.0,0.0,0.0,0.0,0.0,0.0,0.0,0.0,0.0,0.0,5.1406,5.1406,5.1406,5.1406,5.1406,5.1406,5.1406,5.1406,5.1406,5.1406,5.1406,5.1406,5.1406,5.1406,5.1445,5.2383,5.3984,5.4023,5.4531,5.539,5.625,5.6601,5.6601,5.6601,5.6601,5.6758,5.7578,5.793,5.8203,5.9844,6.043,6.0586,6.1445,6.1719,6.1719,6.1719,6.1719,6.1914,6.2734,6.2911,6.3052,6.3911,6.4494,6.5035,6.5896,6.6008,6.5897,6.5897,6.5992,6.61,6.61,6.5997,6.5897,6.5897,6.5897,6.5897,6.5859,6.5859,6.5859,6.5859,6.5859,6.5859,6.5897,6.5897,6.5897,6.5897,6.5897,6.5897,6.5936,6.6667,6.709,6.7128,6.7936,6.8385,6.8385,6.8385,6.8398,6.8423,6.7552,6.8013,6.9706,6.9706,7.0167,4.5991,0.0,0.0,0.0,0.0,0.0,0.0,0.0,0.0,0.0,0.0,0.0,0.0,0.0,0.0,0.0,0.0,0.0,0.0,0.0,0.0,0.0,0.0,0.0,0.0,0.0,0.0,0.0,5.1406,5.1406,5.1406,5.1406,5.1406,5.1406,5.1406,5.1406,5.1406,5.1406,5.1406,5.1406,5.1406,5.1406,5.1406,5.2031,5.2969,5.4023,5.4687,5.543,5.625,5.6484,5.6601,5.6601,5.6601,5.6992,5.7578,5.7812,5.8672,5.9765,6.0234,6.082,6.1367,6.1601,6.1719,6.1679,6.1582,6.1998,6.2532,6.2625,6.3512,6.4627,6.5358,6.5567,6.5647,6.5916,6.5933,6.5897,6.5897,6.5933,6.5955,6.5955,6.5921,6.5897,6.5897,6.5897,6.5705,6.5051,6.4974,6.4974,6.4974,6.4974,6.5205,6.582,6.5897,6.5897,6.5897,6.5897,6.6128,6.6744,6.6974,6.7359,6.8013,6.8282,6.8385,6.8385,6.8385,6.8706,6.936,6.8475,6.8629,6.9706,7.0283,7.0706,0.0,0.0,0.0,0.0,0.0,0.0,0.0,4.9805,0.0,0.0,0.0,0.0,0.0,0.0,0.0,0.0,0.0,0.0,0.0,0.0,0.0,0.0,0.0,0.0,0.0,0.0,0.0,5.1406,5.1406,5.1406,5.1406,5.1406,5.1406,5.1406,5.1406,5.1406,5.1406,5.1406,5.1406,5.1406,5.1406,5.1406,5.1445,5.2305,5.3164,5.4062,5.4922,5.5781,5.6601,5.6558,5.6559,5.6601,5.6601,5.7148,5.793,5.832,5.9258,6.0469,6.082,6.1289,6.1679,6.1634,6.163,6.1584,6.1474,6.2024,6.2747,6.298,6.4227,6.5591,6.5933,6.5967,6.5897,6.5897,6.5897,6.5897,6.5897,6.5897,6.5897,6.5897,6.5897,6.5897,6.5897,6.5897,6.5743,6.5205,6.5128,6.5128,6.5128,6.5128,6.532,6.5859,6.5897,6.5897,6.5897,6.6205,6.659,6.7051,6.7782,6.8398,6.8936,6.9283,6.9436,6.9436,6.9436,6.9706,7.0206,6.936,6.9398,7.0206,7.0667,7.0898,4.5992,4.6075,0.0,0.0,0.0,0.0,5.0156,4.9766,0.0,0.0,0.0,0.0,0.0,0.0,0.0,0.0,0.0,0.0,0.0,0.0,0.0,0.0,0.0,0.0,0.0,5.1406,5.1406,5.1406,5.1406,5.1406,5.1406,5.1406,5.1406,5.1406,5.1406,5.1406,5.1406,5.1406,5.1406,5.1406,5.1406,5.1445,5.1562,5.2461,5.332,5.4179,5.5038,5.5858,5.6558,5.6443,5.6456,5.6601,5.6679,5.7265,5.8124,5.9023,5.9843,6.0624,6.1406,6.1678,6.1634,6.1512,6.1488,6.1471,6.1423,6.1992,6.2802,6.3761,6.5023,6.6049,6.5933,6.5897,6.5897,6.5897,6.5897,6.5897,6.5897,6.5897,6.5897,6.5897,6.5897,6.5897,6.5897,6.5897,6.5897,6.5897,6.582,6.5782,6.5897,6.582,6.5782,6.5897,6.5897,6.5936,6.6013,6.6667,6.7167,6.7359,6.8821,6.9744,6.9821,7.0514,7.0898,7.0898,7.0898,7.0898,7.0898,7.0167,7.0206,7.0898,7.0898,7.0898,4.5664,4.592,4.6017,0.0,0.0,0.0,0.0,4.7578,0.0,0.0,0.0,0.0,0.0,0.0,0.0,0.0,0.0,0.0,0.0,0.0,0.0,0.0,0.0,0.0,0.0,5.1406,5.1406,5.1406,5.1406,5.1406,5.1406,5.1406,5.1406,5.1406,5.1406,5.1406,5.1406,5.1406,5.1406,5.1406,5.1406,5.1758,5.2461,5.3359,5.4175,5.4923,5.5823,5.6221,5.6264,5.6242,5.6336,5.6526,5.7192,5.7972,5.8838,5.9802,6.0657,6.133,6.1486,6.1481,6.1364,6.1339,6.1328,6.1417,6.1935,6.2715,6.3678,6.5104,6.5697,6.5946,6.5923,6.5897,6.5897,6.5897,6.5897,6.5897,6.5897,6.5897,6.5897,6.5897,6.5897,6.5897,6.5897,6.5897,6.5897,6.5897,6.5282,6.5128,6.582,6.5282,6.5128,6.582,6.5897,6.6167,6.6821,6.7013,6.7705,6.909,6.9513,6.9975,7.0629,7.0821,7.0898,7.0898,7.0898,7.0898,7.0898,7.0744,7.0744,7.0898,7.0898,7.0898,4.5641,4.5801,4.5857,4.5974,0.0,0.0,0.0,0.0,0.0,0.0,0.0,0.0,0.0,0.0,0.0,0.0,0.0,0.0,0.0,0.0,0.0,0.0,0.0,0.0,0.0,5.2305,5.1875,5.1445,5.1406,5.1406,5.1406,5.1406,5.1406,5.1406,5.1406,5.1406,5.1406,5.1323,5.1316,5.1316,5.1254,5.1708,5.2525,5.3387,5.4222,5.5034,5.5931,5.6251,5.6186,5.611,5.6083,5.6241,5.7297,5.8187,5.9009,5.9939,6.0768,6.1392,6.1392,6.1349,6.1271,6.1186,6.1422,6.185,6.2124,6.3074,6.4354,6.5562,6.5897,6.5897,6.5897,6.5897,6.5897,6.5897,6.5897,6.5897,6.5897,6.5897,6.5897,6.5897,6.5897,6.5897,6.5897,6.5897,6.5897,6.5897,6.5513,6.5397,6.582,6.5513,6.5436,6.5859,6.6244,6.6667,6.7051,6.7898,6.8783,6.9629,7.009,7.0475,7.0898,7.0898,7.0898,7.0898,7.0898,7.0898,7.0898,7.0898,7.0898,7.0898,7.0898,7.0898,0.0,0.0,0.0,0.0,0.0,4.6085,0.0,0.0,0.0,0.0,0.0,0.0,0.0,0.0,0.0,0.0,0.0,0.0,0.0,0.0,0.0,0.0,0.0,0.0,0.0,5.3125,5.2344,5.1484,5.1406,5.1406,5.1406,5.1406,5.1406,5.1406,5.1366,5.1365,5.1365,5.1254,5.1183,5.118,5.1295,5.175,5.2562,5.3462,5.4302,5.513,5.5835,5.6135,5.6091,5.5932,5.5999,5.6265,5.74,5.825,5.8952,6.0024,6.0741,6.124,6.124,6.122,6.1165,6.0997,6.166,6.25,6.2556,6.3628,6.5013,6.5705,6.5897,6.5897,6.5897,6.5897,6.5897,6.5897,6.5897,6.5897,6.5897,6.5897,6.5897,6.5897,6.5897,6.5897,6.5897,6.6013,6.6128,6.6128,6.6282,6.6397,6.6397,6.6397,6.6397,6.6397,6.6974,6.7398,6.759,6.8898,6.9783,6.9937,7.0552,7.0898,7.0898,7.0898,7.0898,7.0898,7.0898,7.0898,7.0898,7.0898,7.0898,7.0898,7.0898,7.0898,0.0,0.0,0.0,0.0,4.5809,0.0,0.0,0.0,0.0,0.0,0.0,0.0,0.0,0.0,0.0,0.0,0.0,0.0,0.0,0.0,0.0,0.0,0.0,0.0,0.0,0.0,5.2344,5.1484,5.1406,5.1406,5.1406,5.1406,5.1406,5.1406,5.1273,5.1213,5.1213,5.1133,5.1113,5.1113,5.1833,5.2606,5.3468,5.4357,5.5138,5.58,5.5878,5.5887,5.5758,5.5728,5.6233,5.7124,5.8033,5.8444,5.8777,6.0526,6.1129,6.104,6.104,6.0974,6.0845,6.085,6.1867,6.3318,6.4102,6.4974,6.5782,6.5859,6.5897,6.5897,6.5897,6.5897,6.5897,6.5897,6.5897,6.5897,6.5897,6.5897,6.5897,6.5897,6.5897,6.5897,6.5897,6.6474,6.6974,6.6974,6.7628,6.8129,6.8129,6.8129,6.8129,6.8129,6.8205,6.859,6.936,6.959,7.0014,7.0706,7.086,7.0898,7.0898,7.0898,7.0898,7.0898,7.0898,7.0898,7.0898,7.0898,7.0898,7.0898,7.0898,7.0898,0.0,0.0,0.0,0.0,0.0,0.0,0.0,0.0,4.5764,0.0,0.0,0.0,0.0,0.0,0.0,0.0,0.0,0.0,0.0,0.0,0.0,0.0,0.0,0.0,0.0,0.0,0.0,0.0,0.0,5.1222,5.1222,5.1222,5.1222,5.1222,5.119,5.1129,5.1129,5.1042,5.0966,5.0998,5.1702,5.2531,5.339,5.4279,5.5079,5.5798,5.5798,5.573,5.5703,5.5703,5.6239,5.7188,5.8037,5.8703,5.934,6.0639,6.1036,6.0892,6.0892,6.0856,6.0973,6.1935,6.3089,6.4205,6.5089,6.559,6.5897,6.5897,6.5897,6.5897,6.5897,6.5897,6.5897,6.5897,6.5897,6.5897,6.5897,6.5897,6.6051,6.6513,6.659,6.6744,6.7244,6.7205,6.7282,6.7782,6.8167,6.8385,6.8385,6.8385,6.8385,6.8385,6.8859,6.9321,6.9667,7.0129,7.0552,7.0898,7.0898,7.0898,7.0898,7.0898,7.0898,7.0898,7.0898,7.0898,7.0898,7.0898,7.0898,7.0898,7.0898,7.0898,4.6278,0.0,0.0,0.0,0.0,0.0,0.0,0.0,0.0,0.0,0.0,0.0,0.0,0.0,0.0,0.0,0.0,0.0,0.0,0.0,0.0,0.0,0.0,0.0,0.0,0.0,0.0,0.0,0.0,0.0,5.14,5.1439,5.1439,5.1439,5.1403,5.1264,5.1036,5.0903,5.0844,5.0844,5.1789,5.2577,5.3241,5.4318,5.5164,5.5703,5.5703,5.5703,5.5703,5.5972,5.6549,5.7434,5.8319,5.9171,6.0075,6.0703,6.0892,6.0781,6.0781,6.0973,6.1435,6.3128,6.4089,6.4743,6.5628,6.5897,6.5897,6.5897,6.5897,6.5897,6.5897,6.5897,6.5897,6.5897,6.5897,6.5974,6.6167,6.6244,6.6474,6.7282,6.7475,6.7744,6.8629,6.8244,6.8013,6.8667,6.8936,6.909,6.909,6.909,6.909,6.909,6.9667,7.0014,7.0014,7.0552,7.0898,7.0898,7.0898,7.0898,7.0898,7.0898,7.0898,7.0898,7.0898,7.0898,7.0898,7.0898,7.0898,7.0898,7.0898,7.0898,0.0,0.0,0.0,4.6846,0.0,0.0,0.0,0.0,4.5594,0.0,0.0,0.0,0.0,0.0,0.0,0.0,0.0,0.0,0.0,0.0,0.0,0.0,0.0,0.0,0.0,0.0,0.0,0.0,0.0,0.0,5.2173,5.2251,5.2251,5.2251,5.2149,5.171,5.0896,5.0764,5.0721,5.0721,5.2356,5.3164,5.328,5.4895,5.5665,5.5703,5.5703,5.5703,5.578,5.6599,5.7473,5.8357,5.9165,6.0023,6.0766,6.0804,6.0793,6.0781,6.0781,6.137,6.2332,6.4012,6.4589,6.4743,6.5628,6.5897,6.5897,6.5897,6.5897,6.5897,6.5897,6.5897,6.5897,6.5897,6.5897,6.609,6.6898,6.7051,6.7321,6.8205,6.8359,6.8629,6.9513,6.9629,6.9629,6.9667,7.0321,7.0821,7.0821,7.0821,7.0821,7.0821,7.0821,7.086,7.086,7.0898,7.0898,7.0898,7.0898,7.0898,7.0898,7.0898,7.0898,7.0898,7.0898,7.0898,7.0898,7.0898,7.0898,7.0898,7.0898,7.0898,0.0,0.0,4.6885,4.6885,0.0,0.0,0.0,0.0,0.0,0.0,0.0,0.0,0.0,0.0,0.0,0.0,0.0,0.0,0.0,0.0,0.0,0.0,0.0,0.0,0.0,0.0,0.0,0.0,5.0256,0.0,0.0,5.1747,5.2056,5.2056,5.2557,5.2713,5.2405,5.1819,5.1779,5.2356,5.2933,5.351,5.4087,5.5203,5.5703,5.5703,5.5703,5.5703,5.578,5.6637,5.7511,5.8396,5.9204,6.0012,6.0781,6.0781,6.0781,6.0858,6.1447,6.2204,6.3089,6.4243,6.4974,6.5513,6.582,6.5897,6.5897,6.5897,6.5897,6.5897,6.5897,6.6282,6.6667,6.6667,6.7128,6.7628,6.7898,6.7975,6.8205,6.909,6.9244,6.9513,7.036,7.0475,7.0475,7.0475,7.0744,7.0898,7.0898,7.0898,7.0898,7.0898,7.0898,7.0898,7.0898,7.0898,7.0898,7.0898,7.0898,7.0898,7.0898,7.0898,7.0898,7.0898,7.0898,7.0898,7.0898,7.0898,7.0898,7.0898,7.0898,7.0898,4.9009,4.8432,0.0,4.7778,4.7124,0.0,4.6471,0.0,0.0,0.0,0.0,0.0,0.0,0.0,0.0,0.0,0.0,0.0,0.0,0.0,0.0,0.0,0.0,0.0,0.0,0.0,5.0048,4.9894,4.9817,0.0,0.0,0.0,5.2346,5.2346,5.3203,5.351,5.3203,5.2654,5.2654,5.3203,5.351,5.3972,5.4511,5.5318,5.5703,5.5703,5.5703,5.5857,5.6252,5.7088,5.7973,5.8819,5.9627,6.0319,6.0781,6.0781,6.1012,6.1358,6.2243,6.3051,6.3897,6.4782,6.5436,6.5897,6.5897,6.5897,6.5897,6.5897,6.5897,6.5974,6.6244,6.6705,6.7167,6.7475,6.7975,6.8475,6.8821,6.8859,6.9129,6.9975,7.0129,7.0283,7.0821,7.0898,7.0898,7.0898,7.0898,7.0898,7.0898,7.0898,7.0898,7.0898,7.0898,7.0898,7.0898,7.0898,7.0898,7.0898,7.0898,7.0898,7.0898,7.0898,7.0898,7.0898,7.0898,7.0898,7.0898,7.0898,7.0898,7.0898,7.0898,7.0898]}]]